[[{"header":{"parameterUnit":"m.s-1","parameterCategory":1,"la1":30.6,"la2":28.766,"lo1":-90.7593,"lo2":-88.6598,"dy":0.0162,"dx":0.0183,"nx":116,"ny":114,"refTime":"2023-05-30T12:00:00:Z","depth":0,"parameterNumber":2,"parameterNumberName":"U-component_of_WINDS"},"data":[0.0,0.0,0.0,0.0,0.0,0.0,0.0,0.0,0.0,0.0,0.0,0.0,0.0,0.0,0.0,0.0,0.0,0.0,0.0,0.0,0.0,0.0,0.0,0.0,0.0,0.0,0.0,0.0,0.0,0.0,0.0,0.0,0.0,0.0,0.0,0.0,0.0,0.0,0.0,0.0,0.0,0.0,0.0,0.0,0.0,0.0,0.0,0.0,0.0,0.0,0.0,0.0,0.0,0.0,0.0,0.0,0.0,0.0,0.0,0.0,0.0,0.0,0.0,0.0,0.0,0.0,0.0,0.0,0.0,0.0,0.0,0.0,0.0,0.0,0.0,0.0,0.0,0.0,0.0,0.0,0.0,0.0,0.0,0.0,0.0,0.0,0.0,0.0,0.0,0.0,0.0,0.0,0.0,0.0,0.0,0.0,0.0,0.0,0.0,0.0,0.0,0.0,0.0,0.0,0.0,0.0,0.0,0.0,0.0,0.0,0.0,0.0,0.0,0.0,0.0,0.0,0.0,0.0,0.0,0.0,0.0,0.0,0.0,0.0,0.0,0.0,0.0,0.0,0.0,0.0,0.0,0.0,0.0,0.0,0.0,0.0,0.0,0.0,0.0,0.0,0.0,0.0,0.0,0.0,0.0,0.0,0.0,0.0,0.0,0.0,0.0,0.0,0.0,0.0,0.0,0.0,0.0,0.0,0.0,0.0,0.0,0.0,0.0,0.0,0.0,0.0,0.0,0.0,0.0,0.0,0.0,0.0,0.0,0.0,0.0,0.0,0.0,0.0,0.0,0.0,0.0,0.0,0.0,0.0,0.0,0.0,0.0,0.0,0.0,0.0,0.0,0.0,0.0,0.0,0.0,0.0,0.0,0.0,0.0,0.0,0.0,0.0,0.0,0.0,0.0,0.0,0.0,0.0,0.0,0.0,0.0,0.0,0.0,0.0,0.0,0.0,0.0,0.0,0.0,0.0,0.0,0.0,0.0,0.0,0.0,0.0,0.0,0.0,0.0,0.0,0.0,0.0,0.0,0.0,0.0,0.0,0.0,0.0,0.0,0.0,0.0,0.0,0.0,0.0,0.0,0.0,0.0,0.0,0.0,0.0,0.0,0.0,0.0,0.0,0.0,0.0,0.0,0.0,0.0,0.0,0.0,0.0,0.0,0.0,0.0,0.0,0.0,0.0,0.0,0.0,0.0,0.0,0.0,0.0,0.0,0.0,0.0,0.0,0.0,0.0,0.0,0.0,0.0,0.0,0.0,0.0,0.0,0.0,0.0,0.0,0.0,0.0,0.0,0.0,0.0,0.0,0.0,0.0,0.0,0.0,0.0,0.0,0.0,0.0,0.0,0.0,0.0,0.0,0.0,0.0,0.0,0.0,0.0,0.0,0.0,0.0,0.0,0.0,0.0,0.0,0.0,0.0,0.0,0.0,0.0,0.0,0.0,0.0,0.0,0.0,0.0,0.0,0.0,0.0,0.0,0.0,0.0,0.0,0.0,0.0,0.0,0.0,0.0,0.0,0.0,0.0,0.0,0.0,0.0,0.0,0.0,0.0,0.0,0.0,0.0,0.0,0.0,0.0,0.0,0.0,0.0,0.0,0.0,0.0,0.0,0.0,0.0,0.0,0.0,0.0,0.0,0.0,0.0,0.0,0.0,0.0,0.0,0.0,0.0,0.0,0.0,0.0,0.0,0.0,0.0,0.0,0.0,0.0,0.0,0.0,0.0,0.0,0.0,0.0,0.0,0.0,0.0,0.0,0.0,0.0,0.0,0.0,0.0,0.0,0.0,0.0,0.0,0.0,0.0,0.0,0.0,0.0,0.0,0.0,0.0,0.0,0.0,0.0,0.0,0.0,0.0,0.0,0.0,0.0,0.0,0.0,0.0,0.0,0.0,0.0,0.0,0.0,0.0,0.0,0.0,0.0,0.0,0.0,0.0,0.0,0.0,0.0,0.0,0.0,0.0,0.0,0.0,0.0,0.0,0.0,0.0,0.0,0.0,0.0,0.0,0.0,0.0,0.0,0.0,0.0,0.0,0.0,0.0,0.0,0.0,0.0,0.0,0.0,0.0,0.0,0.0,0.0,0.0,0.0,0.0,0.0,0.0,0.0,0.0,0.0,0.0,0.0,0.0,0.0,0.0,0.0,0.0,0.0,0.0,0.0,0.0,0.0,0.0,0.0,0.0,0.0,0.0,0.0,0.0,0.0,0.0,0.0,0.0,0.0,0.0,0.0,0.0,0.0,0.0,0.0,0.0,0.0,0.0,0.0,0.0,0.0,0.0,0.0,0.0,0.0,0.0,0.0,0.0,0.0,0.0,0.0,0.0,0.0,0.0,0.0,0.0,0.0,0.0,0.0,0.0,0.0,0.0,0.0,0.0,0.0,0.0,0.0,0.0,0.0,0.0,0.0,0.0,0.0,0.0,0.0,0.0,0.0,0.0,0.0,0.0,0.0,0.0,0.0,0.0,0.0,0.0,0.0,0.0,0.0,0.0,0.0,0.0,0.0,0.0,0.0,0.0,0.0,0.0,0.0,0.0,0.0,0.0,0.0,0.0,0.0,0.0,0.0,0.0,0.0,0.0,0.0,0.0,0.0,0.0,0.0,0.0,0.0,0.0,0.0,0.0,0.0,0.0,0.0,0.0,0.0,0.0,0.0,0.0,0.0,0.0,0.0,0.0,0.0,0.0,0.0,0.0,0.0,0.0,0.0,0.0,0.0,0.0,0.0,0.0,0.0,0.0,0.0,0.0,0.0,0.0,0.0,0.0,0.0,0.0,0.0,0.0,0.0,0.0,0.0,0.0,0.0,0.0,0.0,0.0,0.0,0.0,0.0,0.0,0.0,0.0,0.0,0.0,0.0,0.0,0.0,0.0,0.0,0.0,0.0,0.0,0.0,0.0,0.0,0.0,0.0,0.0,0.0,0.0,0.0,0.0,0.0,0.0,0.0,0.0,0.0,0.0,0.0,0.0,0.0,0.0,0.0,0.0,0.0,0.0,0.0,0.0,0.0,0.0,0.0,0.0,0.0,0.0,0.0,0.0,0.0,0.0,0.0,0.0,0.0,0.0,0.0,0.0,0.0,0.0,0.0,0.0,0.0,0.0,0.0,0.0,0.0,0.0,0.0,0.0,0.0,0.0,0.0,0.0,0.0,0.0,0.0,0.0,0.0,0.0,0.0,0.0,0.0,0.0,0.0,0.0,0.0,0.0,0.0,0.0,0.0,0.0,0.0,0.0,0.0,0.0,0.0,0.0,0.0,0.0,0.0,0.0,0.0,0.0,0.0,0.0,0.0,0.0,0.0,0.0,0.0,0.0,0.0,0.0,0.0,0.0,0.0,0.0,0.0,0.0,0.0,0.0,0.0,0.0,0.0,0.0,0.0,0.0,0.0,0.0,0.0,0.0,0.0,0.0,0.0,0.0,0.0,0.0,0.0,0.0,0.0,0.0,0.0,0.0,0.0,0.0,0.0,0.0,0.0,0.0,0.0,0.0,0.0,0.0,0.0,0.0,0.0,0.0,0.0,0.0,0.0,0.0,0.0,0.0,0.0,0.0,0.0,0.0,0.0,0.0,0.0,0.0,0.0,0.0,0.0,0.0,0.0,0.0,0.0,0.0,0.0,0.0,0.0,0.0,0.0,0.0,0.0,0.0,0.0,0.0,0.0,0.0,0.0,0.0,0.0,0.0,0.0,0.0,0.0,0.0,0.0,0.0,0.0,0.0,0.0,0.0,0.0,0.0,0.0,0.0,0.0,0.0,0.0,0.0,0.0,0.0,0.0,0.0,0.0,0.0,0.0,0.0,0.0,0.0,0.0,0.0,0.0,0.0,0.0,0.0,0.0,0.0,0.0,0.0,0.0,0.0,0.0,0.0,0.0,0.0,0.0,0.0,0.0,0.0,0.0,0.0,0.0,0.0,0.0,0.0,0.0,0.0,0.0,0.0,0.0,0.0,0.0,0.0,0.0,0.0,0.0,0.0,0.0,0.0,0.0,0.0,0.0,0.0,0.0,0.0,0.0,0.0,0.0,0.0,0.0,0.0,0.0,0.0,0.0,0.0,0.0,0.0,0.0,0.0,0.0,0.0,0.0,0.0,0.0,0.0,0.0,0.0,0.0,0.0,0.0,0.0,0.0,0.0,0.0,0.0,0.0,0.0,0.0,0.0,0.0,0.0,0.0,0.0,0.0,0.0,0.0,0.0,0.0,0.0,0.0,0.0,0.0,0.0,0.0,0.0,0.0,0.0,0.0,0.0,0.0,0.0,0.0,0.0,0.0,0.0,0.0,0.0,0.0,0.0,0.0,0.0,0.0,0.0,0.0,0.0,0.0,0.0,0.0,0.0,0.0,0.0,0.0,0.0,0.0,0.0,0.0,0.0,0.0,0.0,0.0,0.0,0.0,0.0,0.0,0.0,0.0,0.0,0.0,0.0,0.0,0.0,0.0,0.0,0.0,0.0,0.0,0.0,0.0,0.0,0.0,0.0,0.0,0.0,0.0,0.0,0.0,0.0,0.0,0.0,0.0,0.0,0.0,0.0,0.0,0.0,0.0,0.0,0.0,0.0,0.0,0.0,0.0,0.0,0.0,0.0,0.0,0.0,0.0,0.0,0.0,0.0,0.0,0.0,0.0,0.0,0.0,0.0,0.0,0.0,0.0,0.0,0.0,0.0,0.0,0.0,0.0,0.0,0.0,0.0,0.0,0.0,0.0,0.0,0.0,0.0,0.0,0.0,0.0,0.0,0.0,0.0,0.0,0.0,0.0,0.0,0.0,0.0,0.0,0.0,0.0,0.0,0.0,0.0,0.0,0.0,0.0,0.0,0.0,0.0,0.0,0.0,0.0,0.0,0.0,0.0,0.0,0.0,0.0,0.0,0.0,0.0,0.0,0.0,0.0,0.0,0.0,0.0,0.0,0.0,0.0,0.0,0.0,0.0,0.0,0.0,0.0,0.0,0.0,0.0,0.0,0.0,0.0,0.0,0.0,0.0,0.0,0.0,0.0,0.0,0.0,0.0,0.0,0.0,0.0,0.0,0.0,0.0,0.0,0.0,0.0,0.0,0.0,0.0,0.0,0.0,0.0,0.0,0.0,0.0,0.0,0.0,0.0,0.0,0.0,0.0,0.0,0.0,0.0,0.0,0.0,0.0,0.0,0.0,0.0,0.0,0.0,0.0,0.0,0.0,0.0,0.0,0.0,0.0,0.0,0.0,0.0,0.0,0.0,0.0,0.0,0.0,0.0,0.0,0.0,0.0,0.0,0.0,0.0,0.0,0.0,0.0,0.0,0.0,0.0,0.0,0.0,0.0,0.0,0.0,0.0,0.0,0.0,0.0,0.0,0.0,0.0,0.0,0.0,0.0,0.0,0.0,0.0,0.0,0.0,0.0,0.0,0.0,0.0,0.0,0.0,0.0,0.0,0.0,0.0,0.0,0.0,0.0,0.0,0.0,0.0,0.0,0.0,0.0,0.0,0.0,0.0,0.0,0.0,0.0,0.0,0.0,0.0,0.0,0.0,0.0,0.0,0.0,0.0,0.0,0.0,0.0,0.0,0.0,0.0,0.0,0.0,0.0,0.0,0.0,0.0,0.0,0.0,0.0,0.0,0.0,0.0,0.0,0.0,0.0,0.0,0.0,0.0,0.0,0.0,0.0,0.0,0.0,0.0,0.0,0.0,0.0,0.0,0.0,0.0,0.0,0.0,0.0,0.0,0.0,0.0,0.0,0.0,0.0,0.0,0.0,0.0,0.0,0.0,0.0,0.0,0.0,0.0,0.0,0.0,0.0,0.0,0.0,0.0,0.0,0.0,0.0,0.0,0.0,0.0,0.0,0.0,0.0,0.0,0.0,0.0,0.0,0.0,0.0,0.0,0.0,0.0,0.0,0.0,0.0,0.0,0.0,0.0,0.0,0.0,0.0,0.0,0.0,0.0,0.0,0.0,0.0,0.0,0.0,0.0,0.0,0.0,0.0,0.0,0.0,0.0,0.0,0.0,0.0,0.0,0.0,0.0,0.0,0.0,0.0,0.0,0.0,0.0,0.0,0.0,0.0,0.0,0.0,0.0,0.0,0.0,0.0,0.0,0.0,0.0,0.0,0.0,-2.8651,-2.7726,0.0,0.0,0.0,0.0,0.0,0.0,0.0,0.0,0.0,0.0,0.0,0.0,0.0,0.0,0.0,0.0,0.0,0.0,0.0,0.0,0.0,0.0,0.0,0.0,0.0,0.0,0.0,0.0,0.0,0.0,0.0,0.0,0.0,0.0,0.0,0.0,0.0,-1.5084,-1.5598,-1.6309,-1.7204,-1.6418,-1.5194,-1.3616,0.0,0.0,0.0,0.0,0.0,0.0,0.0,0.0,0.0,0.0,0.0,0.0,0.0,0.0,0.0,0.0,0.0,0.0,0.0,0.0,0.0,0.0,0.0,0.0,0.0,0.0,0.0,0.0,0.0,0.0,0.0,0.0,0.0,0.0,0.0,0.0,0.0,0.0,0.0,0.0,0.0,0.0,0.0,0.0,0.0,0.0,0.0,0.0,0.0,0.0,0.0,0.0,0.0,0.0,0.0,0.0,0.0,0.0,0.0,0.0,0.0,0.0,0.0,0.0,0.0,0.0,0.0,0.0,0.0,0.0,-2.9152,-2.8541,0.0,0.0,0.0,0.0,0.0,0.0,0.0,0.0,0.0,0.0,0.0,0.0,0.0,0.0,0.0,0.0,0.0,0.0,0.0,0.0,0.0,0.0,0.0,-0.6637,-0.7638,-0.8623,-0.8851,-0.9226,0.0,0.0,0.0,0.0,0.0,0.0,-1.5675,-1.5816,-1.6123,-1.6544,-1.7387,-1.8154,-1.8998,-1.9136,-1.8018,-1.5963,-1.5829,0.0,0.0,0.0,0.0,0.0,0.0,0.0,0.0,0.0,0.0,0.0,0.0,0.0,0.0,0.0,0.0,0.0,0.0,0.0,0.0,0.0,0.0,0.0,0.0,0.0,0.0,0.0,0.0,0.0,0.0,0.0,0.0,0.0,0.0,0.0,0.0,0.0,0.0,0.0,0.0,0.0,0.0,0.0,0.0,0.0,0.0,0.0,0.0,0.0,0.0,0.0,0.0,0.0,0.0,0.0,0.0,0.0,0.0,0.0,0.0,0.0,0.0,0.0,-2.9851,-2.9913,-2.9988,-2.9988,-2.9913,-2.9732,-2.9345,-2.9075,-2.8944,-2.9328,0.0,0.0,0.0,0.0,0.0,0.0,0.0,0.0,0.0,0.0,0.0,0.0,0.0,0.0,0.0,0.0,0.0,0.0,0.0,0.0,0.0,-0.7103,-0.7638,-0.8623,-0.9372,-1.0045,-1.0881,0.0,0.0,0.0,0.0,0.0,-1.5534,-1.6306,-1.7037,-1.7608,-1.8905,-1.9626,-1.9749,-2.0602,-2.0761,-2.0376,-1.9112,-1.8648,-1.8836,0.0,0.0,0.0,0.0,0.0,0.0,0.0,0.0,0.0,0.0,0.0,0.0,0.0,0.0,0.0,0.0,0.0,0.0,0.0,0.0,0.0,0.0,0.0,0.0,0.0,0.0,0.0,0.0,0.0,0.0,0.0,0.0,0.0,0.0,0.0,0.0,0.0,0.0,0.0,0.0,0.0,-2.2872,-2.4743,0.0,0.0,0.0,0.0,0.0,0.0,0.0,0.0,0.0,0.0,0.0,0.0,0.0,-2.8139,-2.7996,-2.7918,-2.8217,-2.8994,-2.8776,-2.9044,-2.9665,-2.9665,-2.9665,-2.9602,-2.958,0.0,-2.8912,-2.9482,0.0,0.0,0.0,0.0,0.0,0.0,0.0,0.0,0.0,0.0,0.0,0.0,0.0,0.0,0.0,0.0,0.0,0.0,0.0,0.0,0.0,-0.7262,-0.7708,-0.8791,-0.9287,-1.0006,-1.1182,-1.1702,0.0,0.0,0.0,-1.5242,-1.6079,-1.6801,-1.7594,-1.8462,-1.9568,-2.0341,-2.0817,-2.168,-2.2115,-2.2273,-2.2037,-2.1722,-2.1285,-2.0813,0.0,0.0,0.0,0.0,0.0,0.0,0.0,0.0,0.0,0.0,0.0,0.0,0.0,0.0,0.0,0.0,0.0,0.0,0.0,0.0,0.0,0.0,0.0,0.0,0.0,0.0,0.0,0.0,0.0,0.0,0.0,0.0,0.0,0.0,0.0,0.0,0.0,0.0,0.0,-2.2776,-2.4348,-2.5099,-2.5182,-2.5241,0.0,0.0,0.0,0.0,0.0,0.0,0.0,0.0,0.0,-2.7232,-2.7644,-2.7577,-2.7136,-2.7391,-2.7723,-2.8065,-2.8376,-2.8441,-2.8481,-2.9212,-2.9401,-2.898,-2.898,-2.8892,-2.8671,-2.9073,-2.8775,-2.8071,0.0,0.0,0.0,0.0,-2.624,-2.5517,0.0,0.0,0.0,0.0,0.0,0.0,0.0,0.0,0.0,0.0,0.0,0.0,-0.7247,-0.7395,-0.7889,-0.8922,-0.9147,-0.9867,-1.1278,-1.1569,-1.2207,-1.3615,-1.4744,-1.5737,-1.6498,-1.7429,-1.8202,-1.8926,-1.9868,-2.0711,-2.1359,-2.2295,-2.2894,-2.3276,-2.4059,-2.392,-2.3133,-2.2651,-2.2252,-2.1891,0.0,0.0,0.0,0.0,0.0,0.0,0.0,0.0,0.0,0.0,0.0,0.0,0.0,0.0,0.0,0.0,0.0,0.0,0.0,0.0,0.0,0.0,0.0,0.0,0.0,0.0,0.0,0.0,0.0,0.0,0.0,0.0,0.0,0.0,0.0,0.0,0.0,-2.3829,-2.4874,-2.5241,-2.5241,-2.5241,0.0,0.0,0.0,0.0,0.0,0.0,-2.6296,-2.6976,-2.7031,-2.6296,-2.6828,-2.6773,-2.6139,-2.6879,-2.7217,-2.7217,-2.792,-2.7986,-2.755,-2.861,-2.8789,-2.8247,-2.8247,-2.8103,-2.7973,-2.8325,-2.8182,-2.7683,-2.7683,-2.7352,-2.6828,-2.6595,-2.6057,-2.5581,0.0,0.0,0.0,0.0,0.0,0.0,0.0,0.0,0.0,0.0,0.0,-0.6951,-0.735,-0.7578,-0.8004,-0.8819,-0.9068,-0.9867,-1.1278,-1.1414,-1.2056,-1.3477,-1.4394,-1.5392,-1.6298,-1.8228,-1.902,-1.861,-2.0111,-2.0886,-2.0984,-2.2145,-2.3095,-2.3818,-2.4791,-2.4755,-2.4005,-2.3523,-2.3386,-2.3364,-2.2683,0.0,0.0,0.0,0.0,0.0,0.0,0.0,0.0,0.0,0.0,0.0,0.0,0.0,0.0,0.0,0.0,0.0,0.0,0.0,0.0,0.0,0.0,0.0,0.0,0.0,0.0,0.0,0.0,0.0,0.0,0.0,0.0,0.0,0.0,0.0,0.0,0.0,0.0,-2.4969,-2.5111,0.0,0.0,0.0,0.0,-2.5312,-2.6,-2.607,-2.537,-2.6057,-2.6139,-2.537,-2.537,-2.537,-2.5382,-2.607,-2.6483,-2.6483,-2.7217,-2.755,-2.7484,-2.7537,-2.7617,-2.7537,-2.7537,-2.7149,-2.6552,-2.7284,-2.7657,-2.7683,-2.7683,-2.7683,-2.7551,-2.6828,-2.6526,-2.6208,0.0,0.0,0.0,0.0,0.0,0.0,0.0,0.0,-0.4419,-0.4561,-0.6084,-0.7278,-0.7605,-0.7507,-0.7685,-0.8195,-0.8462,-0.9292,-1.0974,-1.0884,-1.1462,-1.2969,-1.3711,-1.4598,-1.5634,-1.7641,-1.8506,-1.8197,-1.9856,-2.0741,-2.0906,-2.1832,-2.2489,-2.2936,-2.3902,-2.4192,-2.3952,-2.4436,-2.4737,-2.4798,-2.4097,-2.3412,0.0,0.0,0.0,0.0,0.0,0.0,0.0,0.0,0.0,0.0,0.0,0.0,0.0,0.0,0.0,0.0,0.0,0.0,0.0,0.0,0.0,0.0,0.0,0.0,0.0,0.0,0.0,0.0,0.0,0.0,0.0,0.0,0.0,0.0,0.0,0.0,0.0,-2.4348,-2.4432,0.0,-2.5241,-2.5312,-2.5312,-2.5312,-2.5511,-2.5581,-2.5312,-2.5523,-2.5581,-2.5312,-2.5312,-2.5312,-2.5312,-2.5594,-2.5721,-2.5721,-2.6471,-2.6539,-2.6126,-2.7069,-2.7217,-2.6812,-2.6812,-2.662,-2.6346,-2.6195,-2.6114,-2.6171,-2.6171,-2.6171,-2.6102,-2.5836,-2.5709,-2.5652,0.0,0.0,0.0,0.0,0.0,0.0,0.0,0.0,-0.4201,-0.434,-0.5895,-0.7028,-0.7021,-0.7336,-0.7606,-0.7865,-0.8142,-0.8879,-1.0211,-1.0366,-1.0931,-1.2157,-1.3305,-1.4298,-1.5187,-1.6899,-1.7682,-1.744,-1.9204,-2.0167,-2.0342,-2.1242,-2.1832,-2.2274,-2.301,-2.3526,-2.3818,-2.4492,-2.5083,-2.5456,-2.4796,-2.4097,-2.3448,0.0,0.0,0.0,0.0,0.0,0.0,0.0,0.0,0.0,0.0,0.0,0.0,0.0,0.0,0.0,0.0,0.0,0.0,0.0,0.0,0.0,0.0,0.0,0.0,0.0,0.0,0.0,0.0,0.0,0.0,0.0,0.0,0.0,0.0,-2.1886,-2.2787,-2.3526,-2.3891,-2.4337,-2.4862,-2.5158,-2.5312,-2.5312,-2.5312,-2.5312,-2.5312,-2.5312,-2.5312,-2.5312,-2.5312,-2.5312,-2.5312,-2.5312,-2.5312,-2.5312,-2.5791,-2.5791,-2.53,-2.6333,-2.6471,-2.6,-2.6,-2.6,-2.6,-2.5523,-2.5312,-2.5312,-2.5312,-2.5312,-2.5312,-2.5312,-2.5312,-2.5312,0.0,0.0,0.0,0.0,0.0,0.0,0.0,-0.2773,-0.3362,-0.3612,-0.5134,-0.607,-0.5806,-0.6967,-0.7856,-0.7856,-0.83,-0.8755,-0.9201,-0.9963,-1.0548,-1.1073,-1.3037,-1.4337,-1.4969,-1.6079,-1.6501,-1.6312,-1.8078,-1.9045,-1.9301,-2.0342,-2.1175,-2.1876,-2.2113,-2.2787,-2.3661,-2.3661,-2.4253,-2.511,-2.4677,-2.4462,-2.4253,0.0,0.0,0.0,0.0,0.0,0.0,0.0,0.0,0.0,0.0,0.0,0.0,0.0,0.0,0.0,0.0,0.0,0.0,0.0,0.0,0.0,0.0,0.0,0.0,0.0,0.0,0.0,0.0,0.0,0.0,0.0,0.0,0.0,-2.0605,-2.1669,-2.2349,-2.2553,-2.3441,-2.4036,-2.4047,-2.4791,-2.5229,-2.5229,-2.5312,-2.5312,-2.5312,-2.5312,-2.5312,-2.5312,-2.5312,-2.5312,-2.5312,-2.5312,-2.5312,-2.5312,-2.5312,-2.5312,-2.5312,-2.5312,-2.5312,-2.5312,-2.5312,-2.5312,-2.5312,-2.5312,-2.5312,-2.5312,-2.5312,-2.5312,-2.5312,-2.5312,-2.5312,-2.5312,0.0,0.0,0.0,0.0,0.0,0.0,-0.1677,-0.2892,-0.3716,-0.3773,-0.4856,-0.5403,-0.4963,-0.5786,-0.634,-0.6602,-0.7319,-0.8249,-0.9429,-0.9395,-0.9677,-1.0407,-1.1352,-1.1968,-1.2264,-1.4001,-1.4993,-1.5184,-1.6919,-1.7908,-1.8149,-1.847,-1.878,-1.9088,-1.9316,-1.9543,-1.9828,-2.0574,-2.1425,-2.236,-2.3659,-2.3979,-2.356,0.0,0.0,0.0,0.0,0.0,0.0,0.0,0.0,0.0,0.0,0.0,0.0,0.0,0.0,0.0,0.0,0.0,0.0,0.0,0.0,0.0,0.0,0.0,0.0,0.0,0.0,0.0,0.0,0.0,0.0,0.0,-1.9301,-1.946,-1.9863,-2.0323,-2.0924,-2.168,-2.2199,-2.2649,-2.3243,-2.3975,-2.4409,-2.4409,-2.4933,-2.5312,-2.5312,-2.5312,-2.5312,-2.5312,-2.5312,-2.5312,-2.5312,-2.5312,-2.5312,-2.5312,-2.5312,-2.5312,-2.5312,-2.5312,-2.5312,-2.5312,-2.5312,-2.5312,-2.5312,-2.5312,-2.5312,-2.5312,-2.5312,-2.5312,-2.5312,-2.5312,-2.5312,-2.5312,0.0,0.0,0.0,0.0,0.0,0.0,-0.1018,-0.1805,-0.2358,-0.241,-0.3486,-0.4018,-0.3487,-0.4469,-0.5272,-0.5447,-0.6517,-0.7548,-0.8249,-0.8748,-0.9466,-1.0482,-1.0744,-1.1015,-1.127,-1.2409,-1.3159,-1.3412,-1.4816,-1.5554,-1.589,-1.6464,-1.6798,-1.6887,-1.722,-1.7543,-1.7963,-1.8479,-1.927,-2.0149,-2.1359,-2.2126,-2.2582,-2.206,-2.1229,-2.0276,-2.0498,-1.9925,-1.9317,-2.0134,0.0,0.0,0.0,0.0,0.0,0.0,0.0,0.0,0.0,0.0,0.0,0.0,0.0,0.0,0.0,0.0,0.0,0.0,0.0,0.0,0.0,0.0,0.0,0.0,-1.9301,-1.9301,-1.9478,-1.9636,-2.002,-2.0624,-2.1308,-2.1832,-2.236,-2.3169,-2.361,-2.361,-2.4059,-2.4492,-2.4791,-2.4791,-2.4791,-2.4791,-2.4791,-2.4791,-2.4791,-2.4791,-2.4933,-2.5312,-2.5312,-2.5312,-2.5312,-2.5312,-2.5312,-2.5312,-2.5312,-2.5312,-2.5312,-2.5312,-2.5312,-2.5312,0.0,0.0,0.0,0.0,-2.5087,-2.4862,0.0,0.0,0.0,0.0,0.0,0.0,-0.0171,-0.0173,-0.0174,-0.0356,-0.1427,-0.2051,-0.161,-0.3129,-0.4198,-0.4198,-0.5518,-0.634,-0.6285,-0.7784,-0.9202,-1.0198,-1.0228,-1.0424,-1.0794,-1.0885,-1.1139,-1.1477,-1.2292,-1.2868,-1.3128,-1.4372,-1.4954,-1.4946,-1.5381,-1.6055,-1.6806,-1.6814,-1.7382,-1.8186,-1.8106,-1.9367,-2.1268,-2.0197,-1.9825,-1.9747,-1.9747,-1.9747,-1.9747,-2.0119,0.0,0.0,0.0,0.0,0.0,0.0,0.0,0.0,0.0,0.0,0.0,0.0,0.0,0.0,0.0,0.0,0.0,0.0,0.0,0.0,0.0,0.0,0.0,0.0,-1.9301,-1.9301,-1.9301,-1.9469,-1.9557,-1.9566,-2.0624,-2.1385,-2.1385,-2.2285,-2.2883,-2.2883,-2.2957,-2.3316,-2.3975,-2.3975,0.0,0.0,0.0,-2.3975,-2.3975,-2.3975,-2.4337,-2.5016,-2.5016,-2.5016,-2.5016,-2.5016,-2.5016,-2.5016,-2.5016,-2.5016,-2.5016,-2.5016,-2.5087,-2.5158,-2.5229,-2.5229,-2.5158,-2.5158,-2.4636,-2.4047,0.0,0.0,0.0,0.0,0.0,0.0,0.0577,0.0167,-0.017,-0.0174,-0.0437,-0.0352,0.0179,-0.0805,-0.1427,-0.1427,-0.2983,-0.4132,-0.472,-0.5368,-0.586,-0.586,-0.6046,-0.6646,-0.7654,-0.8428,-0.9305,-1.0284,-1.1139,-1.1729,-1.206,-1.231,-1.248,-1.2644,-1.3165,-1.3419,-1.3587,-1.3951,-1.4692,-1.5403,-1.5018,-1.6643,-1.9228,-1.9335,-1.9107,-1.8647,-1.9063,-1.8834,-1.8345,-1.8425,-1.8345,-1.8273,-1.8345,-1.7772,0.0,0.0,0.0,0.0,0.0,0.0,0.0,0.0,0.0,0.0,0.0,0.0,0.0,0.0,0.0,0.0,0.0,0.0,0.0,-1.9301,-1.9301,-1.9301,-1.9301,-1.9301,-1.939,-1.9566,-2.0177,-2.0489,-2.0489,-2.1461,-2.2059,-2.2059,-2.2649,-2.3021,-2.3169,-2.3169,-2.3169,-2.3169,-2.3169,-2.3169,-2.3169,-2.3169,-2.3316,-2.3463,-2.3463,0.0,-2.3463,-2.3463,-2.3463,-2.3463,-2.3463,-2.3463,-2.3463,-2.3463,-2.3829,-2.4409,-2.5087,-2.4933,-2.4337,-2.4337,-2.3829,-2.3243,0.0,0.0,0.0,0.0,0.0,0.0,0.2028,0.1883,0.1663,0.1192,0.0854,0.0858,0.1128,0.0434,-0.0087,-0.0088,-0.1318,-0.2534,-0.3454,-0.3785,-0.3811,-0.3771,-0.3807,-0.4364,-0.5346,-0.5778,-0.6662,-0.7822,-0.8253,-0.869,-0.9039,-0.93,-0.947,-0.9552,-1.0072,-1.0677,-1.1375,-1.1821,-1.2668,-1.3678,-1.3704,-1.4615,-1.6085,-1.674,-1.683,-1.669,-1.6935,-1.687,-1.6714,-1.6714,-1.6714,-1.6714,-1.6714,-1.6386,-1.6124,0.0,0.0,0.0,0.0,0.0,0.0,0.0,0.0,0.0,0.0,0.0,0.0,0.0,0.0,-1.7997,-1.7997,0.0,-1.7997,-1.7997,-1.8318,-1.8647,-1.8647,-1.9054,-1.9301,-1.9469,-1.9715,-1.9951,-1.9951,-2.0644,-2.1011,-2.1011,-2.1538,-2.1983,-2.236,-2.2435,-2.2435,-2.2435,-2.2435,-2.2435,-2.2435,-2.2435,-2.2585,-2.3032,-2.3032,-2.3032,-2.3032,-2.3032,-2.3032,-2.3032,-2.3032,-2.3032,-2.3032,-2.3032,-2.3243,-2.361,-2.3986,-2.412,-2.4047,-2.3683,-2.3095,-2.2435,0.0,0.0,0.0,0.0,0.0,0.0,0.0,0.3782,0.3734,0.2913,0.2337,0.2006,0.2015,0.1343,0.0929,0.0856,0.0,-0.0974,-0.2024,-0.2127,-0.2137,-0.2137,-0.2137,-0.2493,-0.3296,-0.3385,-0.392,-0.5166,-0.5166,-0.5349,-0.58,-0.6145,-0.6407,-0.6407,-0.7109,-0.7979,-0.9109,-0.9817,-1.0773,-1.1901,-1.2431,-1.2613,-1.2522,-1.3613,-1.4371,-1.4789,-1.4873,-1.5047,-1.5304,-1.5304,-1.5304,-1.5311,-1.5394,-1.5304,-1.5137,-1.5311,-1.5311,0.0,0.0,0.0,0.0,0.0,0.0,0.0,0.0,-1.6108,-1.6355,-1.6609,-1.6609,-1.6617,-1.6698,-1.6698,-1.6698,-1.6698,-1.7269,-1.7755,-1.7755,-1.8327,-1.8807,-1.8807,-1.9231,-1.9566,-1.9566,-2.0029,-2.0264,-2.0264,-2.0498,-2.0867,-2.1538,-2.1538,-2.1538,-2.1538,-2.1538,-2.1538,-2.1538,-2.1538,-2.1907,-2.251,-2.251,-2.251,-2.251,-2.251,-2.251,-2.251,-2.2424,-2.2424,-2.2424,-2.2424,-2.2499,-2.2649,-2.2424,-2.2861,-2.3441,-2.2947,-2.2285,-2.169,0.0,0.0,0.0,0.0,0.0,0.0,0.0,0.0,0.4828,0.4784,0.4065,0.3607,0.3599,0.294,0.2255,0.1639,0.1446,0.1123,0.0339,0.0351,0.0269,0.0269,0.0269,-0.0268,-0.1427,-0.1427,-0.196,-0.3112,-0.3112,-0.3291,-0.3559,-0.3648,-0.3737,-0.4005,-0.5336,-0.6045,-0.6219,-0.7544,-0.8345,-0.8786,-0.9662,-0.9671,-0.9235,-1.0987,-1.2699,-1.421,-1.4622,-1.4782,-1.4789,-1.4956,-1.5039,-1.513,-1.5304,-1.4803,-1.43,-1.5144,-1.4803,-1.4126,-1.4126,-1.3626,-1.3039,-1.3039,-1.362,-1.4287,0.0,-1.5199,-1.5861,-1.6355,-1.6437,-1.6527,-1.6698,-1.6698,-1.6698,-1.6698,-1.678,-1.6862,-1.6862,-1.6935,-1.7025,-1.7025,-1.8576,-1.9566,-1.9566,-2.0029,-2.0264,-2.0264,-2.0498,-2.0644,-2.0712,-2.0712,-2.0712,-2.0712,-2.0712,-2.0712,-2.0712,-2.0712,-2.0789,-2.0867,-2.0867,-2.0867,-2.0867,-2.0867,-2.0789,-2.0566,-2.0323,-2.0245,-2.0245,-2.0245,-2.0692,-2.1211,-2.0547,-2.0769,-2.1507,-2.1832,-2.1461,-2.0712,0.0,0.0,0.0,0.0,0.0,0.0,0.0,0.0,0.0,0.5072,0.4762,0.454,0.4506,0.4243,0.4016,0.3732,0.38,0.3709,0.3416,0.3515,0.3576,0.3576,0.3576,0.3213,0.2226,0.2226,0.1335,-0.0356,-0.0356,-0.0801,-0.1784,-0.1874,-0.2052,-0.2142,-0.2854,-0.3477,-0.392,-0.48,-0.5775,-0.6845,-0.745,-0.7986,-0.8448,-0.9235,-1.0014,-1.095,-1.2431,-1.3039,0.0,-1.3209,-1.3372,-1.3542,-1.3626,-1.3457,-1.3288,-1.3711,-1.3542,-1.3203,-1.3203,-1.2954,-1.2705,-1.2705,-1.2954,-1.3294,-1.3542,-1.3964,-1.43,-1.4629,-1.472,-1.4887,-1.497,-1.5061,-1.5151,-1.5151,-1.5636,-1.5966,-1.5966,-1.637,-1.6698,-1.6698,-1.7432,-1.7925,-1.7925,-1.8638,-1.8957,-1.839,-1.952,-2.001,-1.9441,-1.9932,-2.0177,-2.0177,-2.0177,-2.0177,-2.0177,-2.0177,-2.0177,-2.0177,-2.0177,-2.0177,-2.0177,-2.0177,-2.0177,-2.002,-1.9942,-1.9863,-1.9863,-1.9863,-2.0089,-2.0391,-2.001,-2.0089,-2.0469,-2.0624,-2.0479,-2.0177,0.0,0.0,0.0,0.0,0.0,0.0,0.0,0.0,0.0,0.0,0.5622,0.5234,0.5004,0.508,0.5055,0.5055,0.5237,0.5365,0.5398,0.5513,0.5684,0.5719,0.5719,0.5447,0.4907,0.4907,0.4101,0.2583,0.2583,0.205,0.0982,0.0803,0.0625,0.0447,0.0089,-0.0625,-0.1428,-0.2049,-0.3204,-0.4718,-0.5596,-0.6395,-0.7115,-0.8002,-0.8185,-0.8368,-1.0467,-1.1257,-1.1429,-1.178,-1.2037,-1.2198,-1.2283,-1.2369,-1.254,-1.2619,-1.2619,-1.2705,-1.2705,-1.2705,-1.2705,-1.2705,-1.2705,-1.279,-1.2966,-1.2966,-1.3052,-1.3307,-1.3398,-1.3561,-1.3652,-1.3828,-1.3997,-1.4088,-1.4664,-1.5068,-1.5068,-1.5553,-1.5997,-1.6088,-1.6095,-1.6133,-1.6232,-1.7286,-1.7649,-1.7082,-1.839,-1.8886,-1.8318,-1.8807,-1.9204,-1.9204,-1.9204,-1.9204,-1.9204,-1.9204,-1.9204,-1.9204,-1.9204,-1.9204,-1.9204,-1.9125,-1.9125,-1.9125,-1.9045,-1.9045,-1.9045,-1.9045,-1.9045,-1.9045,-1.9045,-1.9045,-1.9045,-1.9045,-1.9371,-1.9863,0.0,0.0,0.0,0.0,0.0,0.0,0.0,0.0,0.0,0.0,0.0,0.0,0.0,0.5007,0.501,0.501,0.5044,0.5162,0.5355,0.5389,0.5507,0.5714,0.5719,0.5719,0.563,0.563,0.563,0.5539,0.5539,0.545,0.5179,0.5179,0.4912,0.4378,0.3474,0.2405,0.125,0.0268,-0.0804,-0.2057,-0.4188,-0.4634,-0.4372,-0.7386,-0.7929,-0.7404,-0.9244,-0.9946,-1.012,-1.1348,-1.1699,-1.1785,-1.1957,-1.2043,-1.2037,-1.2369,-1.2534,-1.2705,-1.2705,-1.2705,-1.2705,-1.2705,-1.2705,-1.2705,-1.2705,-1.2705,-1.279,-1.3052,-1.3143,-1.3222,-1.3652,-1.3737,-1.3828,-1.4088,-1.4088,-1.4173,-1.4173,-1.4166,-1.4273,-1.4556,-1.4589,-1.4704,-1.4999,-1.6246,-1.7001,-1.7001,-1.7253,-1.7342,-1.7334,-1.7334,-1.7415,-1.7415,-1.7415,-1.7415,-1.7415,-1.7415,-1.7415,-1.7415,-1.7415,-1.7415,-1.7342,-1.7163,-1.7082,-1.7082,-1.6854,-1.678,-1.678,-1.678,-1.678,-1.678,-1.678,-1.678,-1.678,-1.678,-1.8078,-1.9863,0.0,0.0,0.0,0.0,0.0,0.0,0.0,0.0,0.0,0.0,0.0,0.0,0.0,0.0,0.0,0.0,0.8777,0.8927,0.8997,0.9316,0.9447,0.9351,0.957,0.9561,0.9396,0.9396,0.9131,0.8511,0.8511,0.8154,0.7446,0.6662,0.6133,0.5778,0.4634,0.3838,0.3304,0.2324,0.1341,0.0179,-0.1161,-0.2055,-0.2861,-0.4641,-0.527,-0.5453,0.0,-0.8456,-0.9069,-0.9419,-0.968,-0.9854,-0.9941,-1.0014,-1.0183,-1.0448,-1.0707,-1.0875,-1.0875,-1.1316,-1.1757,-1.1757,-1.2272,-1.2705,-1.2705,-1.2705,-1.2705,-1.279,-1.2966,-1.3193,-1.3547,-1.3604,-1.3861,-1.4333,-1.4409,-1.4442,-1.4643,-1.4669,-1.4703,-1.4803,-1.4816,-1.4856,-1.495,-1.5893,-1.6275,-1.5684,-1.6791,-1.7219,-1.6705,-1.7219,-1.7467,-1.7467,-1.7467,-1.7355,-1.7199,-1.7199,-1.7087,-1.6935,-1.6935,-1.6935,-1.6935,-1.6854,-1.6772,-1.6772,-1.669,-1.6698,-1.6698,-1.6698,-1.6698,-1.6698,-1.6698,-1.6698,-1.6698,-1.6698,-1.7188,-1.7755,0.0,0.0,0.0,0.0,0.0,0.0,0.0,0.0,0.0,0.0,0.0,0.0,0.0,0.0,0.0,0.0,0.0,1.0699,1.0795,1.109,1.1224,1.1144,1.13,1.1388,1.1226,1.1147,1.08,1.0189,1.0188,0.9966,0.9352,0.864,0.8229,0.7964,0.6753,0.5968,0.5346,0.4378,0.3307,0.2321,0.0984,-0.0179,-0.1162,-0.2592,-0.3398,0.0,-0.5539,-0.6514,-0.7129,-0.8189,-0.8627,-0.8719,-0.8719,-0.8882,-0.9135,-0.9405,-0.9579,-0.9836,-0.9923,-1.0361,-1.0799,-1.0799,-1.123,-1.166,-1.166,-1.166,-1.1746,-1.21,-1.2433,-1.2811,-1.3423,-1.366,-1.3905,-1.436,-1.4448,-1.4477,-1.484,-1.4874,-1.4907,-1.5104,-1.5117,-1.5157,-1.5264,-1.5805,-1.5805,-1.5066,-1.6006,-1.6441,-1.5835,-1.6352,-1.6698,-1.6698,-1.6698,-1.66,-1.6384,-1.6384,-1.6212,-1.589,-1.589,-1.5831,-1.5801,-1.5801,-1.5801,-1.5801,-1.5801,-1.5801,-1.5801,-1.5801,-1.5801,-1.5801,-1.5801,-1.5801,-1.5801,-1.5801,-1.5801,-1.5884,0.0,0.0,0.0,0.0,0.0,0.0,0.0,0.0,0.0,0.0,0.0,0.0,0.0,0.0,0.0,0.0,0.0,0.0,1.0916,1.095,1.0975,1.1124,1.1141,1.1152,1.1152,1.0992,1.0831,1.0831,1.1002,1.1039,1.1044,1.1267,1.1193,1.0924,0.9808,0.8586,0.7442,0.6231,0.5176,0.4198,0.2053,0.116,0.0893,-0.1518,-0.2412,-0.2592,-0.376,-0.421,-0.4654,-0.7394,-0.8368,-0.8368,-0.8368,-0.854,-0.8803,-0.8973,-0.9231,-0.9492,-0.9662,-0.9749,-0.9836,-0.9836,-0.9836,-0.9923,-0.9923,-0.9923,-1.0188,-1.1058,-1.1422,-1.1943,-1.3115,-1.3607,-1.3894,-1.4107,-1.4185,-1.4359,-1.463,-1.4637,-1.4832,-1.5384,-1.5418,-1.5524,-1.5805,-1.5832,-1.5605,-1.505,-1.501,-1.501,-1.501,-1.501,-1.501,-1.501,-1.501,-1.4997,-1.4983,-1.497,-1.4823,-1.4543,-1.4543,-1.4389,-1.4108,-1.4108,-1.4102,-1.4088,-1.4088,-1.4088,-1.4088,-1.4088,-1.4088,-1.4088,-1.4088,-1.4088,-1.4088,-1.4088,-1.4088,-1.4334,0.0,0.0,0.0,0.0,0.0,0.0,0.0,0.0,0.0,0.0,0.0,0.0,0.0,0.0,0.0,0.0,0.0,0.0,1.2783,1.3078,1.3078,1.2909,1.3209,1.3245,1.3087,1.3008,1.2929,1.2771,1.2849,1.2734,1.2593,1.2002,1.1449,1.1105,1.0125,0.9047,0.7908,0.6867,0.5976,0.5184,0.322,0.2326,0.1878,-0.0358,-0.1252,-0.1609,-0.2865,-0.3224,-0.3582,-0.5722,-0.6438,-0.6438,-0.6438,-0.6612,-0.6786,-0.6874,-0.7224,-0.7492,-0.758,-0.8189,-0.889,-0.889,-0.9405,-0.9923,-0.9923,-0.9923,-1.0009,-1.0183,-1.0446,-1.0741,-1.1263,-1.208,-1.2894,-1.3265,-1.4204,-1.489,-1.5197,-1.5417,-1.5538,-1.5712,-1.5718,-1.5745,-1.5818,-1.5832,-1.5765,-1.5618,-1.5611,-1.5611,-1.5611,-1.5611,-1.5611,-1.5611,-1.5611,-1.5504,-1.5291,-1.507,-1.493,-1.485,-1.485,-1.4696,-1.4409,-1.4409,-1.4295,-1.4088,-1.4088,-1.4088,-1.4088,-1.4088,-1.4088,-1.4088,-1.4088,-1.4088,-1.4088,-1.4088,-1.4088,-1.4166,0.0,0.0,0.0,0.0,0.0,0.0,0.0,0.0,0.0,0.0,0.0,0.0,0.0,0.0,0.0,0.0,0.0,0.0,0.0,1.3438,1.3465,1.3308,1.3471,1.3722,1.3943,1.3935,1.3784,1.3632,1.3767,1.3529,1.3013,1.258,1.2234,1.1902,1.0847,0.9779,0.8743,0.7724,0.6867,0.0,0.0,0.34,0.3041,0.0895,-0.009,-0.0448,-0.17,-0.2418,-0.3047,-0.4119,-0.5015,-0.5733,-0.5733,-0.5819,-0.5908,-0.6083,-0.626,-0.6529,-0.6707,-0.7231,-0.7757,-0.7841,-0.8273,-0.8707,-0.8707,-0.8707,-0.8794,-0.9231,-0.9549,-0.9962,-1.0532,-1.1263,-1.1952,-1.22,-1.2901,-1.3435,-1.3872,-1.4088,-1.4178,-1.4376,-1.4472,-1.4472,-1.4472,-1.4472,-1.4472,-1.4472,-1.5248,-1.5832,-1.5832,-1.5832,-1.5832,-1.5832,-1.5832,-1.5752,-1.5585,-1.5424,-1.5284,-1.5157,-1.5157,-1.5003,-1.4716,-1.4716,-1.4629,-1.4462,-1.4335,-1.4282,-1.4269,-1.4142,-1.4088,-1.4088,-1.4088,-1.4088,-1.4088,-1.4088,-1.4088,-1.4088,0.0,0.0,0.0,0.0,0.0,0.0,0.0,0.0,0.0,0.0,0.0,0.0,0.0,0.0,0.0,0.0,0.0,0.0,0.0,0.0,1.29,1.29,1.29,1.3258,1.4057,1.3977,1.3833,1.3833,1.3963,1.3579,1.2768,1.2959,1.2929,1.2693,1.1714,1.0599,0.9519,0.8581,0.7754,0.6767,0.5139,0.4378,0.4109,0.0,0.1076,0.0628,-0.0537,-0.17,-0.2688,-0.2688,-0.3941,-0.5552,-0.5552,-0.5644,-0.5733,-0.5997,-0.6083,-0.6171,-0.6615,-0.6707,-0.6792,-0.6966,-0.7051,-0.7051,-0.7051,-0.7054,-0.7316,-0.8105,-0.8651,-0.9266,-1.0093,-1.0605,-1.0974,-1.0974,-1.1175,-1.1468,-1.1858,-1.1955,-1.2145,-1.2635,-1.2635,-1.2727,-1.2727,-1.2727,-1.2727,-1.2727,-1.4376,-1.5439,-1.5635,-1.5445,-1.5343,-1.5343,-1.5343,-1.5343,-1.5343,-1.5343,-1.5315,-1.5073,-1.5073,-1.4923,-1.465,-1.465,-1.463,-1.4578,-1.4242,-1.4132,-1.4112,-1.3913,-1.3796,-1.3789,-1.3756,-1.3743,-1.3743,-1.3743,-1.3743,-1.3743,0.0,0.0,0.0,0.0,0.0,0.0,0.0,0.0,0.0,0.0,1.2305,1.2452,0.0,0.0,0.0,0.0,0.0,0.0,0.0,0.0,0.0,1.29,1.29,1.3258,1.4057,1.3404,1.3331,1.3833,1.3162,1.2674,1.2378,1.2432,1.2234,1.1934,1.1696,1.0665,0.9063,0.895,0.8142,0.6853,0.5846,0.5003,0.4111,0.2774,0.0,0.0,0.0359,-0.0628,-0.1704,-0.1704,-0.2956,-0.4567,-0.4567,-0.5104,-0.5733,-0.5733,-0.5908,-0.6083,-0.6171,-0.6346,-0.652,-0.652,-0.67,-0.6881,-0.6881,-0.6966,-0.7139,-0.7316,-0.7657,-0.7973,-0.8063,-0.9083,-0.9899,-0.9899,-1.0783,-1.156,-1.1663,-1.2047,-1.2242,-1.2339,-1.2533,-1.2727,-1.2727,-1.2727,-1.2727,-1.2727,-1.3017,-1.3607,-1.449,-1.3703,-1.321,-1.321,-1.321,-1.321,-1.321,-1.321,-1.3188,-1.3154,-1.3154,-1.302,-1.2791,-1.2791,-1.2679,-1.2398,-1.2354,-1.2337,-1.2315,-1.2154,-1.2048,-1.2031,-1.183,-1.1757,-1.1757,-1.1757,-1.1757,-1.1757,0.0,0.0,0.0,0.0,0.0,0.0,0.0,1.2224,1.2305,1.2305,1.2305,1.2305,1.2452,1.2452,1.2452,0.0,0.0,0.0,0.0,0.0,0.0,0.0,1.2599,1.2959,1.376,1.347,1.3397,1.3608,0.0,1.2806,1.215,1.2231,1.2003,1.1558,1.1632,1.0871,0.9406,0.9181,0.847,0.733,0.6171,0.545,0.4914,0.0,0.0,0.0,0.0717,-0.009,-0.0628,-0.0628,-0.1614,-0.2867,-0.3403,-0.421,-0.5015,-0.5015,-0.5371,-0.5908,-0.6083,-0.6171,-0.6254,-0.6343,-0.652,-0.6612,-0.6792,-0.6881,-0.6966,-0.7054,-0.7387,-0.76,-0.76,-0.8222,-0.8726,-0.8726,-0.9312,-0.9805,-0.9899,-1.0096,-1.0288,-1.0485,-1.0583,-1.0681,-1.0681,-1.0783,-1.0886,-1.0886,-1.0984,-1.1765,-1.3414,-1.3022,-1.2727,-1.2727,-1.2727,-1.2727,-1.2727,-1.2727,-1.2727,-1.2727,-1.2727,-1.2673,-1.2464,-1.2464,-1.2405,-1.2293,-1.2176,-1.2024,-1.1915,-1.1678,-1.151,-1.1384,-1.1279,-1.125,-1.1139,-1.1139,-1.1052,-1.0966,0.0,0.0,0.0,0.0,0.0,0.0,0.0,1.2224,1.2305,1.2305,1.2305,1.2305,1.2305,1.2305,1.2305,0.0,0.0,0.0,0.0,0.0,0.0,0.0,0.0,0.0,1.3462,0.0,0.0,1.3462,1.3382,0.0,0.0,0.0,0.0,0.0,1.1558,1.0917,0.9632,0.9237,0.8522,0.0,0.0,0.5897,0.5542,0.0,0.0,0.0,0.0,0.0269,0.009,0.0,-0.0449,-0.1256,-0.2062,-0.3047,-0.403,-0.4208,-0.4837,-0.5463,-0.5908,-0.5994,-0.6083,-0.6169,-0.6254,-0.6432,-0.6615,-0.6707,-0.6884,-0.6966,-0.7295,-0.76,-0.76,-0.7841,-0.8038,-0.8038,-0.8038,-0.8038,-0.8333,-0.8333,-0.8432,-0.8726,-0.8726,-0.8825,-0.8825,-0.9031,-0.9133,-0.9133,-0.9327,-1.0207,-1.1955,-1.2242,-1.2242,-1.2052,-1.2052,-1.2052,-1.2052,-1.2052,-1.2052,-1.2052,-1.2052,-1.2052,-1.2052,-1.1955,-1.1955,-1.1945,-1.1672,-1.1406,-1.1201,-1.0988,-1.0803,-1.0634,-1.0542,-1.049,-1.042,-1.0376,-1.0183,-1.0009,0.0,0.0,0.0,0.0,0.0,0.0,0.0,1.2298,1.2305,1.2305,1.2305,1.2305,1.2305,1.2305,1.2305,0.0,0.0,0.0,0.0,0.0,0.0,0.0,0.0,0.0,0.0,0.0,0.0,1.3237,1.2512,0.0,0.0,0.0,0.0,0.0,0.0,1.0551,0.8982,0.9052,0.0,0.0,0.0,0.0,0.0,0.0,0.0,0.0,0.0,0.0538,0.0359,0.009,-0.009,-0.018,-0.0269,-0.1524,-0.3226,-0.403,-0.4389,-0.4656,-0.5463,-0.5733,-0.5733,-0.5733,-0.5908,-0.6171,-0.6171,-0.6526,-0.6795,-0.6792,-0.7207,-0.76,-0.76,-0.7841,-0.8038,-0.8038,-0.8038,-0.8038,-0.8038,-0.8237,-0.8432,-0.8432,-0.8627,-0.8825,-0.8825,-0.8825,-0.8825,-0.8825,-0.8825,-0.9122,-0.9821,-1.0788,-1.0886,-0.992,-0.992,-0.992,-0.992,-0.992,-0.992,-0.992,-0.992,-0.992,-0.992,-0.9624,-0.9529,-0.9525,-0.9205,-0.9095,-0.9079,-0.8922,-0.8844,-0.8798,-0.8494,-0.8363,-0.8328,-0.8263,-0.8201,-0.8116,0.0,0.0,0.0,0.0,0.0,0.0,1.2298,1.2305,1.2305,1.2305,1.2305,1.2305,1.2305,1.2305,1.2305,1.2305,0.0,0.0,0.0,0.0,0.0,0.0,0.0,0.0,0.0,0.0,1.2224,1.2512,1.2077,0.0,0.0,0.0,0.0,0.0,0.0,1.072,0.964,0.9223,0.0,0.0,0.0,0.0,0.0,0.0,0.0,0.0,0.0,0.0,0.0359,0.0269,0.009,0.0,0.0,-0.0539,-0.1346,-0.224,-0.2956,-0.3582,-0.3941,-0.403,-0.403,-0.403,-0.4476,-0.501,-0.5186,-0.5811,-0.6438,-0.6707,-0.7109,-0.7406,-0.7597,-0.7841,-0.8038,-0.8038,-0.8038,-0.8038,-0.8038,-0.8137,-0.8137,-0.8137,-0.8237,-0.8333,-0.8333,-0.8432,-0.8627,-0.8825,-0.8825,-0.8924,-0.9126,-0.9513,-0.9509,-0.9126,-0.9126,-0.9126,-0.9126,-0.9126,-0.9126,-0.9126,-0.9126,-0.9126,-0.9126,-0.9027,-0.8928,-0.8928,-0.8825,-0.8726,-0.8524,-0.8463,-0.8387,-0.839,-0.8167,-0.8056,-0.7951,-0.7786,-0.7728,-0.7538,0.0,0.0,0.0,0.0,0.0,1.2305,1.2305,1.2305,1.2305,1.2305,1.2305,1.2305,1.2305,1.2305,1.2305,1.2305,1.2305,0.0,0.0,0.0,0.0,0.0,0.0,0.0,0.0,0.0,1.1929,1.1855,1.1706,1.1484,0.0,0.0,1.1335,1.1111,0.0,0.0,0.0,0.0,0.0,0.0,0.0,0.0,0.0,0.0,0.0,0.0,0.0,0.0,0.0,0.0,0.0,0.0,0.0,0.0,-0.018,-0.1166,-0.1883,-0.251,-0.2778,-0.2867,-0.2867,-0.2867,-0.3583,-0.4297,-0.4474,-0.5366,-0.6171,-0.6526,-0.6926,-0.7214,-0.7406,-0.7741,-0.8038,-0.8038,-0.8038,-0.8038,-0.8038,-0.8038,-0.8038,-0.8038,-0.8038,-0.8038,-0.8038,-0.8137,-0.8333,-0.8528,-0.8528,-0.8528,-0.8528,-0.8528,-0.8627,-0.8825,-0.8825,-0.8825,-0.8825,-0.8825,-0.8825,-0.8825,-0.8825,-0.8825,-0.8825,-0.8726,-0.8726,-0.8726,-0.8627,-0.8432,-0.8233,-0.8233,-0.8273,-0.8174,-0.8129,-0.8041,-0.7827,-0.7674,-0.759,-0.7356,0.0,0.0,0.0,0.0,0.0,0.0,1.2305,1.2305,1.2305,1.2305,1.2305,1.2305,1.2305,1.2305,1.2305,1.2305,1.2305,0.0,0.0,0.0,0.0,0.0,0.0,0.0,0.0,0.0,1.1781,1.1409,1.1409,1.1335,1.1111,1.1111,1.1111,1.1049,0.0,0.0,0.0,0.0,0.0,0.0,0.0,0.0,0.0,0.0,0.0,0.0,0.0,0.0,0.0,0.0,0.0,0.0,0.0,0.0,-0.018,-0.1166,-0.1436,-0.1614,-0.2599,-0.2867,-0.2867,-0.2867,-0.3583,-0.43,-0.43,-0.5191,-0.6083,-0.6083,-0.6648,-0.7211,-0.7211,-0.7641,-0.8038,-0.8038,-0.8038,-0.8038,-0.8038,-0.8038,-0.8038,-0.8038,-0.8038,-0.8038,-0.8038,-0.8038,-0.8038,-0.8038,-0.8038,-0.8038,-0.8038,-0.8038,-0.8237,-0.8825,-0.8825,-0.8825,-0.8825,-0.8825,-0.8825,-0.8825,-0.8825,-0.8825,-0.8825,-0.8531,-0.8432,-0.8432,-0.8137,-0.8038,-0.8038,-0.8038,-0.8038,-0.8021,-0.7872,-0.7811,-0.779,-0.7648,-0.7502,-0.737,0.0,0.0,0.0,0.0,0.0,0.0,0.0,1.2305,1.2305,1.2305,1.2305,1.2305,1.2305,1.2305,1.2305,1.2305,1.2305,0.0,0.0,0.0,0.0,0.0,0.0,0.0,0.0,0.0,1.1558,1.1409,1.126,1.1186,1.1111,1.1111,1.0812,1.0299,1.0068,0.9296,0.0,0.0,0.0,0.0,0.0,0.0,0.4289,0.0,0.0,0.0,0.0,0.0,0.0,0.0,0.0,0.0,0.0,0.0,0.0,-0.0359,-0.0449,-0.0539,-0.0808,-0.0898,-0.0898,-0.0898,-0.2152,-0.3315,-0.3315,-0.4654,-0.5933,-0.6198,-0.6531,-0.6771,-0.7059,-0.7318,-0.754,-0.7743,-0.7746,-0.7743,-0.7942,-0.8038,-0.8038,-0.8038,-0.8038,-0.8038,-0.8038,-0.8038,-0.8038,-0.8038,-0.8038,-0.8038,-0.8038,-0.8038,-0.8038,-0.8237,-0.8237,-0.8237,-0.8237,-0.8237,-0.8237,-0.8237,-0.8237,-0.8237,-0.8237,-0.8137,-0.8137,-0.8137,-0.8038,-0.8038,-0.8038,-0.8038,-0.8038,-0.8035,-0.7987,-0.7967,-0.795,-0.7797,-0.7716,-0.7641,0.0,0.0,0.0,0.0,0.0,0.0,0.0,1.2305,1.2305,1.2305,1.2305,1.2305,1.2305,1.2305,1.2305,1.2157,1.2157,0.0,0.0,0.0,0.0,0.0,0.0,0.0,1.1484,1.1409,1.1335,1.126,1.1186,1.1111,1.1111,1.1111,1.0663,0.9922,0.9627,0.8883,0.0,0.0,0.0,0.0,0.0,0.0,0.4289,0.0,0.0,0.0,0.0,0.0,0.0,0.0,0.0,0.0,0.0,0.0,0.0,0.0,0.0,0.0,0.0,0.0,0.0,0.0,-0.1166,-0.2419,-0.2778,-0.3762,-0.4954,-0.5974,-0.6089,-0.6113,-0.6728,-0.7051,-0.7238,-0.7441,-0.7444,-0.7543,-0.7842,-0.7842,-0.7842,-0.7939,-0.8038,-0.8038,-0.8038,-0.8038,-0.8038,-0.8038,-0.8038,-0.8038,-0.8038,-0.8038,-0.8038,-0.8038,-0.8038,-0.8038,-0.8038,-0.8038,-0.8038,-0.8038,-0.8038,-0.8038,-0.8038,-0.8038,-0.8038,-0.8038,-0.8038,-0.8038,0.0,-0.8038,-0.8038,-0.8038,-0.8038,-0.8038,-0.8028,-0.7933,-0.7862,-0.7784,0.0,0.0,0.0,0.0,0.0,0.0,0.0,1.2305,1.2305,1.2305,1.2305,1.2305,1.2305,1.2305,1.2231,1.2003,0.0,0.0,0.0,0.0,0.0,0.0,0.0,0.0,1.1111,1.126,1.126,1.1111,1.1111,1.1037,1.1037,1.1037,1.0513,0.97,0.9048,0.8361,0.0,0.0,0.0,0.0,0.0,0.0,0.0,0.0,0.0,0.0,0.0,0.0,0.0,0.0,0.0,0.0,0.0,0.0,0.0,0.0,0.0,0.0,0.0,0.0,0.0,0.0,-0.0718,-0.1614,-0.2598,-0.2871,0.0,-0.5339,-0.5256,-0.5263,-0.6249,-0.666,-0.6936,-0.6936,-0.6936,-0.7039,-0.7444,-0.7444,-0.7543,-0.7839,-0.7839,-0.7736,-0.7736,-0.7736,-0.7736,-0.7736,-0.7736,-0.7736,-0.7736,-0.7736,-0.7839,-0.7839,-0.7839,-0.7839,-0.8038,-0.8038,-0.8038,-0.8038,-0.8038,-0.8038,-0.8038,-0.8038,-0.8038,-0.8038,-0.8038,-0.8038,-0.8038,-0.8038,-0.8038,-0.8038,-0.8038,-0.7939,-0.7942,-0.7942,-0.7851,-0.7727,0.0,0.0,0.0,0.0,0.0,0.0,0.0,0.0,0.0,0.0,1.2305,1.2305,1.2305,1.2305,1.2231,0.0,0.0,0.0,0.0,0.0,0.0,0.0,0.0,0.0,1.1111,1.1186,1.1186,1.1111,1.1111,1.0812,1.0143,1.0143,0.9458,0.8093,0.791,0.7458,0.0,0.0,0.0,0.0,0.0,0.0,0.0,0.0,0.0,0.0,0.1436,0.1256,0.0,0.0,0.0,0.0,0.0,0.0,0.0,0.0,0.0,0.0,0.0,0.0,0.0,0.0,-0.0718,-0.1436,0.0,-0.2357,-0.304,-0.3571,-0.3547,-0.3617,-0.3987,-0.4114,-0.4227,-0.4423,-0.4423,-0.4824,-0.5927,-0.6232,-0.6331,-0.6226,-0.5827,-0.5425,-0.5018,-0.5322,-0.5425,-0.5222,-0.5425,-0.5527,-0.5527,-0.5527,-0.5929,-0.6736,-0.6029,-0.6329,-0.7939,-0.8038,-0.8038,-0.8038,-0.8038,-0.8038,-0.8038,-0.8038,-0.8038,-0.8038,-0.8038,-0.8038,-0.8038,-0.8038,-0.8038,-0.8038,-0.8038,-0.7842,-0.7646,-0.7646,-0.7521,-0.7372,0.0,0.0,0.0,0.0,0.0,0.0,0.0,0.0,0.0,0.0,0.0,0.0,0.0,0.0,0.0,0.0,0.0,0.0,0.0,0.0,0.0,0.0,0.0,1.1111,1.1111,1.1111,1.1111,1.1111,1.1111,1.0663,0.9922,0.9922,0.9003,0.7488,0.7177,0.6918,0.0,0.0,0.0,0.0,0.6584,0.0,0.0,0.0,0.0,0.0,0.1436,0.1345,0.0,0.0807,0.0628,0.0448,0.0,0.0,0.0,0.0,0.0,0.0,0.0,0.0,0.0,0.0,-0.0359,-0.0898,-0.1346,-0.1457,-0.1856,-0.284,-0.2704,-0.2561,-0.3111,-0.3224,-0.3224,-0.3422,-0.3422,-0.3721,-0.4522,-0.4922,-0.5022,-0.492,-0.462,-0.4318,-0.4016,-0.4218,-0.442,-0.442,-0.4522,-0.4622,-0.4824,-0.4722,-0.4922,-0.5427,-0.4822,-0.5622,-0.7939,-0.7033,-0.6731,-0.7238,-0.6731,-0.6531,-0.6531,-0.6531,-0.6531,-0.6531,-0.6429,-0.6326,-0.6326,-0.6326,-0.6326,-0.6224,-0.6326,-0.6226,-0.5927,-0.5927,-0.5827,-0.5717,0.0,0.0,0.0,0.0,0.0,0.0,0.0,0.0,0.0,0.0,0.0,0.0,0.0,0.0,0.0,0.0,0.0,0.0,0.0,0.0,0.0,0.0,1.0887,1.0887,1.0887,1.0812,1.0738,1.0738,1.0738,1.0288,0.9539,0.9539,0.8718,0.7297,0.6759,0.6519,0.0,0.0,0.0,0.0,0.6034,0.0,0.0,0.0,0.0,0.0,0.0,0.0,0.0,0.0897,0.0718,0.0628,0.018,0.0,0.0,0.0,0.0,0.0,0.0,0.0,0.0,0.0,0.0,-0.018,-0.0987,-0.0548,-0.0467,-0.218,-0.1937,-0.1682,-0.2512,-0.272,-0.272,-0.272,-0.2821,-0.3021,-0.3219,-0.3518,-0.3717,-0.3616,-0.3516,-0.3516,-0.3416,-0.3416,-0.3616,-0.3819,-0.3819,-0.392,-0.4223,-0.4021,-0.3919,-0.4119,-0.3717,-0.472,-0.7332,-0.5625,-0.5227,-0.6134,-0.5227,-0.4724,-0.4724,-0.4722,-0.4722,-0.4622,-0.442,-0.432,-0.432,-0.432,-0.4218,-0.4016,-0.4218,-0.4218,-0.3917,-0.3917,-0.3917,-0.3817,0.0,0.0,0.0,0.0,0.0,0.0,0.0,0.0,0.0,0.0,0.0,0.0,0.0,0.0,0.0,0.0,0.0,0.0,0.0,0.0,0.0,1.0143,1.0067,1.0067,1.0067,0.9382,0.9079,0.9079,0.9079,0.8623,0.7863,0.7863,0.7406,0.6683,0.6678,0.6736,0.6868,0.0,0.0,0.0,0.6068,0.0,0.0,0.0,0.0,0.0,0.0,0.0,0.0,0.1076,0.0897,0.0628,0.0448,0.0,0.0,0.0,0.0,0.0,0.0,0.0,0.0,0.0,0.0,0.0,-0.018,-0.0092,-0.0095,-0.0381,-0.0392,-0.0302,-0.0504,-0.0505,-0.0505,-0.0505,-0.121,-0.1814,-0.1915,-0.2116,-0.2217,-0.2015,-0.1613,-0.111,-0.0706,-0.1009,-0.1211,-0.1009,-0.1211,-0.1413,-0.1413,-0.1413,-0.1815,-0.2717,-0.1814,-0.2316,-0.4618,-0.4518,-0.4622,-0.5024,-0.4622,-0.442,-0.442,-0.4218,-0.4117,-0.4117,-0.4116,-0.4016,-0.4016,-0.4016,-0.4016,-0.4016,-0.4016,-0.3917,-0.362,-0.362,-0.3521,-0.3222,0.0,0.0,0.0,0.0,0.0,0.0,0.0,0.0,0.0,0.0,0.0,0.0,0.0,0.0,0.0,0.0,0.0,0.0,0.0,0.0,0.9604,0.9236,0.8856,0.8775,0.9236,0.8851,0.8703,0.8703,0.8703,0.8322,0.7484,0.7114,0.6803,0.6481,0.6719,0.6861,0.6853,0.6464,0.634,0.0,0.0,0.0,0.0,0.0,0.0,0.0,0.0,0.0,0.0,0.0,0.0987,0.0897,0.0628,0.0,0.0,0.0,0.0,0.0,0.0,0.009,0.018,0.018,0.009,0.0,0.0,0.0,0.0,0.0,0.0,0.0,0.0,0.0,0.0,0.0,-0.0404,-0.0706,-0.0706,-0.0807,-0.0908,-0.0706,-0.0505,-0.0303,0.0,-0.0202,-0.0404,-0.0404,-0.0505,-0.0606,-0.0808,-0.0707,-0.0808,-0.1311,-0.0707,-0.0908,-0.2014,-0.2215,-0.2616,-0.3519,-0.2819,-0.2417,-0.2417,-0.2316,-0.2316,-0.2215,-0.2115,-0.2014,-0.2014,-0.2014,-0.2013,-0.1812,-0.2014,-0.1913,-0.1612,-0.1612,-0.1613,-0.1412,0.0,0.0,0.0,0.0,0.0,0.0,0.0,0.0,0.0,0.0,0.0,0.0,0.0,0.0,0.0,0.0,0.0,0.0,0.0,0.8524,0.8627,0.8399,0.7863,0.7787,0.8394,0.8246,0.8169,0.8169,0.8169,0.7808,0.7239,0.6773,0.6546,0.659,0.6567,0.6599,0.6551,0.5769,0.5361,0.0,0.0,0.0,0.0,0.0,0.0,0.0,0.0,0.0,0.0,0.0,0.0,0.0,0.0,0.0,0.0,0.0448,0.0359,0.018,0.009,0.0269,0.0448,0.0448,0.0269,0.018,0.009,0.0093,0.0095,0.0,0.0,0.0,0.0,0.0,0.0,0.0,0.0,0.0,0.0,0.0,0.0,0.0,0.0,0.0,0.0,0.0,-0.0101,-0.0303,-0.0303,-0.0404,-0.0606,-0.0404,-0.0303,-0.0303,-0.0101,-0.0101,-0.0303,-0.0303,-0.0908,-0.2015,-0.111,-0.0707,-0.0707,-0.0606,-0.0606,-0.0606,-0.0404,-0.0303,-0.0303,-0.0303,-0.0202,0.0,-0.0202,-0.0202,0.0,0.0,0.0,0.0,0.0,0.0,0.0,0.0,0.0,0.0,0.0,0.0,0.0,0.0,0.0,0.0,0.0,0.0,0.0,0.0,0.0,0.0,0.0,0.8685,0.8394,0.7633,0.7561,0.7557,0.7561,0.6872,0.6493,0.6493,0.6493,0.6485,0.6537,0.661,0.6759,0.681,0.5964,0.5686,0.5708,0.4821,0.4378,0.4289,0.3312,0.0,0.0,0.0,0.0,0.0,0.0,0.0,0.0,0.0,0.0,0.0,0.0,0.0,0.0718,0.0718,0.0628,0.0628,0.0448,0.0538,0.0628,0.0448,0.0538,0.0628,0.0448,0.0371,0.0286,0.0095,0.0,0.0,0.0,0.0,0.0,0.0,0.0,0.0,0.0,0.0,0.0,0.0,0.0,0.0,0.0,0.0,0.0,0.0,0.0,0.0,-0.0101,0.0,0.0,0.0,0.0,0.0,0.0,0.0,-0.0303,-0.0909,-0.0606,-0.0404,-0.0404,-0.0202,-0.0101,-0.0101,0.0,0.0,0.0,0.0,0.0,0.0,0.0,0.0,0.0,0.0,0.0,0.0,0.0,0.0,0.0,0.0,0.0,0.0,0.0,0.0,0.0,0.0,0.0,0.0,0.0,0.0,0.0,0.0,0.0,0.0,0.0,0.6878,0.6865,0.6795,0.6721,0.6721,0.6721,0.649,0.6338,0.6338,0.6349,0.642,0.6478,0.6725,0.6528,0.5975,0.5706,0.532,0.4736,0.3846,0.34,0.3312,0.233,0.0,0.0,0.0,0.0,0.0,0.0,0.0,0.0,0.0,0.1345,0.1256,0.1256,0.1166,0.0987,0.0987,0.0807,0.0718,0.0628,0.0807,0.0897,0.0897,0.0987,0.1076,0.0628,0.0648,0.0668,0.0477,0.0492,0.0505,0.0505,0.0404,0.0202,0.0202,0.0101,0.0,0.0,0.0,0.0,0.0,0.0,0.0,0.0,0.0,0.0,0.0,0.0,0.0,0.0,0.0,0.0,0.0,0.0,0.0,0.0,0.0,-0.0101,-0.0303,-0.0202,-0.0101,-0.0101,0.0,0.0,0.0,0.0,0.0,0.0,0.0,0.0,0.0,0.0,0.0,0.0,0.0,0.0,0.0,0.0,0.0,0.0,0.0,0.0,0.0,0.0,0.0,0.0,0.0,0.0,0.0,0.0,0.0,0.0,0.0,0.0,0.0,0.5642,0.5733,0.5867,0.6106,0.6106,0.6103,0.618,0.618,0.618,0.6338,0.6205,0.6153,0.6204,0.6102,0.5771,0.5073,0.4884,0.4469,0.3757,0.2865,0.2419,0.2331,0.1704,0.1436,0.0,0.0,0.0,0.0,0.0,0.0,0.0,0.0,0.1436,0.1436,0.1436,0.1345,0.1166,0.1166,0.1076,0.0897,0.0807,0.0987,0.1166,0.1076,0.1256,0.1345,0.0987,0.0926,0.0858,0.0858,0.0787,0.0808,0.0808,0.0606,0.0505,0.0505,0.0303,0.0101,0.0101,0.0101,0.0,0.0,0.0,0.0,0.0,0.0,0.0,0.0,0.0,0.0,0.0,0.0,0.0,0.0,0.0,0.0,0.0,0.0,0.0,0.0,0.0,0.0,0.0,0.0,0.0,0.0,0.0,0.0,0.0,0.0,0.0,0.0,0.0,0.0,0.0,0.0,0.0,0.0,0.0,0.0,0.0,0.0,0.0,0.0,0.0,0.0,0.0,0.0,0.0,0.0,0.0,0.0,0.0,0.0,0.0,0.0,0.5559,0.5559,0.5559,0.5559,0.5559,0.5634,0.586,0.5864,0.6022,0.6342,0.565,0.5333,0.5454,0.4687,0.4289,0.4289,0.3312,0.2867,0.2778,0.1793,0.1436,0.1436,0.1436,0.1436,0.1436,0.0,0.0,0.0,0.0,0.0,0.0,0.0,0.1436,0.1436,0.1436,0.1436,0.1436,0.1436,0.1436,0.1345,0.1166,0.1256,0.1345,0.1166,0.1256,0.1436,0.1436,0.1204,0.1049,0.0859,0.0787,0.0808,0.0808,0.0808,0.0808,0.0808,0.0606,0.0404,0.0404,0.0202,0.0,0.0,0.0,0.0,0.0,0.0,0.0,0.0,0.0,0.0,0.0,0.0,0.0,0.0,0.0,0.0,0.0,0.0,0.0,0.0,0.0,0.0,0.0,0.0,0.0,0.0,0.0,0.0,0.0,0.0,0.0,0.0,0.0,0.0,0.0,0.0,0.0,0.0,0.0,0.0,0.0,0.0,0.0,0.0,0.0,0.0,0.0,0.0,0.0,0.0,0.0,0.0,0.0,0.0,0.0,0.0,0.4538,0.399,0.3677,0.3828,0.3828,0.3906,0.4139,0.413,0.4885,0.641,0.5691,0.5333,0.5454,0.4687,0.3933,0.3312,0.3045,0.251,0.1793,0.1524,0.1436,0.1436,0.1436,0.1436,0.1436,0.0,0.0,0.0,0.0,0.0,0.0,0.0,0.0,0.0,0.1436,0.1436,0.1436,0.1436,0.1436,0.1346,0.1345,0.1345,0.1346,0.1345,0.1345,0.1436,0.1436,0.139,0.1346,0.1383,0.1403,0.1314,0.1314,0.1212,0.1111,0.1111,0.0808,0.0707,0.0707,0.0606,0.0606,0.0606,0.0606,0.0606,0.0606,0.0606,0.0606,0.0606,0.0606,0.0502,0.0297,0.0297,0.0197,0.0,0.0,0.0,0.0,0.0,0.0,0.0,0.0201,0.0202,0.0,0.0,0.0,0.0,0.0,0.0,0.0,0.0,0.0,0.0,0.0,0.0,0.0,0.0202,0.0303,0.0303,0.0,0.0,0.0,0.0,0.0,0.0,0.0,0.0,0.0,0.0,0.4262,0.4184,0.0,0.0,0.0,0.0,0.0,0.0,0.0,0.2973,0.2737,0.2891,0.284,0.2947,0.3137,0.326,0.3955,0.5402,0.4382,0.4118,0.4474,0.3466,0.2774,0.2331,0.2331,0.1973,0.1436,0.1436,0.1436,0.1436,0.1436,0.1436,0.1436,0.0,0.0,0.0,0.0,0.0,0.0,0.0,0.0,0.0,0.1436,0.1436,0.1436,0.1436,0.1436,0.1436,0.1436,0.1436,0.1436,0.1436,0.1436,0.1438,0.1451,0.1491,0.154,0.1589,0.1609,0.1617,0.1617,0.1516,0.1314,0.1314,0.1111,0.0909,0.0909,0.0909,0.0808,0.0808,0.0808,0.0808,0.0808,0.0803,0.0799,0.0799,0.0794,0.0688,0.0486,0.0485,0.0483,0.0286,0.0286,0.0286,0.0286,0.0289,0.0291,0.0291,0.0393,0.0395,0.0296,0.0201,0.0101,0.0,0.0101,0.0202,0.0303,0.0202,0.0202,0.0202,0.0202,0.0202,0.0202,0.0505,0.0606,0.0606,0.0,0.0,0.0,0.0,0.0,0.0,0.0,0.0,0.0,0.0,0.2795,0.2794,0.0,0.0,0.0,0.0,0.0,0.0,0.0,0.2347,0.227,0.227,0.2322,0.2377,0.26,0.2772,0.3056,0.3467,0.2426,0.228,0.2867,0.1704,0.1166,0.1436,0.1436,0.1436,0.1436,0.1436,0.1436,0.1436,0.1436,0.1436,0.1436,0.1436,0.0,0.0,0.0,0.0,0.0,0.0,0.0,0.0,0.1436,0.1436,0.1436,0.1436,0.1436,0.1436,0.1436,0.1436,0.1436,0.1436,0.1436,0.1442,0.147,0.15,0.153,0.1561,0.1592,0.1613,0.1613,0.1615,0.1617,0.1617,0.1415,0.1212,0.121,0.1008,0.0906,0.0905,0.0905,0.0905,0.0905,0.089,0.0881,0.0881,0.0771,0.0762,0.0761,0.0761,0.076,0.0664,0.0664,0.0664,0.0664,0.0665,0.0666,0.0666,0.0762,0.0763,0.0668,0.0496,0.0303,0.0101,0.0303,0.0606,0.0808,0.0505,0.0404,0.0404,0.0404,0.0404,0.0505,0.0707,0.0808,0.0808,0.0,0.0,0.0,0.0,0.0,0.0,0.0,0.0,0.0,0.0,0.0,0.0,0.0,0.0,0.0,0.0,0.0,0.0,0.0,0.0941,0.0549,0.0549,0.0722,0.0822,0.0841,0.0856,0.1038,0.1304,0.1735,0.228,0.2867,0.1704,0.1166,0.1436,0.1436,0.1436,0.1436,0.1436,0.1436,0.1436,0.1436,0.1436,0.1436,0.1436,0.1436,0.0,0.0,0.0,0.0,0.0,0.0,0.0,0.1436,0.1436,0.1436,0.1436,0.1436,0.1436,0.1436,0.1436,0.1436,0.1436,0.1436,0.1437,0.1444,0.1468,0.1499,0.153,0.156,0.1581,0.1581,0.16,0.1617,0.1617,0.1516,0.1508,0.1486,0.1483,0.1376,0.1355,0.1352,0.1352,0.1352,0.1347,0.1344,0.1344,0.1338,0.1231,0.1025,0.1025,0.0925,0.0727,0.0727,0.0727,0.0727,0.0739,0.0745,0.0745,0.0946,0.0858,0.0668,0.0684,0.0697,0.0606,0.0707,0.0707,0.0808,0.0707,0.0707,0.0707,0.0707,0.0707,0.0707,0.101,0.1111,0.1313,0.0,0.0,0.0,0.0,0.0,0.0,0.0,0.0,0.0,0.0,0.0,0.0,0.0,0.0,0.0,0.0,0.0,0.0,0.0,0.0,-0.0079,0.0,0.0082,0.0168,0.0174,0.0176,0.0265,0.053,0.097,0.1506,0.2061,0.1435,0.1166,0.1436,0.1256,0.1345,0.1436,0.1256,0.1256,0.1256,0.1256,0.1256,0.1256,0.1256,0.1345,0.1436,0.1436,0.0,0.0,0.0,0.0,0.0,0.0,0.0,0.1436,0.1436,0.1525,0.1525,0.1436,0.1525,0.1525,0.1436,0.1436,0.1436,0.1436,0.1447,0.1463,0.1479,0.1519,0.155,0.155,0.1563,0.1573,0.1573,0.1573,0.1568,0.1552,0.155,0.1544,0.1528,0.1526,0.1526,0.1526,0.1513,0.1504,0.1504,0.1491,0.1384,0.1277,0.1276,0.1179,0.1077,0.1076,0.1076,0.1076,0.0997,0.1003,0.1003,0.1199,0.1211,0.1035,0.0864,0.0881,0.0997,0.0997,0.1102,0.1212,0.101,0.101,0.101,0.101,0.101,0.1111,0.1917,0.2118,0.232,0.0,0.0,0.0,0.0,0.0,0.0,0.0,0.0,0.0,0.0,0.0,0.0,0.0,0.0,0.0,0.0,0.0,0.0,0.0,0.0,0.0,-0.0252,-0.0252,-0.0172,0.0,0.0,0.009,0.0359,0.0359,0.0628,0.0987,0.1076,0.1166,0.1345,0.1256,0.1256,0.1346,0.1166,0.1076,0.1076,0.1076,0.1076,0.1076,0.1076,0.1256,0.1436,0.1436,0.1436,0.1436,0.1436,0.0,0.0,0.0,0.0,0.1436,0.1525,0.1705,0.1794,0.1615,0.1705,0.1794,0.1615,0.1525,0.1525,0.1525,0.1525,0.1436,0.1436,0.148,0.1519,0.1519,0.1523,0.1526,0.1526,0.1526,0.1524,0.1519,0.1519,0.1516,0.1511,0.151,0.151,0.151,0.1487,0.1473,0.1473,0.145,0.1436,0.1436,0.1436,0.1436,0.1436,0.1436,0.1436,0.1436,0.1436,0.1436,0.1436,0.1436,0.1448,0.1474,0.103,0.0956,0.1271,0.1271,0.1383,0.1609,0.1408,0.141,0.1515,0.1515,0.1615,0.1917,0.3022,0.3524,0.3624,0.0,0.0,0.0,0.0,0.0,0.0,0.0,0.0,0.0,0.0,-0.0615,-0.0611,0.0,0.0,0.0,0.0,0.0,0.0,0.0,0.0,0.0,-0.1423,-0.126,-0.0773,0.0,0.0,0.0,0.009,0.0269,0.0448,0.0538,0.0897,0.1076,0.1166,0.1256,0.1345,0.1346,0.1166,0.1076,0.1076,0.0807,0.0897,0.1076,0.1076,0.1256,0.1436,0.1436,0.1436,0.1436,0.1436,0.1436,0.0,0.0,0.0,0.1794,0.2064,0.2154,0.2154,0.2064,0.2154,0.2154,0.2064,0.2064,0.2064,0.2064,0.1885,0.1705,0.1705,0.1646,0.1487,0.1487,0.1508,0.1526,0.1526,0.1526,0.1517,0.1491,0.1487,0.1477,0.1451,0.1447,0.1447,0.1447,0.1444,0.1441,0.1441,0.1438,0.1436,0.1436,0.1436,0.1436,0.1436,0.1436,0.1436,0.1436,0.1436,0.1436,0.1436,0.1436,0.1438,0.1442,0.1355,0.1385,0.1436,0.1436,0.1549,0.1577,0.1577,0.2089,0.2923,0.2923,0.3524,0.4323,0.4524,0.4624,0.4726,0.0,0.0,0.0,0.0,0.0,0.0,0.0,0.0,0.0,0.0,0.0,-0.2554,0.0,0.0,0.0,0.0,0.0,0.0,0.0,0.0,0.0,-0.2425,-0.2375,-0.217,-0.1613,-0.1614,-0.1614,-0.1614,-0.1343,-0.1253,-0.1164,-0.0358,0.0358,0.0897,0.0987,0.0987,0.0987,0.0807,0.0718,0.0718,0.0538,0.0628,0.0897,0.0897,0.1076,0.1436,0.1436,0.1436,0.1436,0.1436,0.1436,0.1436,0.1705,0.0,0.0,0.0,0.2244,0.2512,0.3047,0.3047,0.3135,0.3667,0.3757,0.3757,0.3757,0.3667,0.3576,0.3576,0.3512,0.3083,0.1727,0.1466,0.1475,0.1475,0.1475,0.147,0.1457,0.1455,0.1451,0.1437,0.1436,0.1436,0.1436,0.1436,0.1436,0.1436,0.1436,0.1436,0.1436,0.1436,0.1436,0.1436,0.1436,0.1436,0.1436,0.1436,0.1436,0.1436,0.1436,0.1436,0.1436,0.1973,0.2005,0.15,0.15,0.1802,0.2416,0.244,0.3052,0.3968,0.4109,0.4423,0.4824,0.5429,0.5729,0.5832,0.0,0.0,0.0,0.0,0.0,0.0,0.0,0.0,0.0,0.0,0.0,0.0,0.0,0.0,0.0,0.0,0.0,0.0,0.0,0.0,0.0,-0.3458,-0.3519,-0.3325,-0.2865,-0.2867,-0.2867,-0.2867,-0.2684,-0.2594,-0.2597,-0.161,-0.0805,-0.0179,0.0448,0.0718,0.0718,0.0448,0.0359,0.0359,0.0359,0.0448,0.0718,0.0718,0.0987,0.1436,0.1436,0.1436,0.1436,0.1436,0.1436,0.1436,0.1794,0.1885,0.0,0.0,0.0,0.3496,0.4206,0.4204,0.4291,0.5001,0.5179,0.5179,0.5179,0.5176,0.5087,0.5087,0.5087,0.4463,0.2685,0.2329,0.2327,0.2239,0.1972,0.1882,0.1793,0.1524,0.1436,0.1436,0.1436,0.1436,0.1436,0.1436,0.1436,0.1436,0.1436,0.1436,0.1436,0.1436,0.1436,0.1436,0.1436,0.1436,0.1436,0.1436,0.1436,0.1525,0.1525,0.1704,0.1972,0.2689,0.2711,0.2292,0.2201,0.2597,0.3311,0.3452,0.4073,0.4997,0.5163,0.5402,0.5824,0.6631,0.6933,0.7132,0.0,0.0,0.0,0.0,0.0,0.0,0.0,0.0,0.0,0.0,0.0,0.0,-0.4361,-0.4358,-0.4339,-0.4363,-0.4916,-0.5514,-0.6288,-0.6151,-0.5703,-0.4746,-0.4499,0.0,-0.2956,-0.2867,-0.2867,-0.2867,-0.2867,-0.2867,-0.2867,-0.2593,-0.2504,-0.2598,-0.0358,0.0718,0.0718,0.0448,0.0359,0.0359,0.009,0.0269,0.0718,0.0718,0.0987,0.1436,0.1436,0.1436,0.1436,0.1436,0.1436,0.1525,0.1974,0.2154,0.2423,0.0,0.0,0.0,0.563,0.563,0.563,0.563,0.563,0.563,0.563,0.5539,0.5359,0.5359,0.5179,0.4996,0.4821,0.4819,0.4732,0.4469,0.3666,0.3041,0.2867,0.1973,0.1436,0.1436,0.1436,0.1436,0.1436,0.1436,0.1436,0.1436,0.1436,0.1436,0.1436,0.1436,0.1436,0.1436,0.1436,0.1436,0.1436,0.1436,0.1525,0.1794,0.1794,0.2419,0.3489,0.3314,0.3673,0.4387,0.4206,0.4166,0.4246,0.4252,0.5009,0.6155,0.6163,0.7021,0.823,0.8233,0.8428,0.8726,0.0,0.0,0.0,0.0,0.0,0.0,0.0,0.0,0.0,0.0,0.0,0.0,0.0,-0.7618,-0.7677,-0.752,-0.7609,-0.7614,-0.7486,-0.7365,-0.6867,-0.5964,-0.5787,-0.5497,-0.5008,-0.4746,-0.4656,-0.4656,-0.4656,-0.4656,-0.4476,-0.3937,-0.358,-0.3492,-0.1343,-0.0537,-0.0628,-0.009,0.018,0.018,0.0,0.0269,0.0718,0.0718,0.0987,0.1436,0.1436,0.1436,0.1436,0.1436,0.1436,0.1525,0.2064,0.2243,0.2512,0.3853,0.4921,0.5808,0.6432,0.6605,0.6786,0.7408,0.7584,0.7584,0.7584,0.7496,0.7492,0.7492,0.7404,0.7312,0.7312,0.6065,0.4999,0.491,0.4554,0.4287,0.4287,0.3398,0.2776,0.2776,0.2241,0.1885,0.1885,0.1885,0.1885,0.1885,0.1885,0.1885,0.1885,0.1885,0.1885,0.1885,0.1885,0.1885,0.1885,0.1885,0.1974,0.2064,0.2688,0.3223,0.3667,0.4734,0.5442,0.5797,0.6334,0.6094,0.5245,0.5496,0.6221,0.7166,0.7545,0.8039,0.8496,0.8594,0.8726,0.8825,0.0,0.0,0.0,0.0,0.0,0.0,0.0,0.0,0.0,-0.9523,0.0,0.0,0.0,0.0,-0.9593,-0.9448,-0.9301,-0.9034,-0.8599,-0.85,-0.8109,-0.7152,-0.6994,-0.6605,-0.6083,-0.5822,-0.5733,-0.5733,-0.5733,-0.5644,-0.5463,-0.5015,-0.4656,-0.4476,-0.2862,-0.2059,-0.1883,-0.0898,-0.0449,-0.0449,-0.009,0.0269,0.0628,0.0718,0.0987,0.1345,0.1345,0.1436,0.1436,0.1436,0.1436,0.1436,0.1885,0.2601,0.3492,0.4385,0.563,0.6786,0.7408,0.7584,0.7764,0.8476,0.8568,0.8568,0.8568,0.8568,0.8568,0.8568,0.8568,0.8568,0.8568,0.7312,0.6154,0.6062,0.5797,0.5531,0.544,0.4643,0.4111,0.4111,0.3223,0.2689,0.2689,0.2422,0.2243,0.2243,0.2243,0.2243,0.2243,0.2243,0.2243,0.2243,0.2243,0.2243,0.2243,0.2511,0.2689,0.278,0.3758,0.438,0.4823,0.5974,0.6684,0.7037,0.7672,0.7319,0.6438,0.6706,0.7228,0.7843,0.8247,0.8589,0.8698,0.8803,0.8977,0.9027,0.0,0.0,0.0,0.0,0.0,0.0,0.0,0.0,-1.004,-1.004,0.0,0.0,0.0,0.0,0.0,-0.9744,-0.9679,-0.9643,-0.9671,-0.9624,-0.9239,-0.8253,-0.7918,-0.7309,-0.6171,-0.5819,-0.5733,-0.5733,-0.5733,-0.5733,-0.5733,-0.5733,-0.5733,-0.5644,-0.4748,-0.3851,-0.2956,-0.1883,-0.1436,-0.1345,-0.0449,0.009,0.0359,0.0628,0.0897,0.1166,0.1345,0.1436,0.1436,0.1436,0.1436,0.1436,0.1705,0.34,0.5359,0.5359,0.6871,0.8568,0.0,0.0,0.0,0.8568,0.8568,0.8568,0.8568,0.8568,0.8568,0.8568,0.8568,0.8568,0.8568,0.8568,0.8476,0.8288,0.7489,0.6776,0.6505,0.5617,0.5085,0.5085,0.42,0.3667,0.3667,0.2868,0.2333,0.2243,0.2243,0.2243,0.2243,0.2243,0.2243,0.2243,0.2243,0.2243,0.2243,0.3135,0.3758,0.3937,0.5003,0.6071,0.7051,0.6959,0.7309,0.8201,0.8028,0.7944,0.7944,0.7944,0.7953,0.8098,0.8102,0.8486,0.8964,0.8972,0.9279,0.9628,0.0,0.0,0.0,0.0,0.0,-1.3845,-1.3845,-1.3772,-1.37,0.0,0.0,0.0,-1.3353,-1.2851,-1.2492,-1.2418,-1.1966,-1.1468,-1.098,-1.092,-1.0233,-0.879,-0.8097,-0.7305,-0.6343,-0.5908,-0.5733,-0.5733,-0.5733,-0.5733,-0.5733,-0.5733,-0.5733,-0.5733,-0.5463,-0.5196,-0.4837,-0.3135,-0.251,-0.2419,-0.1436,-0.0896,-0.0627,0.0179,0.0718,0.1076,0.1166,0.1256,0.1436,0.1436,0.1436,0.1436,0.1705,0.2865,0.4291,0.5181,0.6337,0.7492,0.8388,0.0,0.0,0.0,0.0,0.0,0.8568,0.8568,0.8568,0.8568,0.8568,0.8568,0.8568,0.8568,0.8568,0.8476,0.8296,0.8116,0.8028,0.7136,0.6514,0.6514,0.5716,0.5095,0.5095,0.4917,0.4474,0.3764,0.3764,0.3408,0.2782,0.2694,0.2694,0.2694,0.2694,0.305,0.3674,0.3941,0.4474,0.5184,0.6163,0.6786,0.7139,0.7764,0.8208,0.8476,0.8388,0.8388,0.8388,0.8204,0.8143,0.8197,0.8501,0.8782,0.9091,0.9212,0.9372,0.9628,0.0,0.0,0.0,0.0,0.0,-1.5313,-1.5313,-1.5234,-1.5171,0.0,0.0,0.0,-1.4887,-1.4394,-1.4106,-1.4106,-1.377,-1.3327,-1.2587,-1.2538,-1.1807,-1.0096,-0.9488,-0.844,-0.7044,-0.6609,-0.6171,-0.5733,-0.5733,-0.5733,-0.5733,-0.5733,-0.5733,-0.5733,-0.5733,-0.5733,-0.5644,-0.4567,-0.3851,-0.3405,-0.1973,-0.1345,-0.1075,0.0,0.0538,0.0807,0.0987,0.1166,0.1256,0.1345,0.1436,0.1436,0.1615,0.2418,0.3576,0.4289,0.5622,0.6956,0.7669,0.8208,0.8568,0.8568,0.0,0.0,0.8568,0.8568,0.8568,0.8568,0.8568,0.8568,0.8568,0.8568,0.8568,0.8568,0.8568,0.8568,0.8568,0.812,0.7764,0.7764,0.6874,0.6251,0.6251,0.5897,0.5453,0.4921,0.4921,0.4654,0.4121,0.4032,0.4032,0.4032,0.4032,0.43,0.4921,0.5275,0.5719,0.634,0.7231,0.7764,0.7764,0.83,0.8568,0.8568,0.8568,0.8568,0.8568,0.8472,0.838,0.8392,0.8585,0.8824,0.9003,0.9181,0.936,0.9527,0.0,0.0,-1.6271,-1.6341,-1.614,-1.5939,-1.6009,-1.586,-1.5711,0.0,-1.5711,-1.5711,-1.5711,-1.5376,-1.5171,-1.518,-1.5267,-1.4955,-1.4258,-1.4278,-1.3596,-1.1912,-1.1311,-1.0005,-0.7834,-0.7573,-0.6874,-0.5733,-0.5733,-0.5733,-0.5733,-0.5733,-0.5733,-0.5733,-0.5733,-0.5733,-0.5733,-0.5733,-0.5193,-0.43,-0.233,-0.1524,-0.1435,-0.0179,0.0359,0.0448,0.0897,0.1076,0.1076,0.1256,0.1346,0.1436,0.1436,0.2239,0.322,0.3307,0.4996,0.6776,0.6956,0.776,0.8568,0.8568,0.8568,0.0,0.8568,0.8568,0.8568,0.8568,0.8568,0.8568,0.8568,0.8568,0.8568,0.8568,0.8568,0.8568,0.8568,0.8568,0.8568,0.8568,0.7852,0.7231,0.7231,0.652,0.5985,0.5897,0.5719,0.5719,0.5719,0.5719,0.5719,0.5719,0.5719,0.5719,0.5897,0.6697,0.7139,0.7319,0.8208,0.8568,0.8568,0.8568,0.8568,0.8568,0.8568,0.8568,0.8568,0.8568,0.8568,0.8568,0.8568,0.867,0.884,0.9007,0.919,0.9376,0.0,-1.7523,-1.8083,-1.8532,-1.8572,-1.868,-1.9145,-1.9145,-1.9069,-1.8905,-1.8772,-1.8649,-1.8649,-1.7552,-1.6807,-1.6688,-1.6125,-1.5655,-1.5358,-1.4881,-1.4129,-1.3074,-1.1724,-1.0005,-0.7834,-0.7573,-0.6874,-0.5733,-0.5733,-0.5733,-0.5733,-0.5733,-0.5733,-0.5733,-0.5733,-0.5733,-0.5733,-0.5733,-0.5555,-0.5285,-0.3405,-0.2598,-0.2419,-0.0628,0.018,0.0448,0.0538,0.0628,0.0807,0.1076,0.1256,0.1436,0.1436,0.2152,0.3133,0.4024,0.5354,0.6684,0.7665,0.8292,0.8568,0.8568,0.8568,0.0,0.8568,0.8568,0.8568,0.8568,0.8568,0.8568,0.8568,0.8568,0.8568,0.8568,0.8568,0.8568,0.8568,0.8568,0.8568,0.8568,0.8388,0.83,0.83,0.812,0.7676,0.6874,0.6163,0.5719,0.5719,0.5719,0.5719,0.5719,0.5719,0.6074,0.6786,0.7051,0.7496,0.83,0.8476,0.8568,0.8568,0.8568,0.8568,0.8568,0.8568,0.8568,0.8568,0.8568,0.8568,0.8568,0.8568,0.867,0.8824,0.8861,0.908,0.936,-1.8869,-1.9115,-1.9415,-1.99,-1.9976,-2.0009,-2.0279,-2.0344,-2.0279,-2.0063,-1.9879,-1.9814,-1.9814,-1.9048,-1.8506,-1.8449,-1.8136,-1.7578,-1.6975,-1.6566,-1.5642,-1.4085,-1.3165,-1.1627,-0.9483,-0.9139,-0.8269,-0.6612,-0.6435,-0.6174,-0.5733,-0.5733,-0.5733,-0.5733,-0.5733,-0.5733,-0.5908,-0.5908,-0.5997,-0.5902,-0.4295,-0.3315,-0.2777,-0.1256,-0.0359,0.018,0.0359,0.0628,0.0897,0.1076,0.1256,0.1436,0.1436,0.1704,0.233,0.3401,0.4556,0.5797,0.6953,0.7845,0.8472,0.8564,0.8568,0.0,0.0,0.8568,0.8568,0.8568,0.8568,0.8568,0.8568,0.8568,0.8568,0.8568,0.8568,0.8568,0.8568,0.8568,0.8568,0.8568,0.8568,0.8568,0.8568,0.8568,0.8388,0.7856,0.7408,0.7143,0.7143,0.7143,0.7143,0.7143,0.7143,0.7408,0.7852,0.7852,0.812,0.8568,0.8568,0.8568,0.8568,0.8568,0.8568,0.8568,0.8568,0.8568,0.8568,0.8568,0.8568,0.8568,0.8568,0.8621,0.8706,0.8787,0.8934,0.9112,-2.0819,-2.0496,-2.0499,-2.1265,-2.0997,-2.0744,-2.0962,-2.1089,-2.1141,-2.1078,-2.0926,-2.0812,-2.0812,-2.0554,-2.0336,-2.027,-2.03,-1.9878,-1.8839,-1.8485,-1.7437,-1.5493,-1.4942,-1.3587,-1.1295,-1.1037,-0.9826,-0.7749,-0.7316,-0.67,-0.5997,-0.5822,-0.5733,-0.5733,-0.5733,-0.5819,-0.6083,-0.6083,-0.6169,-0.6254,-0.5099,-0.4117,-0.3135,-0.2151,-0.1166,-0.018,0.0179,0.0628,0.0987,0.0987,0.1076,0.1256,0.1345,0.1435,0.1793,0.2689,0.3669,0.4825,0.6062,0.7041,0.7933,0.8384,0.8476,0.8564,0.0,0.0,0.0,0.8568,0.8568,0.8568,0.8568,0.8568,0.8568,0.8568,0.8568,0.8556,0.8519,0.8544,0.8568,0.8568,0.8568,0.8568,0.8568,0.8568,0.8568,0.8568,0.8568,0.8568,0.8568,0.8568,0.8568,0.8568,0.8568,0.8568,0.8568,0.8656,0.8652,0.8652,0.8744,0.874,0.874,0.874,0.874,0.874,0.874,0.874,0.874,0.874,0.874,0.874,0.8656,0.8568,0.8584,0.8723,0.8792,0.8861,-2.1995,-2.1168,-2.1296,-2.3301,-2.2186,-2.1354,-2.2347,-2.2932,-2.3386,-2.38,-2.3649,-2.3479,-2.3479,-2.2775,-2.232,-2.2105,-2.1919,-2.1581,-2.1042,-1.9832,-1.8831,-1.8152,-1.6487,-1.4511,-1.2213,-1.1958,-1.0854,-0.8715,-0.7665,-0.7051,-0.6966,-0.6086,-0.5733,-0.5733,-0.5733,-0.5819,-0.6083,-0.6083,-0.6083,-0.6083,-0.5994,-0.5275,-0.4291,-0.3398,-0.2238,-0.1166,-0.0269,0.0269,0.0448,0.0448,0.0628,0.0807,0.1076,0.1703,0.2418,0.2777,0.3669,0.4825,0.5891,0.6331,0.6861,0.776,0.8116,0.8288,0.8288,0.0,0.8568,0.8568,0.0,0.8568,0.8568,0.0,0.0,0.8568,0.8568,0.8511,0.8345,0.8463,0.8568,0.8568,0.8568,0.8568,0.8568,0.8568,0.8568,0.8568,0.8568,0.8568,0.8568,0.8568,0.8568,0.8568,0.8568,0.8568,0.8568,0.874,0.8823,0.8911,0.9087,0.9262,0.9262,0.9262,0.9262,0.9262,0.9262,0.9262,0.9262,0.9262,0.9262,0.9174,0.874,0.8568,0.8568,0.8589,0.869,0.8824,-2.3646,-2.3245,-2.336,-2.4506,-2.4041,-2.3618,-2.4008,-2.4137,-2.4297,-2.4483,-2.4315,-2.4128,-2.4128,-2.375,-2.3378,-2.3248,-2.3072,-2.2708,-2.2265,-2.1502,-2.0338,-1.8708,-1.784,-1.6137,-1.3341,-1.3087,-1.2066,-1.0096,-0.9323,-0.8364,-0.7312,-0.6789,-0.626,-0.5908,-0.5733,-0.5908,-0.6254,-0.6254,-0.6346,-0.6526,-0.6526,-0.6169,-0.5539,-0.4293,-0.2865,-0.1345,-0.0987,-0.0269,0.0359,0.0359,0.0538,0.0718,0.0987,0.1345,0.1882,0.2688,0.3224,0.3935,0.5625,0.6157,0.6511,0.7584,0.794,0.8028,0.8028,0.8039,0.8056,0.8056,0.0,0.0,0.0,0.0,0.0,0.0,0.8568,0.8503,0.8316,0.8357,0.8406,0.8406,0.8503,0.8568,0.8568,0.8568,0.8568,0.8568,0.874,0.874,0.874,0.8915,0.8999,0.8999,0.8999,0.8999,0.8999,0.9087,0.9174,0.9174,0.9257,0.9262,0.9262,0.9262,0.9262,0.9262,0.9262,0.9262,0.9262,0.9262,0.9262,0.9262,0.9087,0.8999,0.8999,0.8999,0.905,0.9127,-2.5944,-2.5137,-2.4724,-2.5424,-2.5135,-2.4792,-2.5025,-2.4996,-2.5036,-2.5148,-2.4973,-2.4807,-2.4749,-2.4794,-2.4654,-2.433,-2.4379,-2.4068,-2.3416,-2.3021,-2.1723,-1.9496,-1.9122,-1.7688,-1.4873,-1.4287,-1.3269,-1.1729,-1.0794,-0.9671,-0.8356,-0.7921,-0.7397,-0.6956,-0.6435,-0.6432,-0.6779,-0.6609,-0.6612,-0.6704,-0.6792,-0.6615,-0.6166,-0.4832,-0.3403,-0.2152,-0.1614,-0.0807,-0.009,0.0179,0.0359,0.0538,0.0807,0.0983,0.1156,0.2133,0.239,0.2905,0.4741,0.5177,0.5526,0.693,0.7281,0.7371,0.7631,0.7625,0.7535,0.7535,0.7535,0.0,0.0,0.0,0.8147,0.8414,0.0,0.841,0.8178,0.8227,0.8272,0.8219,0.8377,0.8511,0.8564,0.8568,0.8656,0.8652,0.8828,0.8911,0.8999,0.9174,0.9262,0.9262,0.9262,0.9262,0.9262,0.9345,0.9345,0.9345,0.9432,0.9519,0.9519,0.9519,0.9519,0.9519,0.9519,0.9519,0.9519,0.9519,0.9519,0.9519,0.9519,0.9519,0.9432,0.9349,0.9262,0.9279,-2.91,-2.6284,-2.4441,-2.6175,-2.492,-2.3955,-2.4972,-2.535,-2.5783,-2.6336,-2.6246,-2.6095,-2.598,-2.6422,-2.6349,-2.5548,-2.597,-2.5881,-2.4838,-2.3975,-2.2829,-2.1354,-2.0353,-1.8939,-1.6952,-1.5621,-1.4538,-1.362,-1.1558,-1.0524,-1.0524,-0.9561,-0.9126,-0.9039,-0.8177,-0.7746,-0.7746,-0.7054,-0.6612,-0.6432,-0.6704,-0.6526,-0.5994,-0.4746,-0.4297,-0.3941,-0.2061,-0.1345,-0.1166,-0.0269,0.0,0.009,0.0359,0.0531,0.0784,0.0959,0.1202,0.1603,0.2608,0.2943,0.3362,0.5116,0.5705,0.6124,0.6957,0.7292,0.7375,0.7375,0.7375,0.7458,0.7698,0.7702,0.7789,0.795,0.8182,0.0,0.0,0.8073,0.8223,0.8044,0.8187,0.8369,0.8552,0.8568,0.8652,0.8911,0.8911,0.8999,0.9262,0.9262,0.9262,0.9262,0.9262,0.9262,0.9262,0.9519,0.9602,0.9602,0.9864,0.9951,0.9951,0.9951,0.9951,0.9951,0.9951,0.9951,0.9951,0.9951,0.9951,0.9951,0.9951,0.9951,0.9951,0.9432,0.9262,0.9345,-2.939,-2.8372,-2.7546,-2.7575,-2.6769,-2.617,-2.635,-2.6462,-2.6539,-2.651,-2.6375,-2.6343,-2.6637,-2.6754,-2.6843,-2.6876,-2.6661,-2.6257,-2.5697,-2.4814,-2.3548,-2.1659,-2.1038,-1.9543,-1.7033,-1.6453,-1.5372,-1.3873,-1.3099,-1.2072,-1.0869,-1.0346,-0.9913,-0.9483,-0.8956,-0.8348,-0.7834,-0.7749,-0.7221,-0.6432,-0.6704,-0.6615,-0.6254,-0.5725,-0.5013,-0.421,-0.3583,-0.2486,-0.1317,-0.1055,-0.0523,0.0086,0.0344,0.0428,0.0596,0.0937,0.1017,0.1347,0.2519,0.3188,0.394,0.5191,0.5945,0.645,0.6781,0.6784,0.6796,0.6796,0.6796,0.6877,0.7277,0.7371,0.7612,0.7934,0.8065,0.8065,0.0,0.7935,0.7918,0.7854,0.8109,0.8398,0.8545,0.8752,0.8915,0.9174,0.9257,0.9432,0.9519,0.9689,0.9781,0.9781,0.9781,0.9781,0.9781,0.9864,0.9864,0.9864,0.9951,1.0038,1.0038,1.0038,1.0038,1.0038,1.0038,1.0038,1.0038,1.0038,1.0038,1.0038,1.0038,1.0038,0.9951,0.9864,0.9781,0.98,-3.0064,-2.9848,-2.9451,-2.867,-2.8174,-2.7784,-2.7394,-2.746,-2.7408,-2.6953,-2.6759,-2.6683,-2.6718,-2.6792,-2.6984,-2.7257,-2.7063,-2.6557,-2.5803,-2.5344,-2.4051,-2.1582,-2.1253,-2.01,-1.77,-1.7115,-1.6041,-1.4468,-1.4041,-1.3021,-1.1569,-1.1391,-1.1139,-1.0707,-1.0178,-0.9309,-0.8265,-0.8265,-0.7478,-0.6432,-0.6789,-0.6757,-0.6449,-0.6364,-0.575,-0.4956,-0.4601,-0.358,-0.2316,-0.1715,-0.102,-0.0337,0.0084,0.0335,0.0416,0.0666,0.0827,0.1151,0.1887,0.2786,0.3685,0.4661,0.5476,0.6215,0.6461,0.6468,0.6476,0.6551,0.6476,0.6555,0.7029,0.7198,0.7346,0.7745,0.7878,0.7923,0.0,0.7772,0.7741,0.7824,0.8143,0.8388,0.862,0.8884,0.9174,0.9345,0.9515,0.9602,0.9777,0.9864,1.0038,1.0038,1.0038,1.0038,1.0038,1.0038,1.0038,1.0038,1.0038,1.0038,1.0038,1.0038,1.0038,1.0038,1.0038,1.0038,1.0038,1.0038,1.0038,1.0038,1.0038,1.0038,1.0038,1.0038,1.0038,1.0057,-3.1078,-3.0658,-3.0107,-2.9419,-2.9104,-2.8715,-2.8039,-2.828,-2.8304,-2.7784,-2.7485,-2.7071,-2.6422,-2.6747,-2.6945,-2.6788,-2.7236,-2.6852,-2.5239,-2.5505,-2.4343,-2.1282,-2.1292,-2.0605,-1.878,-1.7602,-1.6527,-1.5394,-1.4448,-1.3613,-1.2705,-1.2705,-1.2705,-1.2619,-1.1757,-1.0529,-0.9213,-0.8524,-0.7562,-0.6419,-0.6953,-0.6867,-0.6566,-0.6566,-0.6478,-0.6132,-0.5185,-0.4605,-0.3934,-0.2343,-0.159,-0.1173,-0.0336,0.0083,0.0325,0.0325,0.056,0.0864,0.0864,0.1649,0.2666,0.3599,0.4377,0.5237,0.6103,0.6338,0.6335,0.6563,0.6412,0.6493,0.703,0.7022,0.7019,0.7407,0.7638,0.7836,0.7748,0.7602,0.7573,0.7804,0.8133,0.8508,0.8594,0.9052,0.9432,0.9602,0.9602,0.9689,0.9951,1.0038,1.0038,1.0038,1.0038,1.0038,1.0038,1.0038,1.0038,1.0038,1.0038,1.0038,1.0038,1.0038,1.0038,1.0038,1.0038,1.0038,1.0038,1.0038,1.0038,1.0038,1.0038,1.0038,1.0038,1.0038,1.0038,1.0038,-3.1213,-3.0975,-3.074,-3.0493,-2.9717,-2.9025,-2.8699,-2.8639,-2.8543,-2.8192,-2.7815,-2.7556,-2.7414,-2.7345,-2.7385,-2.753,-2.716,-2.6667,-2.605,-2.5485,-2.4435,-2.2761,-2.1899,-2.0827,-1.9599,-1.8303,-1.6862,-1.5394,-1.49,-1.3904,-1.2705,-1.2705,-1.2705,-1.2705,-1.2443,-1.1311,-0.9488,-0.9488,-0.8459,-0.681,-0.6897,-0.6806,-0.6672,-0.6672,-0.6602,-0.6358,-0.588,-0.5165,-0.441,-0.4001,-0.2828,-0.1517,-0.1278,-0.0637,0.0079,0.0238,0.0395,0.055,0.0786,0.1569,0.2508,0.3519,0.4377,0.5237,0.6103,0.6338,0.6338,0.6338,0.649,0.6563,0.6718,0.6949,0.718,0.7257,0.7564,0.7711,0.7573,0.763,0.7721,0.7821,0.8289,0.8699,0.8908,0.9312,0.9602,0.9864,0.9864,0.9951,1.0038,1.0038,1.0038,1.0038,1.0038,1.0038,1.0038,1.0038,1.0038,1.0038,1.0038,1.0038,1.0038,1.0038,1.0038,1.0038,1.0038,1.0038,1.0038,1.0038,1.0038,1.0038,1.0038,1.0038,1.0038,1.0038,1.0038,1.0038,-3.1269,-3.1151,-3.1072,-3.0912,-3.0309,-2.9777,-2.9589,-2.9438,-2.9212,-2.8795,-2.8463,-2.8115,-2.7765,-2.7389,-2.7288,-2.7627,-2.7095,-2.6451,-2.5636,-2.5469,-2.4538,-2.2684,-2.1902,-2.1058,-1.9904,-1.8777,-1.7257,-1.5394,-1.5204,-1.4213,-1.2705,-1.2705,-1.2705,-1.2705,-1.2705,-1.1746,-1.0178,-0.9397,-0.8451,-0.7343,-0.6939,-0.6736,0.0,-0.66,-0.6508,-0.639,-0.6234,-0.5725,-0.5099,-0.478,-0.3793,-0.2584,-0.1802,-0.1098,-0.0471,0.0,0.0236,0.0314,0.055,0.1334,0.2273,0.2898,0.3675,0.4453,0.5082,0.5473,0.5786,0.5864,0.6173,0.6567,0.6795,0.6949,0.7099,0.7334,0.7496,0.7602,0.7496,0.7573,0.768,0.7816,0.8291,0.8666,0.8996,0.945,0.9864,0.9951,1.0038,1.0038,1.0038,1.0038,1.0038,1.0038,1.0038,1.0038,1.0038,1.0038,1.0038,1.0038,1.0038,1.0038,1.0038,1.0038,1.0038,1.0038,1.0038,1.0038,1.0038,1.0038,1.0038,1.0038,1.0038,1.0207,1.0554,1.0554,1.0294,1.0033,-3.1269,-3.119,-3.1151,-3.0952,-3.079,-3.0609,-3.0417,-3.0274,-2.9973,-2.9486,-2.9152,-2.8701,-2.7929,-2.7363,-2.712,-2.7328,-2.7001,-2.6169,-2.4749,-2.5358,-2.4583,-2.1954,-2.188,-2.1283,-1.9974,-1.9219,-1.7705,-1.5493,-1.5374,-1.4455,-1.282,-1.2735,-1.2674,-1.2705,-1.2705,-1.1986,-1.0732,-0.8845,-0.7912,-0.7774,-0.6968,-0.658,-0.6444,-0.6444,-0.6369,-0.6338,-0.6338,-0.618,-0.5864,-0.5157,-0.4611,-0.391,-0.227,-0.1567,-0.1176,-0.0235,0.0157,0.0236,0.0314,0.0942,0.1803,0.2117,0.274,0.3361,0.3752,0.4377,0.4924,0.5074,0.5702,0.6331,0.6872,0.6945,0.7096,0.7407,0.7484,0.7484,0.7484,0.7561,0.7642,0.7804,0.8195,0.0,0.8982,0.9597,0.9923,1.0038,1.0038,1.0038,1.0038,1.0038,1.0038,1.0038,1.0038,1.0038,1.0038,1.0038,1.0038,1.0038,1.0038,1.0038,1.0038,1.0038,1.0038,1.0038,1.0038,1.0038,1.0038,1.0038,1.0038,1.0038,1.0125,1.0641,1.1322,1.1494,1.1063,1.0549,-3.1269,-3.119,-3.1151,-3.0952,-3.079,-3.0609,-3.0274,-3.0103,-3.0017,-2.9886,-2.9605,-2.9182,-2.8764,-2.8222,-2.766,-2.7062,-2.6722,-2.5925,-2.4468,-2.4489,-2.3949,-2.2582,-2.2286,-2.1555,-2.0357,-1.9602,-1.8211,-1.6254,-1.511,-1.4243,-1.3599,-1.2787,-1.2493,-1.2705,-1.2705,-1.164,-0.9846,-0.8709,-0.7689,-0.6789,-0.6603,-0.6427,-0.6298,-0.6298,-0.6281,-0.6338,-0.6338,-0.6261,-0.618,-0.6099,-0.5392,-0.4375,-0.3203,-0.2268,-0.1333,-0.0314,0.0,0.0079,0.0236,0.0471,0.0863,0.196,0.2273,0.2663,0.3599,0.3908,0.3986,0.4064,0.4841,0.5541,0.5619,0.6475,0.7257,0.7484,0.7484,0.7484,0.7484,0.7642,0.7799,0.8025,0.8434,0.8786,0.9222,0.9466,0.9771,1.0024,1.0038,1.0038,1.0038,1.0038,1.0038,1.0038,1.0038,1.0038,1.0038,1.0038,1.0038,1.0038,1.0038,1.0038,1.0038,1.0038,1.0038,1.0038,1.0038,1.0038,1.0038,1.0038,1.0038,1.0038,1.0809,1.1154,1.1408,1.2339,1.2589,1.2504,-3.123,-3.119,-3.1151,-3.0952,-3.0733,-3.0526,-3.0231,-3.0076,-2.9946,-2.9946,-2.971,-2.938,-2.9013,-2.8271,-2.7565,-2.7056,-2.651,-2.5702,-2.4472,-2.4339,-2.3829,-2.2857,-2.2181,-2.1378,-2.0275,-1.9383,-1.8028,-1.6276,-1.5118,-1.4266,-1.354,-1.2668,-1.2334,-1.2499,-1.1989,-1.1088,-0.9945,-0.8357,-0.7489,-0.7016,-0.6462,-0.624,-0.6338,-0.6338,-0.6338,-0.6338,-0.6338,-0.6338,-0.6338,-0.6338,-0.5864,-0.5079,-0.3591,-0.2659,-0.1958,-0.0471,0.0,0.0,0.0157,0.0157,0.0314,0.102,0.1256,0.1568,0.2116,0.2741,0.3132,0.3132,0.3832,0.4608,0.4766,0.5857,0.671,0.6784,0.7173,0.7484,0.7484,0.7565,0.7723,0.7953,0.819,0.8553,0.8912,0.9274,0.9611,1.0014,1.0038,1.0038,1.0038,1.0038,1.0038,1.0038,1.0038,1.0038,1.0038,1.0038,1.0038,1.0038,1.0038,1.0038,1.0038,1.0038,1.0038,1.0038,1.0038,1.0038,1.0038,1.0207,1.0549,1.0971,1.158,1.2345,1.3099,1.3691,1.4203,1.4545,-3.1151,-3.1151,-3.1055,-3.0773,-3.0468,-3.0199,-2.9897,-2.9694,-2.9621,-2.9874,-2.9576,-2.9289,-2.9075,-2.8125,-2.7363,-2.7056,-2.6404,-2.5536,-2.4381,-2.4201,-2.3654,-2.2583,-2.1958,-2.1038,-1.9961,-1.9189,-1.8009,-1.6288,-1.5165,-1.4248,-1.362,-1.2621,-1.2055,-1.1899,-1.1145,-1.0429,-0.9787,-0.8028,-0.7315,-0.7194,-0.6295,-0.6099,-0.6257,-0.6261,-0.6338,-0.6261,-0.6257,-0.618,-0.618,-0.5944,-0.5786,-0.5392,-0.3669,-0.2893,-0.2271,-0.0549,0.0,0.0,0.0,0.0,0.0079,0.0236,0.0393,0.0628,0.0864,0.157,0.2196,0.2198,0.2976,0.3754,0.4304,0.5234,0.5928,0.5931,0.663,0.7249,0.7249,0.7407,0.7642,0.7876,0.803,0.8331,0.8695,0.9128,0.9478,0.9856,0.9927,1.0038,1.0038,1.0038,1.0038,1.0038,1.0038,1.0038,1.0038,1.0038,1.0038,1.0038,1.0038,1.0038,1.0038,1.0038,1.0038,1.0038,1.0125,1.0207,1.0294,1.0809,1.1316,1.1906,1.2516,1.3613,1.4706,1.4956,1.556,1.6079,-3.1015,-3.1015,-3.0797,-3.0182,-2.9865,-2.9496,-2.8919,-2.8638,-2.8795,-2.977,-2.9335,-2.8951,-2.8904,-2.8061,-2.7363,-2.6953,-2.6602,-2.5645,-2.3715,-2.3577,-2.2896,-2.1418,-2.1655,-2.1096,-1.9432,-1.9585,-1.8735,-1.6817,-1.5115,-1.4298,-1.4283,-1.2626,-1.1461,-1.0816,-1.073,-0.9712,-0.8083,-0.7907,-0.7179,-0.6035,-0.6183,-0.6103,-0.5941,-0.618,-0.6338,-0.6261,-0.6022,-0.5941,-0.5783,-0.4919,-0.4766,-0.4846,-0.3515,-0.2581,-0.1725,-0.0392,0.0,0.0,0.0,0.0,0.0079,0.0236,0.0314,0.0393,0.0786,0.0943,0.11,0.1335,0.2195,0.3209,0.4226,0.4613,0.4921,0.5079,0.5777,0.6318,0.6318,0.7176,0.7876,0.803,0.8255,0.8562,0.8927,0.9204,0.9422,0.9658,0.9847,1.0038,1.0038,1.0038,1.0038,1.0038,1.0038,1.0038,1.0038,1.0038,1.0038,1.0038,1.0038,1.0038,1.0038,1.0038,1.0038,1.0038,1.0381,1.0809,1.1241,1.1837,1.218,1.2345,1.386,1.4531,1.4789,1.5884,1.6312,1.6394,-3.0518,-3.0435,-3.0251,-2.9629,-2.9406,-2.915,-2.8779,-2.8543,-2.8559,-2.8889,-2.8543,-2.8255,-2.8174,-2.7479,-2.6916,-2.6654,-2.6014,-2.5133,-2.4034,-2.3314,-2.2531,-2.1639,-2.1138,-2.0325,-1.9168,-1.8646,-1.782,-1.6705,-1.4896,-1.4028,-1.394,-1.2315,-1.1252,-1.0738,-0.9701,-0.869,-0.7806,-0.6645,-0.5914,-0.5553,-0.5634,-0.5712,-0.5712,-0.587,-0.587,-0.587,-0.5864,-0.5547,-0.4919,-0.4686,-0.4608,-0.4375,-0.2737,-0.1958,-0.1489,-0.0314,0.0,0.0,0.0,0.0,0.0,0.0079,0.0236,0.0393,0.0629,0.0786,0.0943,0.1257,0.1805,0.2354,0.2824,0.36,0.4219,0.43,0.4921,0.5622,0.6163,0.6553,0.7099,0.7799,0.8102,0.8363,0.8594,0.9049,0.936,0.9445,0.9762,1.0038,1.0038,1.0038,1.0038,1.0038,1.0038,1.0038,1.0038,1.0038,1.0038,1.0038,1.0554,1.0809,1.0809,1.1068,1.1241,1.1413,1.1997,1.2339,1.251,1.3112,1.3535,1.4035,1.4963,1.5553,1.5974,1.6394,1.6566,1.6566,-3.0166,-2.9935,-2.9657,-2.9057,-2.8857,-2.8638,-2.8304,-2.8125,-2.7978,-2.7879,-2.75,-2.7297,-2.7515,-2.6707,-2.6136,-2.6082,-2.5189,-2.4408,-2.3872,-2.3027,-2.2298,-2.1702,-2.0677,-1.977,-1.9044,-1.7949,-1.7001,-1.6184,-1.4617,-1.368,-1.3317,-1.1996,-1.0956,-1.0143,-0.8845,-0.7892,-0.7157,-0.5783,-0.5246,-0.5321,-0.5398,-0.5401,-0.5479,-0.5559,-0.5637,-0.5559,-0.5395,-0.4921,-0.4219,-0.3828,-0.3595,-0.3281,-0.2036,-0.1411,-0.102,-0.0236,0.0,0.0,0.0,0.0,0.0,0.0,0.0079,0.0314,0.055,0.0707,0.0943,0.1257,0.1572,0.1808,0.1887,0.2666,0.3365,0.3443,0.4144,0.4846,0.5386,0.5931,0.6475,0.733,0.7795,0.8106,0.8403,0.8871,0.918,0.9318,0.9658,0.9889,1.0038,1.0038,1.0038,1.0038,1.0038,1.0038,1.0038,1.0038,1.0038,1.0038,1.0977,1.1402,1.1402,1.2089,1.2522,1.2863,1.3275,1.3613,1.3782,1.4294,1.4796,1.5296,1.5816,1.6319,1.673,1.673,1.673,1.673,-3.0123,-2.9613,-2.9011,-2.8432,-2.8094,-2.778,-2.7269,-2.6974,-2.6832,-2.6832,-2.6136,-2.6,-2.7019,-2.5851,-2.5005,-2.5005,-2.4279,-2.3492,-2.2652,-2.2482,-2.2075,-2.1221,-2.0495,-1.977,-1.9044,-1.7949,-1.6645,-1.5204,-1.4266,-1.3397,-1.2599,-1.1781,-1.0432,-0.8699,-0.8466,-0.7468,-0.5941,-0.5712,-0.5479,-0.5321,-0.5479,-0.5479,-0.5321,-0.5559,-0.5637,-0.5482,-0.446,-0.4146,-0.3832,-0.1957,-0.1332,-0.1332,-0.1568,-0.102,-0.0236,-0.0079,0.0,0.0,0.0,0.0,0.0,0.0,0.0,0.0079,0.0471,0.0628,0.0707,0.1178,0.1493,0.165,0.1887,0.2041,0.2275,0.251,0.321,0.383,0.383,0.5231,0.6314,0.6465,0.7249,0.7953,0.8327,0.8595,0.8875,0.9308,0.9526,0.9738,1.0028,1.0038,1.0038,1.0038,1.0038,1.0038,1.0038,1.0038,1.0038,1.0038,1.1139,1.1729,1.1729,1.2845,1.3529,1.3957,1.3957,1.4216,1.4734,1.5401,1.565,1.5733,1.6402,1.6648,1.673,1.673,1.673,1.673,-2.91,-2.8857,-2.8543,-2.7944,-2.766,-2.7357,-2.6669,-2.6457,-2.6136,-2.5632,-2.5133,-2.4951,-2.5273,-2.4851,-2.4465,-2.4337,-2.3623,-2.3027,-2.2665,-2.2063,-2.1313,-2.0495,-1.977,-1.8977,-1.8104,-1.7148,-1.6114,-1.4982,-1.4042,-1.2872,-1.1558,-1.0576,-0.9825,-0.9074,-0.7778,-0.6784,-0.6089,-0.5479,-0.5171,-0.5093,-0.5171,-0.5171,-0.5093,-0.5171,-0.4854,-0.438,-0.4146,-0.3287,-0.2113,-0.1646,-0.1019,-0.0392,-0.0471,-0.0314,-0.0079,0.0,0.0,0.0,0.0,0.0,0.0,0.0,0.0,0.0079,0.0471,0.0864,0.11,0.1257,0.1493,0.165,0.1887,0.2042,0.2275,0.2431,0.2743,0.3132,0.3752,0.4219,0.4996,0.616,0.6784,0.7484,0.8102,0.859,0.903,0.9308,0.9526,0.9734,1.0028,1.0038,1.0038,1.0038,1.0038,1.0038,1.0038,1.0038,1.0376,1.1139,1.2163,1.3184,1.428,1.5039,1.5304,1.5144,1.5643,1.5891,1.6072,1.6319,1.6402,1.6402,1.6648,1.673,1.673,1.673,1.673,1.673,-2.7566,-2.7337,-2.7091,-2.6718,-2.6614,-2.651,-2.6014,-2.5783,-2.5508,-2.4937,-2.4439,-2.4034,-2.3702,-2.3301,-2.3255,-2.3564,-2.2859,-2.2261,-2.1791,-2.1239,-2.0549,-1.9704,-1.8967,-1.8307,-1.7706,-1.6533,-1.5409,-1.4466,-1.3157,-1.1842,-1.0501,-0.9825,-0.9069,-0.8309,-0.7088,-0.6321,-0.5857,-0.5246,-0.5018,-0.4937,-0.4698,-0.4543,-0.454,-0.4151,-0.3756,-0.3285,-0.3129,-0.227,-0.1254,-0.1097,-0.0549,0.0,0.0,0.0,0.0,0.0,0.0,0.0,0.0,0.0,0.0,0.0,0.0,0.0079,0.0471,0.0943,0.1335,0.1335,0.1493,0.165,0.1887,0.2042,0.2275,0.2431,0.2511,0.2666,0.321,0.3599,0.4297,0.5622,0.6318,0.7092,0.8025,0.8522,0.8913,0.9195,0.9408,0.9615,0.9823,0.9908,1.0038,1.0038,1.0038,1.0038,1.0038,1.0463,1.0971,1.1729,1.3093,1.4538,1.5899,1.6312,1.6312,1.6064,1.6484,1.673,1.673,1.673,1.673,1.673,1.673,1.673,1.673,1.673,1.673,1.673,-2.5758,-2.5345,-2.492,-2.4976,-2.5173,-2.5356,-2.5273,-2.5063,-2.4768,-2.4584,-2.3891,-2.3122,-2.2286,-2.153,-2.1502,-2.2616,-2.1975,-2.1233,-2.0431,-2.0161,-1.9704,-1.8977,-1.8297,-1.7755,-1.7501,-1.5965,-1.4617,-1.36,-1.1694,-1.0432,-0.9593,-0.9372,-0.8385,-0.6861,-0.6546,-0.6009,-0.5243,-0.5012,-0.4937,-0.4859,-0.4068,-0.3675,-0.3597,-0.2817,-0.2503,-0.2348,-0.1567,-0.1254,-0.1097,-0.0235,0.0,0.0,0.0,0.0,0.0,0.0,0.0,0.0,0.0,0.0,0.0,0.0,0.0,0.0157,0.055,0.0943,0.1335,0.1335,0.1493,0.165,0.1887,0.2042,0.2275,0.2431,0.2511,0.2511,0.2511,0.321,0.4064,0.4924,0.5848,0.6853,0.8025,0.8327,0.8562,0.9011,0.9209,0.9417,0.955,0.9838,1.0038,1.0038,1.0038,1.0038,1.0125,1.1139,1.1815,1.1986,1.4105,1.5636,1.673,1.673,1.673,1.673,1.673,1.673,1.673,1.673,1.673,1.673,1.673,1.673,1.673,1.673,1.673,1.673,-2.4934,-2.4681,-2.4436,-2.4401,-2.4569,-2.4614,-2.4244,-2.3774,-2.342,-2.3352,-2.2163,-2.1404,-2.1616,-2.0858,-2.042,-2.0537,-2.0279,-2.0031,-1.9824,-1.9431,-1.8967,-1.824,-1.7522,-1.6697,-1.5824,-1.4832,-1.3753,-1.2666,-1.1558,-1.0507,-0.9593,-0.8912,-0.7918,-0.6546,-0.5854,-0.5398,-0.5015,-0.4382,-0.4068,-0.3988,-0.3129,-0.2817,-0.2815,-0.2581,-0.2113,-0.1567,-0.1332,-0.0862,-0.0314,-0.0079,0.0,0.0,0.0,0.0,0.0,0.0,0.0,0.0,0.0,0.0,0.0,0.0,0.0236,0.055,0.0786,0.11,0.1335,0.1335,0.1493,0.165,0.1887,0.2042,0.2275,0.2431,0.2511,0.2511,0.2511,0.2666,0.3444,0.5074,0.5613,0.6461,0.8174,0.8475,0.8716,0.9011,0.9209,0.9417,0.955,0.9838,1.0038,1.0038,1.0038,1.0463,1.1311,1.1563,1.2583,1.4273,1.5628,1.6476,1.673,1.673,1.673,1.673,1.673,1.673,1.673,1.673,1.673,1.673,1.673,1.673,1.673,1.673,1.673,1.673,-2.3124,-2.2775,-2.2457,-2.2444,-2.2711,-2.2884,-2.2589,-2.2311,-2.2027,-2.1877,-2.1101,-2.0526,-2.0344,-1.9824,-1.9299,-1.8911,-1.9299,-1.9431,-1.8967,-1.8335,-1.7736,-1.7001,-1.6131,-1.5359,-1.4697,-1.3818,-1.2645,-1.1186,-1.0582,-0.9599,-0.838,-0.7693,-0.6853,-0.578,-0.5321,-0.4932,-0.4462,-0.3988,-0.3597,-0.3127,-0.227,-0.1957,-0.1879,-0.1488,-0.1097,-0.0706,-0.0706,-0.0392,0.0,0.0,0.0235,0.0628,0.0628,0.0862,0.1176,0.1176,0.0628,0.0,0.0,0.0079,0.0157,0.0236,0.0471,0.0786,0.0864,0.11,0.1335,0.1335,0.1493,0.165,0.1887,0.2042,0.2275,0.2431,0.2821,0.3132,0.3132,0.3444,0.4222,0.5693,0.6079,0.6773,0.8246,0.8551,0.8751,0.8869,0.9067,0.928,0.9488,0.9865,1.011,1.0038,1.0381,1.0977,1.1729,1.2668,1.4105,1.5801,1.6394,1.673,1.673,1.673,1.673,1.673,1.673,1.673,1.673,1.673,1.673,1.673,1.673,1.673,1.673,1.673,1.673,1.673,-2.1037,-2.0566,-2.0121,-2.0031,-2.0447,-2.0818,-2.0708,-2.0643,-2.0526,-2.0311,-2.0041,-1.9596,-1.8757,-1.8422,-1.8017,-1.7423,-1.8277,-1.8613,-1.7901,-1.7111,-1.6341,-1.5613,-1.4673,-1.4027,-1.3818,-1.2712,-1.1391,-0.9841,-0.9377,-0.8385,-0.6861,-0.6395,-0.5783,-0.5018,-0.4859,-0.4462,-0.3752,-0.3519,-0.2971,-0.227,-0.141,-0.1097,-0.1019,-0.0235,0.0,0.0079,0.0157,0.0157,0.0235,0.0314,0.0862,0.1488,0.1488,0.1957,0.2582,0.2581,0.1566,0.0392,0.0235,0.0236,0.0393,0.055,0.0786,0.0943,0.0943,0.11,0.1335,0.1335,0.1493,0.1729,0.1887,0.212,0.2275,0.251,0.321,0.383,0.383,0.4533,0.5464,0.6546,0.6857,0.7326,0.8322,0.8627,0.8703,0.8703,0.8902,0.911,0.9394,0.9942,1.0329,1.0376,1.1068,1.166,1.2157,1.4189,1.5718,1.673,1.673,1.673,1.673,1.673,1.673,1.673,1.673,1.673,1.673,1.673,1.673,1.673,1.673,1.673,1.673,1.673,1.673,1.673,-2.0042,-1.977,-1.9347,-1.8803,-1.924,-1.9445,-1.8932,-1.8606,-1.8552,-1.8843,-1.7658,-1.6817,-1.7083,-1.648,-1.5948,-1.5877,-1.5737,-1.5807,-1.6315,-1.6105,-1.5534,-1.4593,-1.381,-1.323,-1.2865,-1.1174,-1.0137,-0.9674,-0.8912,-0.7846,-0.6542,-0.6465,-0.5931,-0.4937,-0.4304,-0.391,-0.3675,-0.227,-0.1644,-0.141,-0.0549,-0.0078,0.0079,0.0,0.0079,0.0314,0.0863,0.1097,0.1176,0.1879,0.219,0.2348,0.2504,0.266,0.2817,0.2969,0.2812,0.2423,0.1409,0.0706,0.0393,0.0786,0.0864,0.0943,0.1178,0.1257,0.1335,0.1335,0.1572,0.1887,0.1887,0.2199,0.2431,0.2511,0.321,0.383,0.383,0.4608,0.5616,0.6707,0.7011,0.7548,0.8551,0.8703,0.8703,0.8703,0.8902,0.9269,0.9877,1.0191,1.0837,1.1918,1.2095,1.2936,1.4448,1.5801,1.6484,1.673,1.673,1.673,1.673,1.673,1.673,1.673,1.673,1.673,1.673,1.673,1.673,1.673,1.673,1.673,1.673,1.673,1.673,1.673,-1.8967,-1.8286,-1.7656,-1.7316,-1.7717,-1.7966,-1.7622,-1.7444,-1.7375,-1.7493,-1.6609,-1.6,-1.607,-1.5666,-1.5108,-1.4569,-1.4283,-1.3852,-1.3317,-1.4076,-1.4322,-1.3738,-1.2872,-1.199,-1.1174,-0.9906,-0.9003,-0.8466,-0.7851,-0.7088,-0.6012,-0.5783,-0.5237,-0.4304,-0.3988,-0.3285,-0.2426,-0.1644,-0.1019,-0.0549,-0.0157,0.0392,0.102,0.0863,0.1254,0.1878,0.2189,0.2267,0.2345,0.2735,0.3125,0.3515,0.3595,0.3988,0.4304,0.4457,0.3828,0.2968,0.2581,0.188,0.1412,0.1727,0.1413,0.1178,0.1257,0.1335,0.1335,0.1415,0.1729,0.1964,0.2042,0.2276,0.2666,0.3132,0.391,0.4611,0.4996,0.6005,0.6861,0.748,0.771,0.8089,0.8623,0.8703,0.8703,0.8703,0.8793,0.9247,1.0253,1.0735,1.1793,1.3457,1.3703,1.4371,1.5718,1.6394,1.673,1.673,1.673,1.673,1.673,1.673,1.673,1.673,1.673,1.673,1.673,1.673,1.673,1.673,1.673,1.673,1.673,1.673,1.673,1.673,-1.7763,-1.6824,-1.5938,-1.5766,-1.5936,-1.604,-1.588,-1.5838,-1.5765,-1.5658,-1.5296,-1.4863,-1.4522,-1.4314,-1.3867,-1.2954,-1.267,-1.2091,-1.0828,-1.1883,-1.2492,-1.2271,-1.1465,-1.0582,-0.9614,-0.8856,-0.8093,-0.7326,-0.6865,-0.6173,-0.5482,-0.4935,-0.4384,-0.3752,-0.3363,-0.2503,-0.1254,-0.1097,-0.0549,0.0079,0.0314,0.0941,0.1724,0.188,0.2425,0.3202,0.3357,0.3435,0.3435,0.3593,0.4139,0.4686,0.4763,0.516,0.5715,0.5715,0.4846,0.3748,0.3515,0.2973,0.2507,0.2743,0.2198,0.1571,0.1571,0.1492,0.1492,0.1805,0.2042,0.2356,0.2743,0.2821,0.3054,0.391,0.4611,0.5312,0.6163,0.7173,0.7953,0.8178,0.8327,0.8551,0.8699,0.8703,0.8703,0.8703,0.878,0.9402,1.0634,1.1441,1.2766,1.4748,1.5165,1.5718,1.6476,1.6648,1.673,1.673,1.673,1.673,1.673,1.673,1.673,1.673,1.673,1.673,1.673,1.673,1.673,1.673,1.673,1.673,1.673,1.682,1.6902,1.6902,-1.6472,-1.5736,-1.4954,-1.4209,-1.3759,-1.3388,-1.2899,-1.2637,-1.2614,-1.2844,-1.2365,-1.1842,-1.1477,-1.1254,-1.095,-1.0484,-1.026,-1.0115,-0.9965,-0.9895,-0.982,-0.9593,-0.915,-0.8851,-0.878,-0.8016,-0.7403,-0.6938,-0.6096,-0.5482,-0.5015,-0.4226,-0.383,-0.3752,-0.2192,-0.141,-0.1254,-0.0471,0.0079,0.0314,0.1176,0.1724,0.2195,0.2813,0.3124,0.3437,0.4059,0.4295,0.445,0.5162,0.5479,0.5556,0.5709,0.586,0.5941,0.618,0.618,0.5709,0.3906,0.3359,0.3359,0.3675,0.3054,0.2433,0.2433,0.1963,0.1805,0.2585,0.3054,0.3524,0.4377,0.4064,0.3988,0.4768,0.4924,0.5312,0.6311,0.7399,0.8178,0.8327,0.8551,0.8703,0.8703,0.8703,0.8703,0.8703,0.9013,0.9795,1.1105,1.1836,1.3266,1.5508,1.6221,1.6648,1.6656,1.6648,1.673,1.673,1.673,1.673,1.673,1.673,1.673,1.673,1.673,1.673,1.673,1.673,1.673,1.673,1.673,1.673,1.6738,1.7229,1.731,1.7392,-1.4582,-1.3921,-1.3262,-1.2976,-1.2782,-1.268,-1.2632,-1.2415,-1.2308,-1.2558,-1.2077,-1.1558,-1.1335,-1.1037,-1.0507,-0.9744,-0.9372,-0.8922,-0.8241,-0.8008,-0.8309,-0.9074,-0.8394,-0.794,-0.794,-0.7019,-0.6167,-0.5541,-0.4924,-0.4304,-0.36,-0.3207,-0.2659,-0.1956,-0.1331,-0.0705,-0.0078,0.0784,0.1255,0.1333,0.219,0.3049,0.3754,0.3984,0.453,0.5237,0.5473,0.555,0.5628,0.5948,0.6028,0.6025,0.6103,0.618,0.618,0.6261,0.6338,0.6103,0.5395,0.4768,0.4455,0.4533,0.399,0.3524,0.3524,0.3443,0.3441,0.3908,0.4066,0.4377,0.4768,0.4691,0.4844,0.5622,0.5851,0.6237,0.7173,0.7868,0.8327,0.8403,0.8551,0.8703,0.8703,0.8703,0.8703,0.8703,0.9089,0.9954,1.1464,1.3355,1.487,1.5986,1.6456,1.673,1.673,1.673,1.673,1.673,1.673,1.673,1.673,1.673,1.673,1.673,1.673,1.673,1.673,1.673,1.673,1.673,1.673,1.6894,1.7147,1.731,1.7554,1.7797,-1.2769,-1.2112,-1.1633,-1.1834,-1.1587,-1.1544,-1.1885,-1.1639,-1.1566,-1.1883,-1.1484,-1.0962,-1.0582,-1.0282,-0.9679,-0.8537,-0.8165,-0.7629,-0.6556,-0.6167,-0.6546,-0.7693,-0.7007,-0.6472,-0.6234,-0.5461,-0.4688,-0.4142,-0.3832,-0.3363,-0.266,-0.227,-0.1722,-0.1019,-0.0392,0.0235,0.0942,0.188,0.2349,0.2427,0.3281,0.4062,0.4844,0.5079,0.5783,0.6644,0.6416,0.649,0.6644,0.6416,0.6338,0.6338,0.6338,0.649,0.6718,0.649,0.6641,0.6795,0.6563,0.6015,0.5547,0.5473,0.4924,0.4455,0.4455,0.4453,0.4606,0.4996,0.5151,0.5309,0.5699,0.5544,0.5699,0.6553,0.6626,0.6853,0.7872,0.8255,0.8403,0.8475,0.8627,0.8703,0.8703,0.8703,0.878,0.8856,0.9241,1.0321,1.2107,1.4425,1.584,1.619,1.6547,1.673,1.673,1.673,1.673,1.673,1.673,1.673,1.673,1.673,1.673,1.673,1.673,1.673,1.673,1.673,1.673,1.673,1.6902,1.7147,1.7392,1.7725,1.7959,1.8282,-1.11,-1.0544,-1.0179,-1.0703,-1.0034,-0.9658,-1.0179,-0.9916,-0.9882,-1.0375,-1.0143,-0.9539,-0.878,-0.8699,-0.8093,-0.6714,-0.6563,-0.6173,-0.5082,-0.4457,-0.438,-0.4927,-0.4766,-0.4295,-0.3437,-0.3202,-0.2969,-0.2818,-0.2818,-0.266,-0.2425,-0.1644,-0.1254,-0.1175,0.0783,0.1646,0.1646,0.2657,0.3202,0.3515,0.4373,0.4846,0.5082,0.6022,0.6795,0.7407,0.6567,0.6795,0.7407,0.6567,0.6338,0.6338,0.6338,0.7022,0.7629,0.6868,0.7322,0.7927,0.7092,0.6942,0.6788,0.6412,0.5783,0.5306,0.5306,0.4996,0.4919,0.577,0.6083,0.6475,0.7326,0.6784,0.6553,0.7646,0.7092,0.693,0.8246,0.8403,0.8475,0.8703,0.8703,0.8703,0.8703,0.8703,0.8856,0.9246,0.9695,1.0918,1.3306,1.4858,1.5833,1.619,1.6547,1.673,1.673,1.673,1.673,1.673,1.673,1.673,1.673,1.673,1.673,1.673,1.673,1.673,1.673,1.673,1.673,1.6738,1.7229,1.7392,1.7473,1.8371,1.87,1.8772,-0.9169,-0.8726,-0.8404,-0.8603,-0.8291,-0.8195,-0.8713,-0.8423,-0.8293,-0.8784,-0.8309,-0.7927,-0.7702,-0.7238,-0.678,-0.6321,-0.578,-0.516,-0.438,-0.4066,-0.3599,-0.3054,-0.3677,-0.3828,-0.3437,-0.3207,-0.2738,-0.1958,-0.1802,-0.1096,0.0157,0.0548,0.1096,0.18,0.2503,0.2971,0.3207,0.4064,0.4761,0.5449,0.6314,0.6707,0.6861,0.771,0.7407,0.6721,0.7026,0.7407,0.771,0.7403,0.7859,0.8389,0.8389,0.8613,0.8765,0.8537,0.8309,0.808,0.7778,0.7318,0.6865,0.6714,0.671,0.6633,0.6633,0.663,0.6703,0.6938,0.7092,0.7249,0.7646,0.7488,0.7488,0.7949,0.7944,0.7936,0.8327,0.8551,0.8627,0.8699,0.8703,0.8703,0.8703,0.8937,0.9311,0.99,1.1316,1.2613,1.3601,1.4754,1.5491,1.5825,1.6174,1.6484,1.673,1.673,1.673,1.673,1.673,1.673,1.673,1.673,1.673,1.673,1.673,1.673,1.673,1.673,1.6902,1.7229,1.731,1.7806,1.8371,1.8612,1.8851,1.9152,-0.7707,-0.7451,-0.7386,-0.7577,-0.7447,-0.7456,-0.7939,-0.7641,-0.7492,-0.7947,-0.7544,-0.7161,-0.693,-0.623,-0.569,-0.5625,-0.4613,-0.3679,-0.2895,-0.2818,-0.2349,-0.1254,-0.1799,-0.2189,-0.219,-0.1958,-0.141,-0.047,-0.0235,0.0548,0.188,0.2113,0.2503,0.3127,0.3979,0.4443,0.4678,0.5922,0.6773,0.723,0.7783,0.8016,0.8165,0.8623,0.8466,0.8003,0.8161,0.8466,0.8836,0.8466,0.8765,0.9296,0.9296,0.9599,0.982,0.9523,0.9372,0.9216,0.8912,0.8456,0.8075,0.8075,0.7629,0.7184,0.7184,0.7334,0.7561,0.7565,0.7642,0.7642,0.7876,0.7953,0.7953,0.8178,0.8327,0.8403,0.8475,0.8627,0.8703,0.8703,0.9008,0.9231,0.9301,0.983,1.0351,1.1007,1.2565,1.3535,1.376,1.4688,1.534,1.5666,1.6023,1.6373,1.673,1.673,1.673,1.673,1.673,1.673,1.673,1.673,1.673,1.673,1.673,1.673,1.673,1.6894,1.7302,1.7772,1.8103,1.8736,1.945,1.9618,1.9854,2.0079,-0.6662,-0.6666,-0.6741,-0.7125,-0.7134,-0.7136,-0.7438,-0.7149,-0.6993,-0.7251,-0.6996,-0.6542,-0.6076,-0.5214,-0.4598,-0.4384,-0.3056,-0.1803,-0.0784,-0.0942,-0.0628,0.0392,0.047,0.0313,-0.0078,0.0078,0.0628,0.141,0.1645,0.2115,0.2896,0.3202,0.3355,0.3511,0.5366,0.614,0.6294,0.7999,0.878,0.8851,0.8851,0.8927,0.915,0.9226,0.975,1.034,0.9674,0.9895,1.0415,0.9825,0.9599,0.9599,0.9599,1.0196,1.0789,1.0045,1.0426,1.0956,1.0196,0.997,0.9895,0.9895,0.8689,0.7484,0.7488,0.7561,0.7714,0.7876,0.788,0.7876,0.8178,0.8255,0.8331,0.8479,0.8627,0.8703,0.878,0.8775,0.8851,0.8922,0.9533,1.0062,1.034,1.1081,1.1822,1.2418,1.331,1.3905,1.3905,1.4657,1.53,1.5666,1.5991,1.6341,1.673,1.6812,1.6812,1.673,1.673,1.673,1.673,1.6812,1.6894,1.6894,1.6968,1.6976,1.7049,1.7465,1.8006,1.8621,1.9353,2.0051,2.0575,2.1078,2.1165,2.1165,-0.5481,-0.562,-0.569,-0.5822,-0.5787,-0.5517,-0.5045,-0.4713,-0.4298,-0.373,-0.3281,-0.2971,-0.2659,-0.2345,-0.2033,-0.1722,-0.1018,-0.0157,0.0783,0.0784,0.1018,0.172,0.1799,0.18,0.1879,0.18,0.1879,0.227,0.2426,0.2974,0.3832,0.483,0.5678,0.6381,0.7536,0.808,0.8156,0.8542,0.9155,0.9841,0.9841,0.9981,1.0265,1.0875,1.0501,0.9593,1.0115,1.0415,1.0864,1.1471,1.1626,1.1626,1.1626,1.1774,1.1922,1.1774,1.1403,1.1037,1.0881,1.0496,1.0115,1.0115,0.9965,0.9739,0.9367,0.8993,0.8699,0.8699,0.8327,0.8255,0.915,0.9301,0.9377,0.9539,1.0137,1.0288,0.969,0.9614,0.9911,1.0714,1.0415,1.049,1.1304,1.2271,1.3011,1.3462,1.4049,1.4425,1.4425,1.464,1.5038,1.5658,1.5753,1.6095,1.673,1.7367,1.7367,1.673,1.673,1.6902,1.7229,1.7764,1.8149,1.8567,1.9027,1.9186,1.9186,1.9353,1.9659,2.0022,2.0265,2.0595,2.1078,2.1165,2.1165,2.1165,-0.4353,-0.4353,-0.4287,-0.422,-0.4112,-0.3946,-0.3471,-0.3191,-0.2816,-0.2417,-0.2036,-0.1724,-0.1646,-0.1019,-0.0392,0.0392,0.0157,0.047,0.1646,0.1489,0.1722,0.2735,0.2735,0.3279,0.4365,0.4288,0.3902,0.3127,0.3822,0.46,0.5464,0.6689,0.746,0.7931,0.8998,0.9382,0.9458,0.9906,1.0432,1.0887,1.0887,1.1031,1.1248,1.17,1.1403,1.0801,1.1242,1.1391,1.162,1.215,1.2305,1.2305,1.2305,1.2378,1.2452,1.2452,1.2224,1.1929,1.1929,1.17,1.1465,1.1465,1.1539,1.1391,1.0415,0.997,0.9744,0.982,0.9599,0.9599,1.0201,1.0351,1.0357,1.0438,1.0812,1.0962,1.0513,1.0582,1.0795,1.131,1.1452,1.1896,1.2865,1.3528,1.3977,1.4201,1.4418,1.4569,1.4569,1.4569,1.4959,1.5658,1.5674,1.625,1.7277,1.7836,1.8158,1.8086,1.8086,1.8175,1.8496,1.8868,1.9186,1.9432,1.9747,1.9904,1.9894,2.0129,2.0508,2.0961,2.1221,2.1614,2.208,2.208,2.208,2.208,-0.3286,-0.3218,-0.3086,-0.2898,-0.2764,-0.2627,-0.2402,-0.2019,-0.1761,-0.1718,-0.1409,-0.1176,-0.1097,-0.0235,0.0784,0.1886,0.1097,0.1097,0.2352,0.2193,0.2503,0.3748,0.3904,0.4836,0.6542,0.6619,0.5999,0.4525,0.5597,0.6451,0.7169,0.8394,0.8927,0.9003,0.9986,1.0443,1.0519,1.1335,1.1706,1.1781,1.1781,1.1855,1.2077,1.2077,1.215,1.2305,1.2305,1.2298,1.2378,1.2378,1.2378,1.2378,1.2378,1.2526,1.2673,1.2673,1.2746,1.29,1.29,1.29,1.2973,1.2973,1.2973,1.2673,1.1316,1.0864,1.0789,1.0938,1.0938,1.0944,1.1254,1.1335,1.1335,1.1335,1.1409,1.1484,1.1335,1.1471,1.1681,1.1896,1.2638,1.3535,1.4353,1.4497,1.4569,1.4569,1.4569,1.4569,1.4569,1.4569,1.4959,1.5658,1.5827,1.6632,1.8069,1.8461,1.9097,1.9825,2.006,1.9982,1.9747,2.0051,2.0207,2.0294,2.0362,2.044,2.044,2.0817,2.1201,2.1669,2.209,2.2553,2.3001,2.3001,2.3001,2.3001,-0.2551,-0.2681,-0.2765,-0.2763,-0.2696,-0.2332,-0.1572,-0.1228,-0.0781,0.0078,0.0392,0.0707,0.11,0.1568,0.196,0.2118,0.2511,0.2902,0.3528,0.43,0.4996,0.5547,0.6086,0.6549,0.6861,0.7161,0.7387,0.7536,0.7842,0.8071,0.8228,0.9231,0.9841,1.0067,1.0887,1.1335,1.1484,1.1632,1.1781,1.1929,1.1929,1.2077,1.2224,1.2224,1.2305,1.2305,1.2305,1.2378,1.2526,1.2526,1.2673,1.2826,1.2826,1.2826,1.2893,1.2893,1.29,1.29,1.29,1.3046,1.3193,1.3193,1.3273,1.3346,1.3119,1.2445,1.1774,1.1848,1.1403,1.1254,1.2003,1.215,1.215,1.215,1.2746,1.2973,1.2452,1.2445,1.2813,1.3833,1.4201,1.4418,1.4569,1.4569,1.4569,1.4569,1.4569,1.4569,1.4569,1.4569,1.4959,1.5658,1.6438,1.7321,1.8212,1.9728,2.0595,2.0914,2.1842,2.1603,2.042,2.0971,2.1451,2.1863,2.2381,2.2606,2.2606,2.2606,2.2681,2.2767,2.2841,2.2927,2.3001,2.3001,2.3001,2.3001,-0.148,-0.1497,-0.1447,-0.1395,-0.1302,-0.1119,-0.0679,-0.0309,0.0078,0.055,0.0943,0.1257,0.1572,0.2354,0.2899,0.3052,0.3832,0.4535,0.5079,0.5541,0.6009,0.6402,0.6934,0.7472,0.8084,0.8456,0.9059,0.9744,0.9291,0.9064,0.9064,1.0132,1.0588,1.0738,1.1335,1.1632,1.1706,1.1929,1.2077,1.2224,1.2659,1.2592,1.2378,1.2806,1.2952,1.2952,1.2952,1.3025,1.3032,1.2746,1.2673,1.2746,1.2893,1.2973,1.3046,1.3046,1.3127,1.3273,1.3273,1.3273,1.3346,1.3346,1.3419,1.3492,1.3492,1.3193,1.2826,1.2826,1.2599,1.2526,1.29,1.2973,1.2973,1.2973,1.3346,1.3572,1.3346,1.3484,1.384,1.4425,1.4569,1.4569,1.4569,1.4569,1.4569,1.4569,1.4991,1.5062,1.4641,1.5401,1.6033,1.6413,1.7186,1.8306,1.9719,2.0518,2.1298,2.1993,2.2617,2.2456,2.1756,2.2145,2.2381,2.2628,2.2852,2.3001,2.3001,2.3001,2.3001,2.3001,2.3001,2.3001,2.3001,2.3001,2.3001,2.3001]},{"header":{"parameterUnit":"m.s-1","parameterCategory":1,"la1":30.6,"la2":28.766,"lo1":-90.7593,"lo2":-88.6598,"dy":0.0162,"dx":0.0183,"nx":116,"ny":114,"refTime":"2023-05-30T12:00:00:Z","depth":0,"parameterNumber":3,"parameterNumberName":"V-component_of_WINDS"},"data":[0.0,0.0,0.0,0.0,0.0,0.0,0.0,0.0,0.0,0.0,0.0,0.0,0.0,0.0,0.0,0.0,0.0,0.0,0.0,0.0,0.0,0.0,0.0,0.0,0.0,0.0,0.0,0.0,0.0,0.0,0.0,0.0,0.0,0.0,0.0,0.0,0.0,0.0,0.0,0.0,0.0,0.0,0.0,0.0,0.0,0.0,0.0,0.0,0.0,0.0,0.0,0.0,0.0,0.0,0.0,0.0,0.0,0.0,0.0,0.0,0.0,0.0,0.0,0.0,0.0,0.0,0.0,0.0,0.0,0.0,0.0,0.0,0.0,0.0,0.0,0.0,0.0,0.0,0.0,0.0,0.0,0.0,0.0,0.0,0.0,0.0,0.0,0.0,0.0,0.0,0.0,0.0,0.0,0.0,0.0,0.0,0.0,0.0,0.0,0.0,0.0,0.0,0.0,0.0,0.0,0.0,0.0,0.0,0.0,0.0,0.0,0.0,0.0,0.0,0.0,0.0,0.0,0.0,0.0,0.0,0.0,0.0,0.0,0.0,0.0,0.0,0.0,0.0,0.0,0.0,0.0,0.0,0.0,0.0,0.0,0.0,0.0,0.0,0.0,0.0,0.0,0.0,0.0,0.0,0.0,0.0,0.0,0.0,0.0,0.0,0.0,0.0,0.0,0.0,0.0,0.0,0.0,0.0,0.0,0.0,0.0,0.0,0.0,0.0,0.0,0.0,0.0,0.0,0.0,0.0,0.0,0.0,0.0,0.0,0.0,0.0,0.0,0.0,0.0,0.0,0.0,0.0,0.0,0.0,0.0,0.0,0.0,0.0,0.0,0.0,0.0,0.0,0.0,0.0,0.0,0.0,0.0,0.0,0.0,0.0,0.0,0.0,0.0,0.0,0.0,0.0,0.0,0.0,0.0,0.0,0.0,0.0,0.0,0.0,0.0,0.0,0.0,0.0,0.0,0.0,0.0,0.0,0.0,0.0,0.0,0.0,0.0,0.0,0.0,0.0,0.0,0.0,0.0,0.0,0.0,0.0,0.0,0.0,0.0,0.0,0.0,0.0,0.0,0.0,0.0,0.0,0.0,0.0,0.0,0.0,0.0,0.0,0.0,0.0,0.0,0.0,0.0,0.0,0.0,0.0,0.0,0.0,0.0,0.0,0.0,0.0,0.0,0.0,0.0,0.0,0.0,0.0,0.0,0.0,0.0,0.0,0.0,0.0,0.0,0.0,0.0,0.0,0.0,0.0,0.0,0.0,0.0,0.0,0.0,0.0,0.0,0.0,0.0,0.0,0.0,0.0,0.0,0.0,0.0,0.0,0.0,0.0,0.0,0.0,0.0,0.0,0.0,0.0,0.0,0.0,0.0,0.0,0.0,0.0,0.0,0.0,0.0,0.0,0.0,0.0,0.0,0.0,0.0,0.0,0.0,0.0,0.0,0.0,0.0,0.0,0.0,0.0,0.0,0.0,0.0,0.0,0.0,0.0,0.0,0.0,0.0,0.0,0.0,0.0,0.0,0.0,0.0,0.0,0.0,0.0,0.0,0.0,0.0,0.0,0.0,0.0,0.0,0.0,0.0,0.0,0.0,0.0,0.0,0.0,0.0,0.0,0.0,0.0,0.0,0.0,0.0,0.0,0.0,0.0,0.0,0.0,0.0,0.0,0.0,0.0,0.0,0.0,0.0,0.0,0.0,0.0,0.0,0.0,0.0,0.0,0.0,0.0,0.0,0.0,0.0,0.0,0.0,0.0,0.0,0.0,0.0,0.0,0.0,0.0,0.0,0.0,0.0,0.0,0.0,0.0,0.0,0.0,0.0,0.0,0.0,0.0,0.0,0.0,0.0,0.0,0.0,0.0,0.0,0.0,0.0,0.0,0.0,0.0,0.0,0.0,0.0,0.0,0.0,0.0,0.0,0.0,0.0,0.0,0.0,0.0,0.0,0.0,0.0,0.0,0.0,0.0,0.0,0.0,0.0,0.0,0.0,0.0,0.0,0.0,0.0,0.0,0.0,0.0,0.0,0.0,0.0,0.0,0.0,0.0,0.0,0.0,0.0,0.0,0.0,0.0,0.0,0.0,0.0,0.0,0.0,0.0,0.0,0.0,0.0,0.0,0.0,0.0,0.0,0.0,0.0,0.0,0.0,0.0,0.0,0.0,0.0,0.0,0.0,0.0,0.0,0.0,0.0,0.0,0.0,0.0,0.0,0.0,0.0,0.0,0.0,0.0,0.0,0.0,0.0,0.0,0.0,0.0,0.0,0.0,0.0,0.0,0.0,0.0,0.0,0.0,0.0,0.0,0.0,0.0,0.0,0.0,0.0,0.0,0.0,0.0,0.0,0.0,0.0,0.0,0.0,0.0,0.0,0.0,0.0,0.0,0.0,0.0,0.0,0.0,0.0,0.0,0.0,0.0,0.0,0.0,0.0,0.0,0.0,0.0,0.0,0.0,0.0,0.0,0.0,0.0,0.0,0.0,0.0,0.0,0.0,0.0,0.0,0.0,0.0,0.0,0.0,0.0,0.0,0.0,0.0,0.0,0.0,0.0,0.0,0.0,0.0,0.0,0.0,0.0,0.0,0.0,0.0,0.0,0.0,0.0,0.0,0.0,0.0,0.0,0.0,0.0,0.0,0.0,0.0,0.0,0.0,0.0,0.0,0.0,0.0,0.0,0.0,0.0,0.0,0.0,0.0,0.0,0.0,0.0,0.0,0.0,0.0,0.0,0.0,0.0,0.0,0.0,0.0,0.0,0.0,0.0,0.0,0.0,0.0,0.0,0.0,0.0,0.0,0.0,0.0,0.0,0.0,0.0,0.0,0.0,0.0,0.0,0.0,0.0,0.0,0.0,0.0,0.0,0.0,0.0,0.0,0.0,0.0,0.0,0.0,0.0,0.0,0.0,0.0,0.0,0.0,0.0,0.0,0.0,0.0,0.0,0.0,0.0,0.0,0.0,0.0,0.0,0.0,0.0,0.0,0.0,0.0,0.0,0.0,0.0,0.0,0.0,0.0,0.0,0.0,0.0,0.0,0.0,0.0,0.0,0.0,0.0,0.0,0.0,0.0,0.0,0.0,0.0,0.0,0.0,0.0,0.0,0.0,0.0,0.0,0.0,0.0,0.0,0.0,0.0,0.0,0.0,0.0,0.0,0.0,0.0,0.0,0.0,0.0,0.0,0.0,0.0,0.0,0.0,0.0,0.0,0.0,0.0,0.0,0.0,0.0,0.0,0.0,0.0,0.0,0.0,0.0,0.0,0.0,0.0,0.0,0.0,0.0,0.0,0.0,0.0,0.0,0.0,0.0,0.0,0.0,0.0,0.0,0.0,0.0,0.0,0.0,0.0,0.0,0.0,0.0,0.0,0.0,0.0,0.0,0.0,0.0,0.0,0.0,0.0,0.0,0.0,0.0,0.0,0.0,0.0,0.0,0.0,0.0,0.0,0.0,0.0,0.0,0.0,0.0,0.0,0.0,0.0,0.0,0.0,0.0,0.0,0.0,0.0,0.0,0.0,0.0,0.0,0.0,0.0,0.0,0.0,0.0,0.0,0.0,0.0,0.0,0.0,0.0,0.0,0.0,0.0,0.0,0.0,0.0,0.0,0.0,0.0,0.0,0.0,0.0,0.0,0.0,0.0,0.0,0.0,0.0,0.0,0.0,0.0,0.0,0.0,0.0,0.0,0.0,0.0,0.0,0.0,0.0,0.0,0.0,0.0,0.0,0.0,0.0,0.0,0.0,0.0,0.0,0.0,0.0,0.0,0.0,0.0,0.0,0.0,0.0,0.0,0.0,0.0,0.0,0.0,0.0,0.0,0.0,0.0,0.0,0.0,0.0,0.0,0.0,0.0,0.0,0.0,0.0,0.0,0.0,0.0,0.0,0.0,0.0,0.0,0.0,0.0,0.0,0.0,0.0,0.0,0.0,0.0,0.0,0.0,0.0,0.0,0.0,0.0,0.0,0.0,0.0,0.0,0.0,0.0,0.0,0.0,0.0,0.0,0.0,0.0,0.0,0.0,0.0,0.0,0.0,0.0,0.0,0.0,0.0,0.0,0.0,0.0,0.0,0.0,0.0,0.0,0.0,0.0,0.0,0.0,0.0,0.0,0.0,0.0,0.0,0.0,0.0,0.0,0.0,0.0,0.0,0.0,0.0,0.0,0.0,0.0,0.0,0.0,0.0,0.0,0.0,0.0,0.0,0.0,0.0,0.0,0.0,0.0,0.0,0.0,0.0,0.0,0.0,0.0,0.0,0.0,0.0,0.0,0.0,0.0,0.0,0.0,0.0,0.0,0.0,0.0,0.0,0.0,0.0,0.0,0.0,0.0,0.0,0.0,0.0,0.0,0.0,0.0,0.0,0.0,0.0,0.0,0.0,0.0,0.0,0.0,0.0,0.0,0.0,0.0,0.0,0.0,0.0,0.0,0.0,0.0,0.0,0.0,0.0,0.0,0.0,0.0,0.0,0.0,0.0,0.0,0.0,0.0,0.0,0.0,0.0,0.0,0.0,0.0,0.0,0.0,0.0,0.0,0.0,0.0,0.0,0.0,0.0,0.0,0.0,0.0,0.0,0.0,0.0,0.0,0.0,0.0,0.0,0.0,0.0,0.0,0.0,0.0,0.0,0.0,0.0,0.0,0.0,0.0,0.0,0.0,0.0,0.0,0.0,0.0,0.0,0.0,0.0,0.0,0.0,0.0,0.0,0.0,0.0,0.0,0.0,0.0,0.0,0.0,0.0,0.0,0.0,0.0,0.0,0.0,0.0,0.0,0.0,0.0,0.0,0.0,0.0,0.0,0.0,0.0,0.0,0.0,0.0,0.0,0.0,0.0,0.0,0.0,0.0,0.0,0.0,0.0,0.0,0.0,0.0,0.0,0.0,0.0,0.0,0.0,0.0,0.0,0.0,0.0,0.0,0.0,0.0,0.0,0.0,0.0,0.0,0.0,0.0,0.0,0.0,0.0,0.0,0.0,0.0,0.0,0.0,0.0,0.0,0.0,0.0,0.0,0.0,0.0,0.0,0.0,0.0,0.0,0.0,0.0,0.0,0.0,0.0,0.0,0.0,0.0,0.0,0.0,0.0,0.0,0.0,0.0,0.0,0.0,0.0,0.0,0.0,0.0,0.0,0.0,0.0,0.0,0.0,0.0,0.0,0.0,0.0,0.0,0.0,0.0,0.0,0.0,0.0,0.0,0.0,0.0,0.0,0.0,0.0,0.0,0.0,0.0,0.0,0.0,0.0,0.0,0.0,0.0,0.0,0.0,0.0,0.0,0.0,0.0,0.0,0.0,0.0,0.0,0.0,0.0,0.0,0.0,0.0,0.0,0.0,0.0,0.0,0.0,0.0,0.0,0.0,0.0,0.0,0.0,0.0,0.0,0.0,0.0,0.0,0.0,0.0,0.0,0.0,0.0,0.0,0.0,0.0,0.0,0.0,0.0,0.0,0.0,0.0,0.0,0.0,0.0,0.0,0.0,0.0,0.0,0.0,0.0,0.0,0.0,0.0,0.0,0.0,0.0,0.0,0.0,0.0,0.0,0.0,0.0,0.0,0.0,0.0,0.0,0.0,0.0,0.0,0.0,0.0,0.0,0.0,0.0,0.0,0.0,0.0,0.0,0.0,0.0,0.0,0.0,0.0,0.0,0.0,0.0,0.0,0.0,0.0,0.0,0.0,0.0,0.0,0.0,0.0,0.0,0.0,0.0,0.0,0.0,0.0,0.0,0.0,0.0,0.0,0.0,0.0,0.0,0.0,0.0,0.0,0.0,0.0,0.0,0.0,0.0,0.0,0.0,0.0,0.0,0.0,0.0,0.0,0.0,0.0,0.0,0.0,0.0,0.0,0.0,0.0,0.0,0.0,0.0,0.0,0.0,0.0,0.0,0.0,0.0,0.0,0.0,0.0,0.0,0.0,0.0,0.0,0.0,0.0,0.0,0.0,0.0,0.0,0.0,0.0,0.0,0.0,0.0,0.0,0.0,0.0,0.0,0.0,0.0,0.0,0.0,0.0,0.0,0.0,0.0,0.0,0.0,0.0,0.0,0.0,0.0,0.0,0.0,0.0,0.0,0.0,0.0,0.0,0.0,0.0,0.0,2.6952,2.5855,0.0,0.0,0.0,0.0,0.0,0.0,0.0,0.0,0.0,0.0,0.0,0.0,0.0,0.0,0.0,0.0,0.0,0.0,0.0,0.0,0.0,0.0,0.0,0.0,0.0,0.0,0.0,0.0,0.0,0.0,0.0,0.0,0.0,0.0,0.0,0.0,0.0,3.2533,3.2701,3.3072,3.3584,3.3476,3.3535,3.3701,0.0,0.0,0.0,0.0,0.0,0.0,0.0,0.0,0.0,0.0,0.0,0.0,0.0,0.0,0.0,0.0,0.0,0.0,0.0,0.0,0.0,0.0,0.0,0.0,0.0,0.0,0.0,0.0,0.0,0.0,0.0,0.0,0.0,0.0,0.0,0.0,0.0,0.0,0.0,0.0,0.0,0.0,0.0,0.0,0.0,0.0,0.0,0.0,0.0,0.0,0.0,0.0,0.0,0.0,0.0,0.0,0.0,0.0,0.0,0.0,0.0,0.0,0.0,0.0,0.0,0.0,0.0,0.0,0.0,0.0,2.7304,2.6498,0.0,0.0,0.0,0.0,0.0,0.0,0.0,0.0,0.0,0.0,0.0,0.0,0.0,0.0,0.0,0.0,0.0,0.0,0.0,0.0,0.0,0.0,0.0,3.5379,3.5176,3.4908,3.4851,3.4733,0.0,0.0,0.0,0.0,0.0,0.0,3.2317,3.2248,3.2161,3.2123,3.2873,3.3436,3.3751,3.3651,3.3709,3.3846,3.3002,0.0,0.0,0.0,0.0,0.0,0.0,0.0,0.0,0.0,0.0,0.0,0.0,0.0,0.0,0.0,0.0,0.0,0.0,0.0,0.0,0.0,0.0,0.0,0.0,0.0,0.0,0.0,0.0,0.0,0.0,0.0,0.0,0.0,0.0,0.0,0.0,0.0,0.0,0.0,0.0,0.0,0.0,0.0,0.0,0.0,0.0,0.0,0.0,0.0,0.0,0.0,0.0,0.0,0.0,0.0,0.0,0.0,0.0,0.0,0.0,0.0,0.0,0.0,2.8327,2.8262,2.821,2.821,2.8262,2.8338,2.7726,2.7471,2.7467,2.7229,0.0,0.0,0.0,0.0,0.0,0.0,0.0,0.0,0.0,0.0,0.0,0.0,0.0,0.0,0.0,0.0,0.0,0.0,0.0,0.0,0.0,3.5308,3.5176,3.4908,3.4674,3.4464,3.425,0.0,0.0,0.0,0.0,0.0,3.2385,3.2003,3.2041,3.2599,3.3758,3.4338,3.438,3.3784,3.3549,3.3579,3.3439,3.3298,3.3124,0.0,0.0,0.0,0.0,0.0,0.0,0.0,0.0,0.0,0.0,0.0,0.0,0.0,0.0,0.0,0.0,0.0,0.0,0.0,0.0,0.0,0.0,0.0,0.0,0.0,0.0,0.0,0.0,0.0,0.0,0.0,0.0,0.0,0.0,0.0,0.0,0.0,0.0,0.0,0.0,0.0,3.407,3.2834,0.0,0.0,0.0,0.0,0.0,0.0,0.0,0.0,0.0,0.0,0.0,0.0,0.0,2.9652,2.9761,2.9807,2.9605,2.9121,2.9282,2.9044,2.8522,2.8522,2.8522,2.8587,2.8441,0.0,2.7557,2.7978,0.0,0.0,0.0,0.0,0.0,0.0,0.0,0.0,0.0,0.0,0.0,0.0,0.0,0.0,0.0,0.0,0.0,0.0,0.0,0.0,0.0,3.5694,3.588,3.559,3.5908,3.5776,3.4933,3.4722,0.0,0.0,0.0,3.2502,3.2074,3.2275,3.2917,3.4003,3.4236,3.4532,3.4818,3.4195,3.3892,3.3811,3.3452,3.2818,3.2006,3.1896,0.0,0.0,0.0,0.0,0.0,0.0,0.0,0.0,0.0,0.0,0.0,0.0,0.0,0.0,0.0,0.0,0.0,0.0,0.0,0.0,0.0,0.0,0.0,0.0,0.0,0.0,0.0,0.0,0.0,0.0,0.0,0.0,0.0,0.0,0.0,0.0,0.0,0.0,0.0,3.4087,3.3055,3.2563,3.2523,3.2453,0.0,0.0,0.0,0.0,0.0,0.0,0.0,0.0,0.0,3.0645,3.03,3.036,3.0807,3.0555,3.0254,2.9964,2.9642,2.958,2.9623,2.8958,2.8766,2.9107,2.9107,2.8892,2.8671,2.8821,2.865,2.8441,0.0,0.0,0.0,0.0,3.086,3.1511,0.0,0.0,0.0,0.0,0.0,0.0,0.0,0.0,0.0,0.0,0.0,0.0,3.5618,3.6345,3.6721,3.6463,3.7031,3.6826,3.5498,3.5342,3.4713,3.328,3.2731,3.2265,3.1861,3.2607,3.3699,3.5039,3.4762,3.4813,3.5198,3.4496,3.4102,3.3866,3.3266,3.2473,3.1549,3.1609,3.1341,3.0832,0.0,0.0,0.0,0.0,0.0,0.0,0.0,0.0,0.0,0.0,0.0,0.0,0.0,0.0,0.0,0.0,0.0,0.0,0.0,0.0,0.0,0.0,0.0,0.0,0.0,0.0,0.0,0.0,0.0,0.0,0.0,0.0,0.0,0.0,0.0,0.0,0.0,3.3407,3.2711,3.2453,3.2453,3.2453,0.0,0.0,0.0,0.0,0.0,0.0,3.1477,3.0896,3.0822,3.1477,3.0999,3.1072,3.1709,3.1058,3.0763,3.0763,3.0072,3.0011,3.0464,2.9498,2.9296,2.9766,2.9766,2.9875,2.9997,2.9718,2.9827,3.0211,3.0211,3.0511,3.0999,3.1276,3.1751,3.216,0.0,0.0,0.0,0.0,0.0,0.0,0.0,0.0,0.0,0.0,0.0,3.6612,3.6534,3.7245,3.7655,3.7452,3.7413,3.6826,3.5498,3.5392,3.4766,3.3357,3.2908,3.2453,3.1986,3.2884,3.3963,3.5186,3.5365,3.5458,3.5446,3.4593,3.3919,3.3391,3.2749,3.2703,3.304,3.2376,3.2041,3.1864,3.0376,0.0,0.0,0.0,0.0,0.0,0.0,0.0,0.0,0.0,0.0,0.0,0.0,0.0,0.0,0.0,0.0,0.0,0.0,0.0,0.0,0.0,0.0,0.0,0.0,0.0,0.0,0.0,0.0,0.0,0.0,0.0,0.0,0.0,0.0,0.0,0.0,0.0,0.0,3.2687,3.2578,0.0,0.0,0.0,0.0,3.2398,3.1823,3.1766,3.2327,3.1751,3.1709,3.2327,3.2327,3.2327,3.2342,3.1766,3.1422,3.1422,3.0763,3.0464,3.0524,3.045,3.0404,3.045,3.045,3.0822,3.1364,3.0703,3.0315,3.0211,3.0211,3.0211,3.0332,3.0999,3.1334,3.1652,0.0,0.0,0.0,0.0,0.0,0.0,0.0,0.0,3.6649,3.7143,3.7359,3.7444,3.7379,3.8175,3.8637,3.8553,3.8975,3.8705,3.7347,3.6742,3.5808,3.4457,3.3515,3.3373,3.4107,3.4436,3.5175,3.63,3.5822,3.5566,3.5492,3.4769,3.4301,3.4003,3.3355,3.3145,3.3271,3.2576,3.1805,3.1036,3.0843,3.0238,0.0,0.0,0.0,0.0,0.0,0.0,0.0,0.0,0.0,0.0,0.0,0.0,0.0,0.0,0.0,0.0,0.0,0.0,0.0,0.0,0.0,0.0,0.0,0.0,0.0,0.0,0.0,0.0,0.0,0.0,0.0,0.0,0.0,0.0,0.0,0.0,0.0,3.3055,3.3018,0.0,3.2453,3.2398,3.2398,3.2398,3.2216,3.216,3.2398,3.2231,3.216,3.2398,3.2398,3.2398,3.2398,3.2176,3.2048,3.2048,3.1407,3.1349,3.1694,3.0866,3.0763,3.1116,3.1116,3.1306,3.1537,3.1637,3.1679,3.1607,3.1607,3.1607,3.1664,3.1905,3.2033,3.2104,0.0,0.0,0.0,0.0,0.0,0.0,0.0,0.0,3.7598,3.8093,3.8299,3.8385,3.8347,3.9103,3.9588,3.9538,4.002,3.9643,3.8109,3.7378,3.632,3.4813,3.3993,3.4308,3.5777,3.5629,3.6054,3.7188,3.6308,3.5827,3.5773,3.5178,3.4769,3.4464,3.3953,3.3598,3.3391,3.2949,3.2105,3.1157,3.1313,3.0843,3.0012,0.0,0.0,0.0,0.0,0.0,0.0,0.0,0.0,0.0,0.0,0.0,0.0,0.0,0.0,0.0,0.0,0.0,0.0,0.0,0.0,0.0,0.0,0.0,0.0,0.0,0.0,0.0,0.0,0.0,0.0,0.0,0.0,0.0,0.0,3.4688,3.4103,3.3598,3.3339,3.3039,3.2695,3.2492,3.2398,3.2398,3.2398,3.2398,3.2398,3.2398,3.2398,3.2398,3.2398,3.2398,3.2398,3.2398,3.2398,3.2398,3.1992,3.1992,3.2382,3.1522,3.1407,3.1823,3.1823,3.1823,3.1823,3.2231,3.2398,3.2398,3.2398,3.2398,3.2398,3.2398,3.2398,3.2398,0.0,0.0,0.0,0.0,0.0,0.0,0.0,3.8455,3.8427,3.8385,3.8999,3.9438,3.9438,4.0023,4.0415,4.0415,4.0346,3.949,3.7601,3.7184,3.6189,3.4333,3.441,3.5263,3.6819,3.6327,3.6631,3.7739,3.686,3.6392,3.6301,3.5773,3.5241,3.4671,3.4544,3.4103,3.3479,3.3479,3.3077,3.2431,3.1728,3.1451,3.1464,0.0,0.0,0.0,0.0,0.0,0.0,0.0,0.0,0.0,0.0,0.0,0.0,0.0,0.0,0.0,0.0,0.0,0.0,0.0,0.0,0.0,0.0,0.0,0.0,0.0,0.0,0.0,0.0,0.0,0.0,0.0,0.0,0.0,3.5509,3.4847,3.4415,3.4235,3.3633,3.3235,3.3251,3.2749,3.2437,3.2437,3.2398,3.2398,3.2398,3.2398,3.2398,3.2398,3.2398,3.2398,3.2398,3.2398,3.2398,3.2398,3.2398,3.2398,3.2398,3.2398,3.2398,3.2398,3.2398,3.2398,3.2398,3.2398,3.2398,3.2398,3.2398,3.2398,3.2398,3.2398,3.2398,3.2398,0.0,0.0,0.0,0.0,0.0,0.0,3.842,3.8916,3.9493,4.0096,4.0275,4.0362,4.0419,4.0526,4.0602,4.054,4.0476,4.0098,3.9275,3.8036,3.6755,3.5417,3.6559,3.7389,3.7745,3.7699,3.782,3.8059,3.7342,3.6921,3.6803,3.6643,3.6464,3.6281,3.6138,3.5994,3.577,3.5279,3.4792,3.4268,3.3169,3.2405,3.1986,0.0,0.0,0.0,0.0,0.0,0.0,0.0,0.0,0.0,0.0,0.0,0.0,0.0,0.0,0.0,0.0,0.0,0.0,0.0,0.0,0.0,0.0,0.0,0.0,0.0,0.0,0.0,0.0,0.0,0.0,0.0,3.6301,3.6216,3.6019,3.5739,3.5345,3.4864,3.4512,3.4219,3.3818,3.3303,3.2986,3.2986,3.2641,3.2398,3.2398,3.2398,3.2398,3.2398,3.2398,3.2398,3.2398,3.2398,3.2398,3.2398,3.2398,3.2398,3.2398,3.2398,3.2398,3.2398,3.2398,3.2398,3.2398,3.2398,3.2398,3.2398,3.2398,3.2398,3.2398,3.2398,3.2398,3.2398,0.0,0.0,0.0,0.0,0.0,0.0,3.8893,3.9373,3.9989,4.0866,4.0867,4.0799,4.0887,4.0811,4.0734,4.0692,4.0574,4.0236,3.9659,3.8271,3.7274,3.6859,3.7779,3.8413,3.8664,3.8765,3.8765,3.8678,3.8099,3.7783,3.7664,3.7417,3.729,3.7271,3.714,3.6988,3.6829,3.6464,3.6052,3.5613,3.4855,3.4071,3.3323,3.3647,3.3809,3.3912,3.3779,3.4165,3.4669,3.4699,0.0,0.0,0.0,0.0,0.0,0.0,0.0,0.0,0.0,0.0,0.0,0.0,0.0,0.0,0.0,0.0,0.0,0.0,0.0,0.0,0.0,0.0,0.0,0.0,3.6301,3.6301,3.6251,3.6165,3.5932,3.5543,3.5115,3.4769,3.4431,3.3869,3.3563,3.3563,3.3266,3.2949,3.2749,3.2749,3.2749,3.2749,3.2749,3.2749,3.2749,3.2749,3.2641,3.2398,3.2398,3.2398,3.2398,3.2398,3.2398,3.2398,3.2398,3.2398,3.2398,3.2398,3.2398,3.2398,0.0,0.0,0.0,0.0,3.2547,3.2695,0.0,0.0,0.0,0.0,0.0,0.0,3.9296,3.9589,3.996,4.0838,4.0854,4.0847,4.0984,4.0896,4.08,4.08,4.0544,4.0028,3.9127,3.8259,3.7963,3.8395,3.8508,3.8901,3.959,3.9585,3.9494,3.9377,3.8987,3.8739,3.8672,3.8186,3.7962,3.7944,3.7832,3.7594,3.7307,3.7325,3.7064,3.6676,3.6716,3.6044,3.5048,3.5698,3.595,3.5994,3.5994,3.5994,3.5994,3.5742,0.0,0.0,0.0,0.0,0.0,0.0,0.0,0.0,0.0,0.0,0.0,0.0,0.0,0.0,0.0,0.0,0.0,0.0,0.0,0.0,0.0,0.0,0.0,0.0,3.6301,3.6301,3.6301,3.6233,3.6208,3.6225,3.5543,3.5068,3.5068,3.448,3.4086,3.4086,3.4036,3.3767,3.3303,3.3303,0.0,0.0,0.0,3.3303,3.3303,3.3303,3.3039,3.2602,3.2602,3.2602,3.2602,3.2602,3.2602,3.2602,3.2602,3.2602,3.2602,3.2602,3.2547,3.2492,3.2437,3.2437,3.2492,3.2492,3.2841,3.3251,0.0,0.0,0.0,0.0,0.0,0.0,3.7769,3.83,3.9062,3.9941,4.0037,4.0291,4.0996,4.0969,4.0873,4.0873,4.0143,3.9315,3.8442,3.9441,3.9805,3.9213,3.9857,4.0256,4.0315,4.008,3.9906,3.9766,3.9494,3.9282,3.9141,3.9043,3.8989,3.8915,3.8783,3.8696,3.8637,3.8591,3.8273,3.7887,3.8125,3.738,3.6163,3.6172,3.6316,3.6597,3.6426,3.6568,3.6794,3.6753,3.6794,3.6851,3.6794,3.7052,0.0,0.0,0.0,0.0,0.0,0.0,0.0,0.0,0.0,0.0,0.0,0.0,0.0,0.0,0.0,0.0,0.0,0.0,0.0,3.6301,3.6301,3.6301,3.6301,3.6301,3.6276,3.6225,3.5844,3.5667,3.5667,3.5021,3.4625,3.4625,3.4219,3.3969,3.3869,3.3869,3.3869,3.3869,3.3869,3.3869,3.3869,3.3869,3.3767,3.3665,3.3665,0.0,3.3665,3.3665,3.3665,3.3665,3.3665,3.3665,3.3665,3.3665,3.3407,3.2986,3.2547,3.2641,3.3039,3.3039,3.3407,3.3818,0.0,0.0,0.0,0.0,0.0,0.0,3.7152,3.7492,3.8089,3.9025,3.9151,3.9326,3.975,3.9744,3.9863,4.0312,4.0252,3.9998,3.9478,4.0232,4.0505,4.0077,4.0466,4.0665,4.0607,4.0468,4.0352,4.0243,4.0117,4.0024,3.9947,3.9887,3.9827,3.9787,3.9659,3.95,3.9346,3.9275,3.899,3.8626,3.87,3.8323,3.7666,3.738,3.7361,3.7487,3.7377,3.745,3.7541,3.7541,3.7541,3.7541,3.7541,3.7685,3.7756,0.0,0.0,0.0,0.0,0.0,0.0,0.0,0.0,0.0,0.0,0.0,0.0,0.0,0.0,3.69,3.69,0.0,3.69,3.69,3.6741,3.6597,3.6597,3.6409,3.6301,3.6233,3.6122,3.5993,3.5993,3.5577,3.5316,3.5316,3.4975,3.4673,3.4431,3.4382,3.4382,3.4382,3.4382,3.4382,3.4382,3.4382,3.4284,3.3986,3.3986,3.3986,3.3986,3.3986,3.3986,3.3986,3.3986,3.3986,3.3986,3.3986,3.3818,3.3563,3.3319,3.3198,3.3251,3.3511,3.3919,3.4382,0.0,0.0,0.0,0.0,0.0,0.0,0.0,3.6759,3.7078,3.8072,3.821,3.8268,3.8443,3.8473,3.87,3.9248,4.0156,4.0574,4.0301,4.0589,4.0784,4.0784,4.0784,4.0764,4.0746,4.0738,4.071,4.061,4.061,4.0626,4.0623,4.0513,4.0453,4.0453,4.0315,4.0112,3.9851,3.9743,3.9515,3.9231,3.9127,3.911,3.9119,3.8711,3.8436,3.8277,3.8245,3.8198,3.8117,3.8117,3.8117,3.8135,3.8101,3.8117,3.8183,3.8135,3.8135,0.0,0.0,0.0,0.0,0.0,0.0,0.0,0.0,3.772,3.7614,3.7524,3.7524,3.7542,3.7505,3.7505,3.7505,3.7505,3.7246,3.7017,3.7017,3.6759,3.6516,3.6516,3.636,3.6225,3.6225,3.5949,3.5817,3.5817,3.5684,3.5424,3.4975,3.4975,3.4975,3.4975,3.4975,3.4975,3.4975,3.4975,3.4721,3.4333,3.4333,3.4333,3.4333,3.4333,3.4333,3.4333,3.4366,3.4366,3.4366,3.4366,3.4317,3.4219,3.4366,3.4053,3.3633,3.402,3.448,3.488,0.0,0.0,0.0,0.0,0.0,0.0,0.0,0.0,3.6065,3.6957,3.7122,3.7463,3.8249,3.8423,3.8234,3.7542,3.8977,3.9593,3.8807,4.0194,4.1054,4.1054,4.1054,4.0995,4.0873,4.0873,4.0812,4.0682,4.0682,4.0687,4.0684,4.0676,4.0668,4.0663,4.0529,4.0449,4.0403,4.0216,4.0118,4.0043,3.9861,3.9899,4.0002,3.9618,3.9082,3.8517,3.8342,3.8259,3.8277,3.8212,3.818,3.8165,3.8117,3.8314,3.8504,3.8201,3.8314,3.8548,3.8548,3.8748,3.897,3.897,3.873,3.8468,0.0,3.8096,3.7825,3.7614,3.7578,3.756,3.7505,3.7505,3.7505,3.7505,3.7469,3.7432,3.7432,3.7377,3.7358,3.7358,3.6655,3.6225,3.6225,3.5949,3.5817,3.5817,3.5684,3.5577,3.5515,3.5515,3.5515,3.5515,3.5515,3.5515,3.5515,3.5515,3.547,3.5424,3.5424,3.5424,3.5424,3.5424,3.547,3.5622,3.5739,3.5783,3.5783,3.5783,3.5481,3.5128,3.5588,3.5436,3.4925,3.4769,3.5021,3.5515,0.0,0.0,0.0,0.0,0.0,0.0,0.0,0.0,0.0,3.6091,3.6172,3.6319,3.6697,3.7239,3.7422,3.7059,3.8583,3.9416,3.905,4.0178,4.0879,4.0879,4.0879,4.0831,4.0779,4.0779,4.0779,4.076,4.076,4.0793,4.0859,4.0875,4.0866,4.0881,4.0818,4.077,4.071,4.0557,4.0449,4.0361,4.0194,4.0151,4.0176,4.0002,3.9794,3.9486,3.9127,3.897,0.0,3.8913,3.8836,3.8778,3.8748,3.8807,3.8865,3.8718,3.8778,3.8894,3.8894,3.8998,3.9101,3.9101,3.8998,3.8884,3.8778,3.8628,3.8504,3.836,3.8346,3.8281,3.8249,3.8234,3.8219,3.8219,3.7982,3.7844,3.7844,3.765,3.7505,3.7505,3.717,3.6956,3.6956,3.658,3.6416,3.6684,3.6139,3.5915,3.6182,3.5958,3.5844,3.5844,3.5844,3.5844,3.5844,3.5844,3.5844,3.5844,3.5844,3.5844,3.5844,3.5844,3.5844,3.5932,3.5975,3.6019,3.6019,3.6019,3.5871,3.5677,3.5915,3.5871,3.5633,3.5543,3.565,3.5844,0.0,0.0,0.0,0.0,0.0,0.0,0.0,0.0,0.0,0.0,3.5495,3.5554,3.5607,3.6149,3.6547,3.6547,3.7862,3.8791,3.9023,3.9855,4.0442,4.0694,4.0694,4.0692,4.0701,4.0701,4.0731,4.0778,4.0778,4.0827,4.0926,4.091,4.0933,4.0935,4.0937,4.0913,4.0893,4.0808,4.0714,4.0625,4.0455,4.0376,4.0354,4.0227,4.023,4.0233,3.9758,3.9583,3.9533,3.9451,3.9373,3.9283,3.9256,3.9229,3.9175,3.9129,3.9129,3.9101,3.9101,3.9101,3.9101,3.9101,3.9101,3.9073,3.9036,3.9036,3.9007,3.8921,3.891,3.8833,3.8822,3.878,3.8719,3.8707,3.8451,3.8252,3.8252,3.8016,3.7916,3.8132,3.815,3.824,3.8474,3.7496,3.7002,3.7268,3.6684,3.6474,3.6741,3.6516,3.6308,3.6308,3.6308,3.6308,3.6308,3.6308,3.6308,3.6308,3.6308,3.6308,3.6308,3.635,3.635,3.635,3.6392,3.6392,3.6392,3.6392,3.6392,3.6392,3.6392,3.6392,3.6392,3.6392,3.6241,3.6019,0.0,0.0,0.0,0.0,0.0,0.0,0.0,0.0,0.0,0.0,0.0,0.0,0.0,3.5626,3.5646,3.5646,3.6469,3.732,3.8102,3.8965,3.9816,4.0655,4.0694,4.0694,4.0706,4.0706,4.0706,4.0699,4.0699,4.0711,4.0707,4.0707,4.074,4.0801,4.0731,4.0788,4.0899,4.0897,4.093,4.0964,4.0703,4.0674,4.0743,4.0345,4.0321,4.0441,4.004,3.9892,3.9848,3.9577,3.9495,3.9469,3.9418,3.9391,3.9373,3.9229,3.9156,3.9101,3.9101,3.9101,3.9101,3.9101,3.9101,3.9101,3.9101,3.9101,3.9073,3.9007,3.8997,3.895,3.8822,3.8792,3.878,3.8707,3.8707,3.8676,3.8676,3.8658,3.8951,3.9722,3.9813,4.0125,4.0932,3.8743,3.7305,3.7305,3.721,3.719,3.7173,3.7173,3.7135,3.7135,3.7135,3.7135,3.7135,3.7135,3.7135,3.7135,3.7135,3.7135,3.719,3.723,3.7268,3.7268,3.7414,3.7469,3.7469,3.7469,3.7469,3.7469,3.7469,3.7469,3.7469,3.7469,3.686,3.6019,0.0,0.0,0.0,0.0,0.0,0.0,0.0,0.0,0.0,0.0,0.0,0.0,0.0,0.0,0.0,0.0,3.5533,3.614,3.6425,3.7714,3.8607,3.8952,3.9482,3.9825,3.9905,3.9905,3.9946,4.0043,4.0043,4.0077,4.0175,4.0352,4.0436,4.0468,4.0674,4.0796,4.0843,4.093,4.0955,4.0937,4.0921,4.0925,4.0916,4.0732,4.0715,4.073,0.0,4.0214,4.008,4.0,3.9937,3.9895,3.9873,3.9794,3.9731,3.9683,3.9614,3.9548,3.9548,3.9464,3.9376,3.9376,3.9219,3.9101,3.9101,3.9101,3.9101,3.9073,3.9036,3.9145,3.9623,3.9232,3.9142,4.0197,3.9858,3.968,4.023,4.0304,4.0396,4.0671,4.0708,4.0818,4.1075,4.009,3.9535,3.9815,3.9319,3.9133,3.9355,3.9133,3.9002,3.9002,3.9002,3.8752,3.818,3.818,3.7931,3.7377,3.7377,3.7377,3.7377,3.7414,3.7451,3.7451,3.7487,3.7505,3.7505,3.7505,3.7505,3.7505,3.7505,3.7505,3.7505,3.7505,3.7283,3.7017,0.0,0.0,0.0,0.0,0.0,0.0,0.0,0.0,0.0,0.0,0.0,0.0,0.0,0.0,0.0,0.0,0.0,3.5268,3.5586,3.6558,3.7293,3.7622,3.8147,3.8446,3.8514,3.8558,3.8616,3.8701,3.9044,3.9242,3.9333,3.9795,4.0002,4.0036,4.0357,4.0539,4.0607,4.0801,4.0882,4.0872,4.0984,4.0996,4.096,4.0914,4.0894,0.0,4.0699,4.0554,4.0431,4.025,4.0158,4.0158,4.0158,4.0062,3.9965,3.9943,3.9901,3.9819,3.9797,3.9705,3.9609,3.9609,3.9489,3.9364,3.9364,3.9364,3.9338,3.9272,3.9434,3.9723,4.0118,3.9956,4.0099,4.1119,4.0799,4.0601,4.1052,4.1144,4.1236,4.1497,4.1534,4.1644,4.1937,4.1716,4.1444,4.1115,4.0633,4.0438,4.0721,4.0474,4.0311,4.0311,4.0311,4.0077,3.9554,3.9554,3.9138,3.8363,3.8363,3.8218,3.7913,3.7913,3.7913,3.7913,3.7913,3.7913,3.7913,3.7913,3.7913,3.7913,3.7913,3.7913,3.7913,3.7913,3.7913,3.7879,0.0,0.0,0.0,0.0,0.0,0.0,0.0,0.0,0.0,0.0,0.0,0.0,0.0,0.0,0.0,0.0,0.0,0.0,3.5427,3.5539,3.5899,3.667,3.6726,3.6764,3.6764,3.6812,3.686,3.686,3.7746,3.8182,3.8201,3.897,3.9357,3.9392,3.9705,3.9967,4.0156,4.048,4.0688,4.08,4.0886,4.0901,4.0908,4.0909,4.0905,4.0914,4.0921,4.0917,4.0849,4.0383,4.0233,4.0233,4.0233,4.0177,4.012,4.0062,3.9983,3.9922,3.9861,3.984,3.9819,3.9819,3.9819,3.9797,3.9797,3.9797,3.975,3.9537,4.0165,4.0645,4.0364,4.0963,4.1526,4.1558,4.149,4.1409,4.1314,4.1333,4.1595,4.2268,4.2359,4.2653,4.3424,4.3497,4.2873,4.135,4.124,4.124,4.124,4.124,4.124,4.124,4.124,4.1203,4.1167,4.113,4.0726,3.9955,3.9955,3.9533,3.8762,3.8762,3.8744,3.8707,3.8707,3.8707,3.8707,3.8707,3.8707,3.8707,3.8707,3.8707,3.8707,3.8707,3.8707,3.8596,0.0,0.0,0.0,0.0,0.0,0.0,0.0,0.0,0.0,0.0,0.0,0.0,0.0,0.0,0.0,0.0,0.0,0.0,3.3963,3.452,3.4979,3.5229,3.5805,3.6146,3.6203,3.6232,3.626,3.6316,3.6537,3.6722,3.6833,3.7214,3.7449,3.7491,3.7788,3.8422,3.931,3.9446,3.9986,4.0746,4.0909,4.0969,4.0972,4.0975,4.0977,4.0964,4.0974,4.0967,4.0937,4.0713,4.0646,4.0646,4.0646,4.0598,4.0549,4.0534,4.0454,4.0425,4.0408,4.025,4.0101,4.0101,3.9943,3.9797,3.9797,3.9797,3.9775,3.9731,4.039,4.1161,4.1669,4.1785,4.2174,4.3388,4.2761,4.2341,4.2916,4.2941,4.2981,4.3167,4.3185,4.3259,4.3461,4.3497,4.3314,4.291,4.2892,4.2892,4.2892,4.2892,4.2892,4.2892,4.2892,4.2598,4.2011,4.1405,4.102,4.0799,4.0799,4.0377,3.9588,3.9588,3.9276,3.8707,3.8707,3.8707,3.8707,3.8707,3.8707,3.8707,3.8707,3.8707,3.8707,3.8707,3.8707,3.8658,0.0,0.0,0.0,0.0,0.0,0.0,0.0,0.0,0.0,0.0,0.0,0.0,0.0,0.0,0.0,0.0,0.0,0.0,0.0,3.3898,3.4182,3.4222,3.4641,3.4836,3.4727,3.4709,3.477,3.483,3.5175,3.5476,3.5752,3.6279,3.6562,3.663,3.6916,3.7475,3.8252,3.8829,3.9446,0.0,0.0,4.0914,4.0922,4.1006,4.1035,4.1033,4.1,4.1003,4.1,4.0906,4.0846,4.079,4.079,4.0759,4.0746,4.07,4.0673,4.0651,4.0622,4.0492,4.0375,4.0339,4.0212,4.0101,4.0101,4.0101,4.0082,3.9983,4.0952,4.1898,4.2242,4.278,4.3465,4.4369,4.3905,4.3602,4.3998,4.4011,4.3962,4.3918,4.3886,4.3886,4.3886,4.3886,4.3886,4.3886,4.3664,4.3497,4.3497,4.3497,4.3497,4.3497,4.3497,4.3277,4.2818,4.2378,4.1992,4.1644,4.1644,4.1222,4.0432,4.0432,4.0194,3.9735,3.9386,3.9239,3.9203,3.8854,3.8707,3.8707,3.8707,3.8707,3.8707,3.8707,3.8707,3.8707,0.0,0.0,0.0,0.0,0.0,0.0,0.0,0.0,0.0,0.0,0.0,0.0,0.0,0.0,0.0,0.0,0.0,0.0,0.0,0.0,3.3605,3.3605,3.3605,3.3444,3.3117,3.3129,3.319,3.319,3.3918,3.4473,3.4844,3.5605,3.6011,3.6095,3.6322,3.6663,3.7139,3.8309,3.8982,3.9384,4.0397,4.0801,4.0809,0.0,4.1099,4.1089,4.1032,4.1,4.1006,4.1006,4.0924,4.0796,4.0796,4.0803,4.079,4.0733,4.07,4.0687,4.0617,4.0622,4.0588,4.0539,4.0504,4.0504,4.0504,4.0523,4.0457,4.0286,4.159,4.2677,4.2449,4.3753,4.4849,4.4849,4.4819,4.4745,4.4643,4.4617,4.4546,4.443,4.443,4.4383,4.4383,4.4383,4.4383,4.4383,4.3918,4.3597,4.3548,4.3615,4.3631,4.3631,4.3631,4.3631,4.3631,4.3631,4.3247,4.2566,4.2566,4.2143,4.1369,4.1369,4.1314,4.1167,4.0498,4.0185,4.013,3.9289,3.8958,3.8939,3.8847,3.881,3.881,3.881,3.881,3.881,0.0,0.0,0.0,0.0,0.0,0.0,0.0,0.0,0.0,0.0,3.3807,3.3753,0.0,0.0,0.0,0.0,0.0,0.0,0.0,0.0,0.0,3.3605,3.3605,3.3444,3.3117,3.3386,3.3415,3.319,3.3629,3.3899,3.4009,3.4156,3.431,3.4415,3.4456,3.5156,3.6348,3.728,3.8304,3.9369,4.032,4.0749,4.0829,4.0961,0.0,0.0,4.1092,4.1089,4.1078,4.1078,4.0987,4.0878,4.0878,4.0834,4.079,4.079,4.0746,4.07,4.0687,4.064,4.0593,4.0593,4.0583,4.0573,4.0573,4.0539,4.0489,4.0457,4.1824,4.3017,4.2981,4.4153,4.5118,4.5118,4.4915,4.4701,4.4695,4.4572,4.4519,4.4493,4.4438,4.4383,4.4383,4.4383,4.4383,4.4383,4.4299,4.4162,4.3942,4.4132,4.4242,4.4242,4.4242,4.4242,4.4242,4.4242,4.4167,4.4055,4.4055,4.3605,4.2838,4.2838,4.2464,4.1855,4.1705,4.1649,4.1574,4.0705,4.0349,4.0293,3.9619,3.9376,3.9376,3.9376,3.9376,3.9376,0.0,0.0,0.0,0.0,0.0,0.0,0.0,3.3815,3.3807,3.3807,3.3807,3.3807,3.3753,3.3753,3.3753,0.0,0.0,0.0,0.0,0.0,0.0,0.0,3.3698,3.3541,3.322,3.3339,3.3368,3.3262,0.0,3.3578,3.3842,3.3834,3.3895,3.4049,3.4023,3.4479,3.5413,3.6822,3.7813,3.8607,4.0094,4.0711,4.0759,0.0,0.0,0.0,4.1087,4.1113,4.1147,4.1147,4.1081,4.0994,4.0953,4.0917,4.0846,4.0846,4.08,4.0746,4.07,4.0687,4.0635,4.0621,4.0593,4.0598,4.0588,4.0573,4.0539,4.0523,4.1893,4.3104,4.3104,4.4362,4.5419,4.5419,4.5263,4.5159,4.5118,4.5074,4.5011,4.4966,4.4943,4.4919,4.4919,4.4915,4.491,4.491,4.4887,4.4688,4.4221,4.4318,4.4383,4.4383,4.4383,4.4383,4.4383,4.4383,4.4383,4.4383,4.4383,4.4195,4.3828,4.3828,4.3622,4.3227,4.2814,4.2634,4.2603,4.1757,4.1155,4.0704,4.0327,3.9889,3.9494,3.9494,3.9519,3.9543,0.0,0.0,0.0,0.0,0.0,0.0,0.0,3.3815,3.3807,3.3807,3.3807,3.3807,3.3807,3.3807,3.3807,0.0,0.0,0.0,0.0,0.0,0.0,0.0,0.0,0.0,3.3321,0.0,0.0,3.3321,3.3332,0.0,0.0,0.0,0.0,0.0,3.4049,3.4362,3.5028,3.6707,3.7661,0.0,0.0,4.0668,4.0718,0.0,0.0,0.0,0.0,4.1132,4.1172,4.1191,4.1169,4.1114,4.1061,4.1,4.0915,4.0897,4.0867,4.0808,4.0746,4.0713,4.07,4.0668,4.0635,4.0607,4.0617,4.0622,4.0592,4.0539,4.1909,4.3104,4.3104,4.447,4.5586,4.5586,4.5586,4.5586,4.5513,4.5513,4.5495,4.5419,4.5419,4.54,4.54,4.54,4.5399,4.5399,4.5339,4.5109,4.4617,4.4519,4.4519,4.4591,4.4591,4.4591,4.4591,4.4591,4.4591,4.4591,4.4591,4.4591,4.4591,4.4617,4.4617,4.458,4.3945,4.3712,4.3705,4.2872,4.2153,4.1491,4.1131,4.056,3.9932,3.9762,3.9731,3.9775,0.0,0.0,0.0,0.0,0.0,0.0,0.0,3.3788,3.3807,3.3807,3.3807,3.3807,3.3807,3.3807,3.3807,0.0,0.0,0.0,0.0,0.0,0.0,0.0,0.0,0.0,0.0,0.0,0.0,3.339,3.3689,0.0,0.0,0.0,0.0,0.0,0.0,3.4782,3.6026,3.6994,0.0,0.0,0.0,0.0,0.0,0.0,0.0,0.0,0.0,4.111,4.1112,4.1172,4.1191,4.1191,4.1171,4.1085,4.0986,4.0915,4.0898,4.0868,4.0808,4.079,4.079,4.079,4.0746,4.0687,4.0687,4.0631,4.0607,4.0588,4.1944,4.3104,4.3104,4.447,4.5586,4.5586,4.5586,4.5586,4.5586,4.555,4.5495,4.5495,4.5438,4.54,4.54,4.54,4.54,4.54,4.54,4.5341,4.5235,4.4934,4.491,4.5213,4.5213,4.5213,4.5213,4.5213,4.5213,4.5213,4.5213,4.5213,4.5213,4.5277,4.5317,4.5298,4.5245,4.5207,4.5131,4.4346,4.3963,4.3733,4.222,4.1569,4.1397,4.0613,4.0307,4.0344,0.0,0.0,0.0,0.0,0.0,0.0,3.3788,3.3807,3.3807,3.3807,3.3807,3.3807,3.3807,3.3807,3.3807,3.3807,0.0,0.0,0.0,0.0,0.0,0.0,0.0,0.0,0.0,0.0,3.3815,3.3689,3.3868,0.0,0.0,0.0,0.0,0.0,0.0,3.4792,3.5977,3.6992,0.0,0.0,0.0,0.0,0.0,0.0,0.0,0.0,0.0,0.0,4.1092,4.1132,4.1172,4.1191,4.1191,4.1168,4.1111,4.1033,4.0987,4.0937,4.0924,4.0915,4.0915,4.0915,4.0869,4.0807,4.0765,4.07,4.0646,4.0622,4.1921,4.3099,4.3085,4.447,4.5586,4.5586,4.5586,4.5586,4.5586,4.5568,4.5568,4.5568,4.555,4.5513,4.5513,4.5495,4.5438,4.54,4.54,4.5381,4.5361,4.5241,4.5222,4.5361,4.5361,4.5361,4.5361,4.5361,4.5361,4.5361,4.5361,4.5361,4.5361,4.538,4.54,4.54,4.54,4.5419,4.5438,4.5111,4.4708,4.4191,4.3537,4.2942,4.2386,4.1502,4.1195,4.1171,0.0,0.0,0.0,0.0,0.0,3.3807,3.3807,3.3807,3.3807,3.3807,3.3807,3.3807,3.3807,3.3807,3.3807,3.3807,3.3807,0.0,0.0,0.0,0.0,0.0,0.0,0.0,0.0,0.0,3.3921,3.3947,3.3998,3.4074,0.0,0.0,3.4124,3.4197,0.0,0.0,0.0,0.0,0.0,0.0,0.0,0.0,0.0,0.0,0.0,0.0,0.0,0.0,0.0,0.0,0.0,4.1191,4.1191,4.1191,4.1191,4.1116,4.107,4.1037,4.1019,4.0994,4.0994,4.0994,4.0957,4.0888,4.0849,4.0761,4.0687,4.0631,4.1952,4.3111,4.3099,4.4468,4.5586,4.5586,4.5586,4.5586,4.5586,4.5586,4.5586,4.5586,4.5586,4.5586,4.5586,4.5568,4.5513,4.5457,4.5457,4.5457,4.5457,4.5457,4.5438,4.54,4.54,4.54,4.54,4.54,4.54,4.54,4.54,4.54,4.54,4.5419,4.5419,4.5419,4.5438,4.5495,4.5531,4.5531,4.5186,4.4648,4.4399,4.3918,4.3282,4.2437,4.1975,4.172,0.0,0.0,0.0,0.0,0.0,0.0,3.3807,3.3807,3.3807,3.3807,3.3807,3.3807,3.3807,3.3807,3.3807,3.3807,3.3807,0.0,0.0,0.0,0.0,0.0,0.0,0.0,0.0,0.0,3.3972,3.4099,3.4099,3.4124,3.4197,3.4197,3.4197,3.4258,0.0,0.0,0.0,0.0,0.0,0.0,0.0,0.0,0.0,0.0,0.0,0.0,0.0,0.0,0.0,0.0,0.0,0.0,0.0,4.1191,4.1191,4.1116,4.1108,4.1081,4.1031,4.0994,4.0994,4.0994,4.0957,4.0907,4.0907,4.0804,4.07,4.07,4.1977,4.3092,4.3092,4.4465,4.5586,4.5586,4.5586,4.5586,4.5586,4.5586,4.5586,4.5586,4.5586,4.5586,4.5586,4.5586,4.5586,4.5586,4.5586,4.5586,4.5586,4.5586,4.555,4.54,4.54,4.54,4.54,4.54,4.54,4.54,4.54,4.54,4.54,4.5476,4.5495,4.5495,4.5568,4.5586,4.5586,4.5586,4.5586,4.549,4.4643,4.4297,4.4182,4.3374,4.2547,4.1797,0.0,0.0,0.0,0.0,0.0,0.0,0.0,3.3807,3.3807,3.3807,3.3807,3.3807,3.3807,3.3807,3.3807,3.3807,3.3807,0.0,0.0,0.0,0.0,0.0,0.0,0.0,0.0,0.0,3.4049,3.4099,3.4148,3.4173,3.4197,3.4197,3.4293,3.4491,3.4824,3.5623,0.0,0.0,0.0,0.0,0.0,0.0,4.081,0.0,0.0,0.0,0.0,0.0,0.0,0.0,0.0,0.0,0.0,0.0,0.0,4.117,4.1169,4.1168,4.1144,4.1142,4.1142,4.1142,4.1057,4.0979,4.0979,4.0849,4.092,4.1473,4.243,4.3361,4.3948,4.4935,4.5671,4.5657,4.5676,4.5657,4.5622,4.5586,4.5586,4.5586,4.5586,4.5586,4.5586,4.5586,4.5586,4.5586,4.5586,4.5586,4.5586,4.5586,4.5586,4.555,4.555,4.555,4.555,4.555,4.555,4.555,4.555,4.555,4.555,4.5568,4.5568,4.5568,4.5586,4.5586,4.5586,4.5586,4.5586,4.5566,4.5297,4.5182,4.5086,4.422,4.3758,4.3335,0.0,0.0,0.0,0.0,0.0,0.0,0.0,3.3807,3.3807,3.3807,3.3807,3.3807,3.3807,3.3807,3.3807,3.386,3.386,0.0,0.0,0.0,0.0,0.0,0.0,0.0,3.4074,3.4099,3.4124,3.4148,3.4173,3.4197,3.4197,3.4197,3.434,3.4602,3.5009,3.5628,0.0,0.0,0.0,0.0,0.0,0.0,4.081,0.0,0.0,0.0,0.0,0.0,0.0,0.0,0.0,0.0,0.0,0.0,0.0,0.0,4.1191,4.1191,4.1191,4.1191,4.1191,4.1191,4.1116,4.1022,4.1019,4.0941,4.1089,4.1841,4.2653,4.3498,4.4356,4.5156,4.57,4.5687,4.5706,4.569,4.564,4.564,4.564,4.5603,4.5586,4.5586,4.5586,4.5586,4.5586,4.5586,4.5586,4.5586,4.5586,4.5586,4.5586,4.5586,4.5586,4.5586,4.5586,4.5586,4.5586,4.5586,4.5586,4.5586,4.5586,4.5586,4.5586,4.5586,4.5586,4.5586,0.0,4.5586,4.5586,4.5586,4.5586,4.5586,4.5528,4.4989,4.4586,4.4143,0.0,0.0,0.0,0.0,0.0,0.0,0.0,3.3807,3.3807,3.3807,3.3807,3.3807,3.3807,3.3807,3.3834,3.3895,0.0,0.0,0.0,0.0,0.0,0.0,0.0,0.0,3.4197,3.4148,3.4148,3.4197,3.4197,3.4221,3.4221,3.4221,3.4386,3.4685,3.5627,3.6215,0.0,0.0,0.0,0.0,0.0,0.0,0.0,0.0,0.0,0.0,0.0,0.0,0.0,0.0,0.0,0.0,0.0,0.0,0.0,0.0,0.0,0.0,0.0,4.1191,4.1191,4.1191,4.1146,4.1081,4.1011,4.1052,0.0,4.1966,4.2803,4.3649,4.4465,4.5235,4.5727,4.5727,4.5727,4.5731,4.5706,4.5706,4.569,4.562,4.562,4.5618,4.5618,4.5618,4.5618,4.5618,4.5618,4.5618,4.5618,4.5618,4.562,4.562,4.562,4.562,4.5586,4.5586,4.5586,4.5586,4.5586,4.5586,4.5586,4.5586,4.5586,4.5586,4.5586,4.5586,4.5586,4.5586,4.5586,4.5586,4.5586,4.5603,4.5622,4.5622,4.5103,4.4391,0.0,0.0,0.0,0.0,0.0,0.0,0.0,0.0,0.0,0.0,3.3807,3.3807,3.3807,3.3807,3.3834,0.0,0.0,0.0,0.0,0.0,0.0,0.0,0.0,0.0,3.4197,3.4173,3.4173,3.4197,3.4197,3.4293,3.4517,3.4517,3.4691,3.5054,3.5316,3.6252,0.0,0.0,0.0,0.0,0.0,0.0,0.0,0.0,0.0,0.0,4.1108,4.1094,0.0,0.0,0.0,0.0,0.0,0.0,0.0,0.0,4.1191,4.1191,4.1191,0.0,4.1191,4.1191,4.1146,4.1108,0.0,4.1515,4.2156,4.2977,4.3841,4.4717,4.5568,4.587,4.5998,4.594,4.594,4.5899,4.579,4.5789,4.5775,4.575,4.5803,4.5832,4.582,4.5825,4.5832,4.5836,4.5832,4.584,4.584,4.584,4.5809,4.5757,4.5796,4.5756,4.5603,4.5586,4.5586,4.5586,4.5586,4.5586,4.5586,4.5586,4.5586,4.5586,4.5586,4.5586,4.5586,4.5586,4.5586,4.5586,4.5586,4.564,4.5693,4.5693,4.5555,4.5263,0.0,0.0,0.0,0.0,0.0,0.0,0.0,0.0,0.0,0.0,0.0,0.0,0.0,0.0,0.0,0.0,0.0,0.0,0.0,0.0,0.0,0.0,0.0,3.4197,3.4197,3.4197,3.4197,3.4197,3.4197,3.434,3.4602,3.4602,3.4812,3.5229,3.5672,3.6439,0.0,0.0,0.0,0.0,4.0424,0.0,0.0,0.0,0.0,0.0,4.1108,4.1091,0.0,4.1105,4.1108,4.1111,0.0,0.0,0.0,0.0,4.1191,4.1191,4.1191,4.1191,4.1191,4.1191,4.117,4.1142,4.1111,4.1713,4.2518,4.3325,4.4214,4.5103,4.593,4.6098,4.6098,4.6045,4.6045,4.6002,4.5911,4.5869,4.5859,4.585,4.5881,4.5891,4.5899,4.59,4.5901,4.5901,4.5911,4.5901,4.5899,4.589,4.5869,4.5852,4.588,4.5789,4.5603,4.5692,4.5718,4.57,4.5718,4.5747,4.5747,4.5747,4.5747,4.5747,4.5742,4.5736,4.5736,4.5736,4.5736,4.5731,4.5736,4.575,4.579,4.579,4.5803,4.5738,0.0,0.0,0.0,0.0,0.0,0.0,0.0,0.0,0.0,0.0,0.0,0.0,0.0,0.0,0.0,0.0,0.0,0.0,0.0,0.0,0.0,0.0,3.4269,3.4269,3.4269,3.4293,3.4316,3.4316,3.4316,3.4454,3.4689,3.4689,3.4965,3.5468,3.6469,3.6969,0.0,0.0,0.0,0.0,4.0372,0.0,0.0,0.0,0.0,0.0,0.0,0.0,0.0,4.1103,4.1107,4.1108,4.1171,0.0,0.0,0.0,0.0,0.0,4.1191,4.1191,4.1191,4.1191,4.1191,4.1191,4.1121,4.1871,4.2771,4.3402,4.4372,4.532,4.6006,4.6131,4.6131,4.6131,4.6125,4.6092,4.604,4.5979,4.5944,4.5952,4.5959,4.5959,4.5967,4.5967,4.5952,4.5955,4.5955,4.5966,4.5959,4.5957,4.5946,4.5929,4.5944,4.5871,4.5645,4.5808,4.5875,4.5822,4.5875,4.591,4.591,4.589,4.589,4.5901,4.5901,4.591,4.591,4.591,4.59,4.5899,4.59,4.59,4.5927,4.5927,4.5927,4.5935,0.0,0.0,0.0,0.0,0.0,0.0,0.0,0.0,0.0,0.0,0.0,0.0,0.0,0.0,0.0,0.0,0.0,0.0,0.0,0.0,0.0,3.4517,3.4539,3.4539,3.4539,3.4711,3.4792,3.4792,3.4792,3.4908,3.5107,3.5107,3.5605,3.6503,3.7397,3.82,3.895,0.0,0.0,0.0,4.0604,0.0,0.0,0.0,0.0,0.0,0.0,0.0,0.0,4.1099,4.1103,4.1108,4.1111,0.0,0.0,0.0,0.0,0.0,4.1191,4.1191,4.1191,4.1191,4.1191,4.1191,4.1191,4.2383,4.3535,4.3651,4.4959,4.6112,4.6247,4.6267,4.6267,4.6267,4.6215,4.6175,4.6171,4.6162,4.6158,4.6147,4.6202,4.6237,4.6245,4.6239,4.6234,4.6239,4.6234,4.6248,4.6248,4.6248,4.6195,4.6072,4.6175,4.6114,4.5862,4.5872,4.5901,4.5878,4.5901,4.5901,4.5901,4.59,4.5909,4.5909,4.589,4.5899,4.5899,4.5899,4.5899,4.5899,4.5899,4.5927,4.599,4.599,4.6018,4.6079,0.0,0.0,0.0,0.0,0.0,0.0,0.0,0.0,0.0,0.0,0.0,0.0,0.0,0.0,0.0,0.0,0.0,0.0,0.0,0.0,3.463,3.4771,3.487,3.487,3.4771,3.4851,3.4908,3.4908,3.4908,3.5001,3.5209,3.5764,3.6262,3.6757,3.8104,3.8911,3.9369,4.0246,4.0602,0.0,0.0,0.0,0.0,0.0,0.0,0.0,0.0,0.0,0.0,0.0,4.1101,4.1103,4.1108,0.0,0.0,0.0,0.0,0.0,4.1191,4.1172,4.1152,4.1152,4.1172,4.1191,4.1191,4.25,4.3691,4.3691,4.5098,4.6308,4.6308,4.6308,4.6308,4.6308,4.6268,4.6245,4.6245,4.6243,4.6241,4.6245,4.6286,4.6307,4.6308,4.6308,4.6307,4.6307,4.6306,4.6305,4.6301,4.6303,4.6262,4.6212,4.6264,4.6241,4.6128,4.6119,4.6078,4.5998,4.6086,4.6128,4.6128,4.6114,4.6114,4.6119,4.6123,4.6128,4.6128,4.6128,4.6108,4.6117,4.6128,4.6132,4.6163,4.6163,4.6183,4.6209,0.0,0.0,0.0,0.0,0.0,0.0,0.0,0.0,0.0,0.0,0.0,0.0,0.0,0.0,0.0,0.0,0.0,0.0,0.0,3.4188,3.4927,3.4982,3.5107,3.5124,3.4963,3.5019,3.5037,3.5037,3.5037,3.5219,3.558,3.6546,3.7123,3.7373,3.8724,3.9432,3.9678,4.041,4.0723,0.0,0.0,0.0,0.0,0.0,0.0,0.0,0.0,0.0,0.0,0.0,0.0,0.0,0.0,0.0,0.0,4.1091,4.1131,4.1171,4.1172,4.1132,4.1091,4.1091,4.1132,4.1171,4.1172,4.248,4.3691,4.3691,4.5098,4.6308,4.6308,4.6308,4.6308,4.6308,4.6308,4.6308,4.6308,4.6308,4.6308,4.6308,4.6308,4.6308,4.6308,4.6308,4.6308,4.6307,4.6307,4.6307,4.6305,4.6307,4.6307,4.6307,4.6308,4.6308,4.6307,4.6307,4.6241,4.6147,4.6256,4.6303,4.6303,4.6305,4.6305,4.6305,4.6307,4.6307,4.6307,4.6307,4.6308,4.6308,4.6308,4.6308,4.6308,4.6308,4.6308,4.6308,0.0,0.0,0.0,0.0,0.0,0.0,0.0,0.0,0.0,0.0,0.0,0.0,0.0,0.0,0.0,0.0,0.0,0.0,0.0,3.4832,3.4963,3.5157,3.5193,3.5174,3.5193,3.5354,3.5465,3.5465,3.5465,3.5864,3.6608,3.7488,3.8334,3.9119,3.9316,3.983,4.0616,4.0731,4.0801,4.081,4.094,0.0,0.0,0.0,0.0,0.0,0.0,0.0,0.0,0.0,0.0,0.0,0.0,0.0,4.1107,4.1107,4.1108,4.1108,4.1111,4.109,4.1108,4.1091,4.109,4.1108,4.1111,4.2459,4.369,4.3691,4.5098,4.6308,4.6308,4.6308,4.6308,4.6308,4.6308,4.6308,4.6308,4.6308,4.6308,4.6308,4.6308,4.6308,4.6308,4.6308,4.6308,4.6308,4.6308,4.6308,4.6308,4.6308,4.6308,4.6308,4.6308,4.6308,4.6308,4.6308,4.6307,4.63,4.6305,4.6307,4.6307,4.6308,4.6308,4.6308,4.6308,4.6308,4.6308,4.6308,4.6308,4.6308,4.6308,4.6308,4.6308,4.6308,4.6308,4.6308,0.0,0.0,0.0,0.0,0.0,0.0,0.0,0.0,0.0,0.0,0.0,0.0,0.0,0.0,0.0,0.0,0.0,0.0,0.0,3.4975,3.5315,3.5369,3.5403,3.5403,3.5403,3.5446,3.5493,3.5493,3.6007,3.6411,3.6738,3.8142,3.9008,3.9393,3.9966,4.0413,4.078,4.0874,4.0914,4.094,4.1028,0.0,0.0,0.0,0.0,0.0,0.0,0.0,0.0,0.0,4.1091,4.1094,4.1094,4.1097,4.1101,4.1101,4.1105,4.1107,4.1108,4.1105,4.1103,4.1103,4.1101,4.1099,4.1108,4.2456,4.3706,4.3708,4.5095,4.6306,4.6306,4.6307,4.6308,4.6308,4.6308,4.6308,4.6308,4.6308,4.6308,4.6308,4.6308,4.6308,4.6308,4.6308,4.6308,4.6308,4.6308,4.6308,4.6308,4.6308,4.6308,4.6308,4.6308,4.6308,4.6308,4.6308,4.6308,4.6307,4.6308,4.6308,4.6308,4.6308,4.6308,4.6308,4.6308,4.6308,4.6308,4.6308,4.6308,4.6308,4.6308,4.6308,4.6308,4.6308,4.6308,4.6308,0.0,0.0,0.0,0.0,0.0,0.0,0.0,0.0,0.0,0.0,0.0,0.0,0.0,0.0,0.0,0.0,0.0,0.0,3.4641,3.52,3.5534,3.5534,3.5534,3.5515,3.5501,3.5501,3.5501,3.5493,3.6587,3.7269,3.7577,3.9077,3.9799,3.9874,4.0507,4.0811,4.0882,4.0974,4.1022,4.1047,4.1078,4.1108,0.0,0.0,0.0,0.0,0.0,0.0,0.0,0.0,4.1108,4.1108,4.1108,4.1091,4.1097,4.1097,4.1099,4.1103,4.1105,4.1101,4.1097,4.1099,4.1094,4.1091,4.1101,4.2451,4.3702,4.3702,4.5091,4.6301,4.6301,4.6305,4.6306,4.6306,4.6307,4.6308,4.6308,4.6308,4.6308,4.6308,4.6308,4.6308,4.6308,4.6308,4.6308,4.6308,4.6308,4.6308,4.6308,4.6308,4.6308,4.6308,4.6308,4.6308,4.6308,4.6308,4.6308,4.6308,4.6308,4.6308,4.6308,4.6308,4.6308,4.6308,4.6308,4.6308,4.6308,4.6308,4.6308,4.6308,4.6308,4.6308,4.6308,4.6308,4.6308,4.6308,0.0,0.0,0.0,0.0,0.0,0.0,0.0,0.0,0.0,0.0,0.0,0.0,0.0,0.0,0.0,0.0,0.0,0.0,3.5604,3.5604,3.5604,3.5604,3.5604,3.5572,3.5496,3.5515,3.5509,3.5512,3.725,3.8559,3.9429,4.0354,4.081,4.081,4.094,4.0994,4.1019,4.1074,4.1108,4.1108,4.1108,4.1108,4.1108,0.0,0.0,0.0,0.0,0.0,0.0,0.0,4.1108,4.1108,4.1108,4.1108,4.1108,4.1108,4.1108,4.1091,4.1097,4.1094,4.1091,4.1097,4.1094,4.1108,4.1108,4.2444,4.3698,4.3722,4.5091,4.6301,4.6301,4.6301,4.6301,4.6301,4.6305,4.6307,4.6307,4.6308,4.6308,4.6308,4.6308,4.6308,4.6308,4.6308,4.6308,4.6308,4.6308,4.6308,4.6289,4.6289,4.6289,4.6289,4.6289,4.6289,4.6289,4.6289,4.6289,4.6289,4.6308,4.6308,4.6308,4.6308,4.6308,4.6308,4.6308,4.6308,4.6308,4.6308,4.6308,4.6308,4.6308,4.6308,4.6308,4.6308,4.6308,4.6308,0.0,0.0,0.0,0.0,0.0,0.0,0.0,0.0,0.0,0.0,0.0,0.0,0.0,0.0,0.0,0.0,0.0,0.0,3.5669,3.5715,3.5729,3.5674,3.5674,3.5666,3.5639,3.625,3.6491,3.6353,3.752,3.8559,3.9429,4.0354,4.0846,4.094,4.0981,4.1037,4.1074,4.1085,4.1108,4.1108,4.1108,4.1108,4.1108,0.0,0.0,0.0,0.0,0.0,0.0,0.0,0.0,0.0,4.1108,4.1108,4.1108,4.1108,4.1108,4.1111,4.1091,4.1091,4.1111,4.1091,4.1091,4.1108,4.1108,4.2458,4.4042,4.5272,4.5935,4.6309,4.6309,4.6293,4.6295,4.6295,4.6301,4.6303,4.6303,4.6305,4.6305,4.6305,4.6305,4.6305,4.6305,4.6305,4.6305,4.6305,4.6305,4.6032,4.5429,4.539,4.5097,4.4492,4.4473,4.4473,4.4473,4.5078,4.5391,4.5391,4.6015,4.6308,4.6308,4.6308,4.6308,4.6308,4.6308,4.6308,4.6308,4.6308,4.6308,4.6308,4.6308,4.6308,4.6308,4.6308,4.6307,4.6307,0.0,0.0,0.0,0.0,0.0,0.0,0.0,0.0,0.0,0.0,3.3499,3.347,0.0,0.0,0.0,0.0,0.0,0.0,0.0,3.5775,3.5774,3.5743,3.608,3.6424,3.678,3.726,3.7625,3.7839,3.8462,3.9179,4.0044,4.0634,4.0961,4.1047,4.1047,4.1066,4.1108,4.1108,4.1108,4.1108,4.1108,4.1108,4.1108,0.0,0.0,0.0,0.0,0.0,0.0,0.0,0.0,0.0,4.1108,4.1108,4.1108,4.1108,4.1108,4.1108,4.1108,4.1108,4.1108,4.1108,4.1108,4.1186,4.1537,4.2708,4.4094,4.55,4.6066,4.63,4.63,4.6303,4.6309,4.6309,4.6295,4.63,4.63,4.63,4.6301,4.6301,4.6301,4.6301,4.6301,4.5989,4.5774,4.5774,4.5462,4.5034,4.4509,4.4489,4.4236,4.3729,4.369,4.369,4.369,4.4218,4.4472,4.4491,4.5018,4.5272,4.5292,4.5976,4.6308,4.6308,4.6308,4.6308,4.6307,4.6308,4.6308,4.6308,4.6308,4.6308,4.6308,4.6306,4.6305,4.6305,0.0,0.0,0.0,0.0,0.0,0.0,0.0,0.0,0.0,0.0,3.4555,3.4536,0.0,0.0,0.0,0.0,0.0,0.0,0.0,3.5802,3.5827,3.5827,3.6645,3.7522,3.8389,3.8435,3.8825,3.9634,3.9672,4.015,4.0994,4.1078,4.1097,4.1108,4.1108,4.1108,4.1108,4.1108,4.1108,4.1108,4.1108,4.1108,4.1108,4.1108,0.0,0.0,0.0,0.0,0.0,0.0,0.0,0.0,4.1108,4.1108,4.1108,4.1108,4.1108,4.1108,4.1108,4.1108,4.1108,4.1108,4.1108,4.1303,4.2103,4.2962,4.3821,4.4699,4.5578,4.6183,4.6183,4.6241,4.63,4.63,4.6306,4.6273,4.6195,4.618,4.6143,4.6065,4.6065,4.6065,4.6065,4.5343,4.4874,4.4874,4.4153,4.3665,4.3587,4.3587,4.3548,4.3471,4.3452,4.3452,4.3452,4.355,4.3589,4.3589,4.3665,4.3704,4.3764,4.5427,4.6229,4.6308,4.6307,4.6305,4.6301,4.6306,4.6307,4.6307,4.6307,4.6307,4.6306,4.6303,4.6301,4.6301,0.0,0.0,0.0,0.0,0.0,0.0,0.0,0.0,0.0,0.0,0.0,0.0,0.0,0.0,0.0,0.0,0.0,0.0,0.0,3.5925,3.5953,3.5953,3.679,3.7667,3.8545,3.9209,3.9654,3.9842,3.9747,4.015,4.0994,4.1078,4.1097,4.1108,4.1108,4.1108,4.1108,4.1108,4.1108,4.1108,4.1108,4.1108,4.1108,4.1108,4.1108,0.0,0.0,0.0,0.0,0.0,0.0,0.0,4.1108,4.1108,4.1108,4.1108,4.1108,4.1108,4.1108,4.1108,4.1108,4.1108,4.1108,4.1147,4.1342,4.2045,4.2923,4.3801,4.468,4.5285,4.5285,4.5831,4.63,4.63,4.6303,4.6069,4.5386,4.5288,4.5037,4.4335,4.4257,4.4257,4.4257,4.4081,4.3983,4.3983,4.3808,4.34,4.2722,4.2683,4.2373,4.1673,4.1654,4.1654,4.1654,4.2337,4.2689,4.2689,4.3368,4.3702,4.3745,4.4799,4.5659,4.6305,4.6303,4.6303,4.6301,4.6303,4.6303,4.6303,4.6303,4.6303,4.6303,4.6297,4.6295,4.627,0.0,0.0,0.0,0.0,0.0,0.0,0.0,0.0,0.0,0.0,0.0,0.0,0.0,0.0,0.0,0.0,0.0,0.0,0.0,0.0,3.6367,3.7207,3.7676,3.8535,3.9824,4.0292,4.0507,4.0465,4.0398,4.0597,4.1042,4.1088,4.1097,4.1108,4.1094,4.1091,4.1108,4.1094,4.1094,4.1094,4.1094,4.1094,4.1094,4.1094,4.1091,4.1108,4.1108,0.0,0.0,0.0,0.0,0.0,0.0,0.0,4.1108,4.1108,4.1104,4.1104,4.1108,4.1104,4.1104,4.1108,4.1108,4.1108,4.1108,4.1439,4.1908,4.2357,4.3489,4.4387,4.4387,4.4758,4.5051,4.5051,4.5051,4.4894,4.4445,4.4387,4.4211,4.3743,4.3704,4.3704,4.3704,4.3313,4.3079,4.3079,4.2689,4.2262,4.1797,4.1777,4.1565,4.1119,4.1099,4.1099,4.1099,4.155,4.1785,4.1785,4.2249,4.2678,4.3112,4.3976,4.4855,4.5673,4.5673,4.5905,4.6293,4.6297,4.6297,4.6297,4.6297,4.6297,4.6295,4.623,4.6201,4.6192,0.0,0.0,0.0,0.0,0.0,0.0,0.0,0.0,0.0,0.0,0.0,0.0,0.0,0.0,0.0,0.0,0.0,0.0,0.0,0.0,0.0,3.8495,3.8573,3.9394,4.1152,4.1191,4.1172,4.1112,4.1112,4.1108,4.1101,4.1099,4.1097,4.1091,4.1094,4.1094,4.1111,4.1097,4.1099,4.1099,4.1099,4.1099,4.1099,4.1099,4.1094,4.1108,4.1108,4.1108,4.1108,4.1108,0.0,0.0,0.0,0.0,4.1108,4.1104,4.1097,4.1094,4.1101,4.1097,4.1094,4.1101,4.1104,4.1104,4.1104,4.1104,4.1108,4.1108,4.2376,4.3489,4.3489,4.3606,4.3704,4.3704,4.3704,4.3645,4.3509,4.3489,4.3411,4.3274,4.3255,4.3255,4.3255,4.2591,4.2181,4.2181,4.1518,4.1108,4.1108,4.1108,4.1108,4.1108,4.1108,4.1108,4.1108,4.1108,4.1108,4.1108,4.1108,4.1479,4.2201,4.2917,4.3818,4.4787,4.4787,4.5272,4.6085,4.6072,4.615,4.6264,4.6264,4.6261,4.623,4.6112,4.6057,4.6049,0.0,0.0,0.0,0.0,0.0,0.0,0.0,0.0,0.0,0.0,3.5248,3.4995,0.0,0.0,0.0,0.0,0.0,0.0,0.0,0.0,0.0,3.8352,3.8475,3.9367,4.1152,4.1191,4.1191,4.1191,4.1132,4.1091,4.109,4.1103,4.1099,4.1097,4.1094,4.1091,4.1111,4.1097,4.1099,4.1099,4.1105,4.1103,4.1099,4.1099,4.1094,4.1108,4.1108,4.1108,4.1108,4.1108,4.1108,0.0,0.0,0.0,4.1094,4.11,4.1096,4.1096,4.11,4.1096,4.1096,4.11,4.11,4.11,4.11,4.1109,4.1097,4.1097,4.1882,4.2572,4.2572,4.3196,4.3704,4.3704,4.3704,4.343,4.2689,4.2572,4.2298,4.1537,4.1439,4.1439,4.1439,4.1342,4.1264,4.1264,4.1166,4.1108,4.1108,4.1108,4.1108,4.1108,4.1108,4.1108,4.1108,4.1108,4.1108,4.1108,4.1108,4.1166,4.1283,4.1384,4.2321,4.3863,4.3863,4.4367,4.5168,4.5168,4.5558,4.6138,4.6138,4.6057,4.5949,4.593,4.592,4.5929,0.0,0.0,0.0,0.0,0.0,0.0,0.0,0.0,0.0,0.0,0.0,3.5416,0.0,0.0,0.0,0.0,0.0,0.0,0.0,0.0,0.0,3.8283,3.8834,3.9745,4.1062,4.1081,4.1081,4.1081,4.1013,4.1016,4.1038,4.1033,4.1053,4.1103,4.1101,4.1101,4.1101,4.1105,4.1107,4.1107,4.111,4.1108,4.1103,4.1103,4.1099,4.1108,4.1108,4.1108,4.1108,4.1108,4.1108,4.1108,4.1097,0.0,0.0,0.0,4.1111,4.1075,4.1,4.1,4.0974,4.089,4.0882,4.0882,4.0882,4.089,4.0879,4.0879,4.1179,4.1487,4.1644,4.1986,4.224,4.224,4.224,4.2103,4.1732,4.1674,4.1537,4.1147,4.1108,4.1108,4.1108,4.1108,4.1108,4.1108,4.1108,4.1108,4.1108,4.1108,4.1108,4.1108,4.1108,4.1108,4.1108,4.1108,4.1108,4.1108,4.1108,4.1108,4.1108,4.1066,4.1749,4.2962,4.2962,4.3439,4.425,4.4699,4.5053,4.5354,4.5812,4.594,4.5899,4.5871,4.5835,4.5841,0.0,0.0,0.0,0.0,0.0,0.0,0.0,0.0,0.0,0.0,0.0,0.0,0.0,0.0,0.0,0.0,0.0,0.0,0.0,0.0,0.0,3.8556,3.9237,4.0018,4.0974,4.0994,4.0994,4.0994,4.0947,4.0953,4.0992,4.0984,4.1008,4.1074,4.1091,4.1107,4.1107,4.1091,4.1092,4.1092,4.1112,4.1111,4.1107,4.1107,4.1101,4.1108,4.1108,4.1108,4.1108,4.1108,4.1108,4.1108,4.1094,4.1109,0.0,0.0,0.0,4.0984,4.0878,4.0858,4.083,4.0729,4.0707,4.0707,4.0707,4.0688,4.0699,4.0699,4.0699,4.0752,4.0967,4.1008,4.0989,4.1013,4.1046,4.1051,4.1074,4.1085,4.1108,4.1108,4.1108,4.1108,4.1108,4.1108,4.1108,4.1108,4.1108,4.1108,4.1108,4.1108,4.1108,4.1108,4.1108,4.1108,4.1108,4.1108,4.1108,4.1104,4.1104,4.1078,4.1046,4.1025,4.1356,4.1988,4.1993,4.246,4.3272,4.3868,4.4325,4.4722,4.5312,4.5638,4.5783,4.5733,4.5708,4.5677,0.0,0.0,0.0,0.0,0.0,0.0,0.0,0.0,0.0,0.0,0.0,0.0,3.5514,3.4865,3.471,3.5534,3.554,3.5828,3.6593,3.6754,3.7597,3.9363,3.9491,0.0,4.0987,4.0994,4.0994,4.0994,4.0994,4.0994,4.0994,4.0933,4.0939,4.1011,4.1073,4.1107,4.1107,4.1091,4.1092,4.1112,4.1172,4.1151,4.1107,4.1107,4.1101,4.1108,4.1108,4.1108,4.1108,4.1108,4.1108,4.1104,4.1105,4.1096,4.1081,0.0,0.0,0.0,4.0706,4.0706,4.0706,4.0706,4.0706,4.0706,4.0706,4.0699,4.0703,4.0703,4.0707,4.069,4.0731,4.0712,4.0742,4.0811,4.0871,4.0922,4.0994,4.1066,4.1108,4.1108,4.1108,4.1108,4.1108,4.1108,4.1108,4.1108,4.1108,4.1108,4.1108,4.1108,4.1108,4.1108,4.1108,4.1108,4.1108,4.1108,4.1104,4.1094,4.1094,4.1022,4.0906,4.096,4.0949,4.0878,4.0878,4.1373,4.2169,4.2228,4.3128,4.4498,4.4556,4.4963,4.5512,4.5531,4.5475,4.5419,0.0,0.0,0.0,0.0,0.0,0.0,0.0,0.0,0.0,0.0,0.0,0.0,0.0,3.4721,3.4628,3.5002,3.5043,3.5441,3.6386,3.7028,3.7978,3.9316,3.9915,4.0389,4.0787,4.0858,4.0868,4.0868,4.0868,4.0868,4.0869,4.0885,4.0918,4.0945,4.1013,4.1051,4.1108,4.1152,4.1152,4.1171,4.1191,4.1151,4.1107,4.1107,4.1101,4.1108,4.1108,4.1108,4.1108,4.1108,4.1108,4.1104,4.11,4.1091,4.1075,4.0952,4.0818,4.0681,4.0607,4.0559,4.0549,4.046,4.0427,4.0427,4.0427,4.0444,4.0425,4.0425,4.0441,4.0438,4.0438,4.0584,4.071,4.0721,4.0762,4.0791,4.0791,4.0894,4.098,4.098,4.1052,4.1109,4.1109,4.1109,4.1109,4.1109,4.1109,4.1109,4.1109,4.1109,4.1109,4.1109,4.1109,4.1109,4.1109,4.1109,4.1105,4.11,4.1006,4.0948,4.089,4.0761,4.0653,4.0604,4.0563,4.0777,4.123,4.1749,4.2259,4.2822,4.3907,4.4455,4.4747,4.5266,4.5419,4.54,0.0,0.0,0.0,0.0,0.0,0.0,0.0,0.0,0.0,3.4632,0.0,0.0,0.0,0.0,3.4593,3.4653,3.4713,3.5247,3.6521,3.7185,3.8151,3.9554,4.0177,4.0559,4.07,4.0778,4.079,4.079,4.079,4.0803,4.0808,4.0846,4.0868,4.0869,4.0935,4.1003,4.107,4.1142,4.1169,4.1169,4.1191,4.1151,4.1108,4.1107,4.1101,4.1091,4.1091,4.1108,4.1108,4.1108,4.1108,4.1108,4.1109,4.105,4.0945,4.0859,4.0706,4.0549,4.046,4.0427,4.0413,4.031,4.031,4.031,4.031,4.031,4.031,4.031,4.031,4.031,4.031,4.0438,4.0571,4.0565,4.0604,4.0641,4.0633,4.0752,4.0829,4.0829,4.0948,4.1025,4.1025,4.1061,4.1091,4.1091,4.1091,4.1091,4.1091,4.1091,4.1091,4.1091,4.1091,4.1091,4.1091,4.1056,4.1025,4.1039,4.0902,4.082,4.0751,4.0578,4.0487,4.0427,4.0411,4.0476,4.0646,4.1176,4.1524,4.181,4.2926,4.3675,4.4231,4.4768,4.5131,4.538,0.0,0.0,0.0,0.0,0.0,0.0,0.0,0.0,3.4445,3.4445,0.0,0.0,0.0,0.0,0.0,3.4551,3.4609,3.5369,3.706,3.7213,3.8115,4.0117,4.0264,4.0419,4.0687,4.0759,4.079,4.079,4.079,4.079,4.079,4.079,4.079,4.0803,4.0877,4.0932,4.0987,4.107,4.1108,4.1091,4.1169,4.1152,4.1092,4.1108,4.1103,4.1097,4.1091,4.1108,4.1108,4.1108,4.1108,4.1108,4.1097,4.0914,4.0703,4.0703,4.0515,4.031,0.0,0.0,0.0,4.031,4.031,4.031,4.031,4.031,4.031,4.031,4.031,4.031,4.031,4.031,4.031,4.0289,4.0406,4.0492,4.0496,4.0609,4.0679,4.0679,4.082,4.089,4.089,4.1013,4.1086,4.1091,4.1091,4.1091,4.1091,4.1091,4.1091,4.1091,4.1091,4.1091,4.1091,4.0974,4.0902,4.0885,4.0749,4.0623,4.0504,4.05,4.0419,4.0307,4.0362,4.0398,4.0398,4.0398,4.0914,4.1662,4.1681,4.266,4.4058,4.4097,4.4611,4.5297,0.0,0.0,0.0,0.0,0.0,3.3015,3.3015,3.3046,3.3076,0.0,0.0,0.0,3.3259,3.3478,3.3634,3.3661,3.4507,3.556,3.6774,3.7464,3.8527,4.0063,4.0248,4.0399,4.0621,4.0746,4.079,4.079,4.079,4.079,4.079,4.079,4.079,4.079,4.0808,4.0843,4.0867,4.0974,4.1037,4.1022,4.1108,4.1084,4.103,4.1074,4.1107,4.1099,4.1097,4.1094,4.1108,4.1108,4.1108,4.1108,4.1097,4.0974,4.083,4.0726,4.0582,4.0425,4.0328,0.0,0.0,0.0,0.0,0.0,4.031,4.031,4.031,4.031,4.031,4.031,4.031,4.031,4.031,4.031,4.0327,4.0344,4.0362,4.0469,4.0554,4.0554,4.0674,4.0757,4.0757,4.0779,4.0849,4.096,4.096,4.1011,4.1078,4.1103,4.1103,4.1103,4.1103,4.1039,4.0968,4.0924,4.0849,4.0746,4.0629,4.0549,4.0489,4.0413,4.0345,4.031,4.0328,4.0328,4.0328,4.0326,4.0478,4.0746,4.1322,4.2221,4.3234,4.3807,4.4572,4.5297,0.0,0.0,0.0,0.0,0.0,3.2468,3.2468,3.2484,3.2535,0.0,0.0,0.0,3.2666,3.2908,3.3032,3.3032,3.4081,3.5177,3.6297,3.7202,3.832,3.9754,3.9903,4.0138,4.0466,4.0579,4.0687,4.079,4.079,4.079,4.079,4.079,4.079,4.079,4.079,4.079,4.0803,4.0878,4.0932,4.0972,4.1066,4.1072,4.106,4.1094,4.111,4.1105,4.1101,4.1097,4.1094,4.1091,4.1108,4.1108,4.1101,4.1003,4.0879,4.081,4.0648,4.0481,4.0392,4.0345,4.031,4.031,0.0,0.0,4.031,4.031,4.031,4.031,4.031,4.031,4.031,4.031,4.031,4.031,4.031,4.031,4.031,4.0363,4.0413,4.0413,4.0534,4.0615,4.0615,4.0668,4.073,4.0818,4.0818,4.0849,4.0926,4.0935,4.0935,4.0935,4.0935,4.0907,4.0818,4.0754,4.0694,4.0602,4.0492,4.0413,4.0413,4.0346,4.031,4.031,4.031,4.031,4.031,4.0291,4.029,4.0347,4.0826,4.1514,4.2354,4.3195,4.4036,4.4819,0.0,0.0,3.1933,3.1898,3.2022,3.2144,3.2109,3.2161,3.2213,0.0,3.2213,3.2213,3.2213,3.2417,3.2535,3.2553,3.3501,3.4601,3.5737,3.6716,3.7868,3.9268,3.9445,3.9757,4.03,4.037,4.0534,4.079,4.079,4.079,4.079,4.079,4.079,4.079,4.079,4.079,4.079,4.079,4.0823,4.0907,4.1028,4.1085,4.1088,4.1113,4.1112,4.1091,4.1103,4.1099,4.1099,4.1094,4.1111,4.1108,4.1108,4.1013,4.0909,4.0882,4.069,4.0492,4.0481,4.0394,4.031,4.031,4.031,0.0,4.031,4.031,4.031,4.031,4.031,4.031,4.031,4.031,4.031,4.031,4.031,4.031,4.031,4.031,4.031,4.031,4.0396,4.0492,4.0492,4.0593,4.0655,4.0668,4.0694,4.0694,4.0694,4.0694,4.0694,4.0694,4.0694,4.0694,4.0668,4.0564,4.0489,4.0476,4.0345,4.031,4.031,4.031,4.031,4.031,4.031,4.031,4.031,4.031,4.031,4.031,4.031,4.0788,4.159,4.2374,4.3233,4.4112,0.0,3.0658,3.0853,3.054,3.0606,3.0633,3.0344,3.0344,3.0369,3.0402,3.0484,3.0583,3.0583,3.1181,3.161,3.1718,3.3618,3.4955,3.5321,3.7065,3.8297,3.8793,3.9264,3.9757,4.03,4.037,4.0534,4.079,4.079,4.079,4.079,4.079,4.079,4.079,4.079,4.079,4.079,4.079,4.0815,4.0831,4.0972,4.1011,4.1022,4.1147,4.1152,4.1091,4.109,4.1108,4.1105,4.1099,4.1094,4.1108,4.1108,4.1057,4.0954,4.0857,4.0665,4.0487,4.0372,4.0308,4.031,4.031,4.031,0.0,4.031,4.031,4.031,4.031,4.031,4.031,4.031,4.031,4.031,4.031,4.031,4.031,4.031,4.031,4.031,4.031,4.0328,4.0346,4.0346,4.0363,4.043,4.0534,4.0629,4.0694,4.0694,4.0694,4.0694,4.0694,4.0694,4.0642,4.0549,4.0504,4.0444,4.0346,4.031,4.031,4.031,4.031,4.031,4.031,4.031,4.031,4.031,4.031,4.031,4.031,4.031,4.0788,4.1514,4.1686,4.2717,4.4036,2.878,2.9156,2.9473,2.9643,2.9756,2.9805,2.9645,2.9601,2.9645,2.9745,2.9892,2.9935,2.9935,3.0336,3.0647,3.0704,3.2219,3.3588,3.4421,3.5935,3.7302,3.8438,3.8783,3.9252,3.9884,3.9984,4.0193,4.0598,4.0626,4.0706,4.079,4.079,4.079,4.079,4.079,4.079,4.0746,4.0746,4.0733,4.0707,4.0869,4.0979,4.1,4.1114,4.1151,4.1152,4.1112,4.1108,4.1103,4.1099,4.1094,4.1108,4.1108,4.1078,4.1028,4.0933,4.0781,4.0604,4.0462,4.0358,4.0291,4.0291,4.031,0.0,0.0,4.031,4.031,4.031,4.031,4.031,4.031,4.031,4.031,4.031,4.031,4.031,4.031,4.031,4.031,4.031,4.031,4.031,4.031,4.031,4.0328,4.0415,4.046,4.0508,4.0508,4.0508,4.0508,4.0508,4.0508,4.046,4.0396,4.0396,4.0363,4.031,4.031,4.031,4.031,4.031,4.031,4.031,4.031,4.031,4.031,4.031,4.031,4.031,4.031,4.0559,4.096,4.1342,4.203,4.287,2.7132,2.7572,2.7958,2.8607,2.89,2.9082,2.9118,2.9027,2.8965,2.9011,2.9337,2.9585,2.9585,2.9907,3.015,3.0194,3.1111,3.228,3.3639,3.4766,3.6151,3.7871,3.8176,3.8637,3.9389,3.9462,3.9781,4.0336,4.0457,4.0583,4.0733,4.0778,4.079,4.079,4.079,4.0759,4.07,4.07,4.0668,4.0635,4.0796,4.0887,4.0974,4.1037,4.1116,4.1171,4.1132,4.1108,4.1101,4.1101,4.1099,4.1094,4.1091,4.1088,4.1074,4.1025,4.091,4.077,4.0565,4.0446,4.0341,4.0309,4.031,4.0291,0.0,0.0,0.0,4.031,4.031,4.031,4.031,4.031,4.031,4.031,4.031,4.0253,4.0081,4.0196,4.031,4.031,4.031,4.031,4.031,4.031,4.031,4.031,4.031,4.031,4.031,4.031,4.031,4.031,4.031,4.031,4.031,4.0291,4.0272,4.0272,4.0273,4.0253,4.0253,4.0253,4.0253,4.0253,4.0253,4.0253,4.0253,4.0253,4.0253,4.0253,4.0291,4.031,4.0387,4.1036,4.1361,4.1686,2.5081,2.5909,2.6534,2.6923,2.7397,2.7829,2.8094,2.7695,2.7261,2.6901,2.7935,2.8737,2.8737,3.0086,3.1005,3.1134,3.2192,3.3074,3.3512,3.5052,3.6173,3.6606,3.747,3.83,3.9032,3.9111,3.9472,4.0139,4.0372,4.0504,4.0539,4.072,4.079,4.079,4.079,4.0759,4.07,4.07,4.07,4.07,4.0713,4.0754,4.083,4.0894,4.0994,4.1116,4.1171,4.1151,4.1091,4.1091,4.1108,4.1105,4.1099,4.1058,4.1003,4.1,4.091,4.077,4.063,4.0544,4.0457,4.0394,4.0344,4.0289,4.0289,0.0,4.031,4.031,0.0,4.031,4.031,0.0,0.0,4.031,4.031,4.0043,3.926,3.9814,4.031,4.031,4.031,4.031,4.031,4.031,4.031,4.031,4.031,4.031,4.031,4.031,4.031,4.031,4.031,4.031,4.031,4.0253,4.0215,4.0196,4.0157,4.0117,4.0117,4.0117,4.0117,4.0117,4.0117,4.0117,4.0117,4.0117,4.0117,4.0137,4.0253,4.031,4.031,4.0406,4.0883,4.1514,2.4273,2.4818,2.5271,2.5937,2.6237,2.6462,2.6663,2.6573,2.64,2.6254,2.6886,2.7392,2.7392,2.8055,2.887,2.9623,3.0204,3.1255,3.2854,3.3752,3.4874,3.6325,3.6781,3.7559,3.8744,3.883,3.916,3.9754,3.9982,4.0213,4.0438,4.0569,4.0673,4.0746,4.079,4.0746,4.0635,4.0635,4.064,4.0631,4.0631,4.0668,4.0699,4.0849,4.0974,4.1091,4.1121,4.1112,4.1092,4.1092,4.109,4.1107,4.1101,4.1072,4.1051,4.1006,4.0967,4.0866,4.0667,4.059,4.0535,4.0427,4.0379,4.0362,4.0362,3.9961,3.9599,3.9599,0.0,0.0,0.0,0.0,0.0,0.0,4.031,4.0005,3.9126,3.9317,3.9546,3.9546,4.0005,4.031,4.031,4.031,4.031,4.031,4.0253,4.0253,4.0253,4.0215,4.0176,4.0176,4.0176,4.0176,4.0176,4.0157,4.0137,4.0137,4.0098,4.0117,4.0117,4.0117,4.0117,4.0117,4.0117,4.0117,4.0117,4.0117,4.0117,4.0117,4.0157,4.0176,4.0176,4.0176,4.0405,4.0748,2.3054,2.3647,2.419,2.5094,2.5135,2.5119,2.5245,2.5548,2.57,2.5591,2.6087,2.6486,2.654,2.7057,2.7866,2.8996,2.9312,3.0394,3.2526,3.2878,3.3935,3.5908,3.6153,3.6876,3.8245,3.8468,3.881,3.9282,3.959,3.9899,4.0175,4.0283,4.0403,4.0481,4.0626,4.0607,4.0511,4.0579,4.0598,4.0603,4.0588,4.0617,4.0648,4.0828,4.0953,4.1057,4.1081,4.1105,4.1094,4.1113,4.1131,4.1129,4.1105,4.0945,4.0765,4.0706,4.0535,4.0286,4.0052,3.9998,3.9952,3.9811,3.9769,3.9772,3.9723,3.9227,3.8767,3.8767,3.8767,0.0,0.0,0.0,3.96,3.9584,0.0,3.9565,3.8476,3.8706,3.8916,3.8667,3.9412,4.0043,4.0291,4.031,4.0291,4.0272,4.0234,4.0196,4.0176,4.0137,4.0117,4.0117,4.0117,4.0117,4.0117,4.0077,4.0077,4.0077,4.0057,4.0036,4.0036,4.0036,4.0036,4.0036,4.0036,4.0036,4.0036,4.0036,4.0036,4.0036,4.0036,4.0036,4.0057,4.0096,4.0117,4.0193,2.0853,2.2153,2.35,2.4195,2.396,2.3747,2.3906,2.4695,2.5007,2.4452,2.5567,2.6439,2.6553,2.8211,2.9652,3.0447,3.1087,3.1819,3.2812,3.3303,3.4005,3.5018,3.561,3.6381,3.7413,3.7946,3.8373,3.873,3.9333,3.9622,3.9622,3.9825,3.9927,3.9947,4.0192,4.0317,4.0317,4.0523,4.0598,4.0607,4.0603,4.0631,4.0713,4.0858,4.0888,4.0924,4.1042,4.1091,4.1116,4.1171,4.1191,4.1191,4.1112,4.0563,3.9934,3.9949,3.9337,3.8658,3.8505,3.8462,3.8427,3.8214,3.817,3.8125,3.8001,3.7958,3.7942,3.7942,3.7942,3.7926,3.7838,3.7857,3.7859,3.7806,3.8495,0.0,0.0,3.798,3.8686,3.7846,3.8514,3.9374,4.0234,4.031,4.0272,4.0196,4.0196,4.0176,4.0117,4.0117,4.0117,4.0117,4.0117,4.0117,4.0117,4.0036,3.9996,3.9996,3.9933,3.9911,3.9911,3.9911,3.9911,3.9911,3.9911,3.9911,3.9911,3.9911,3.9911,3.9911,3.9911,3.9911,3.9911,4.0057,4.0117,4.0077,2.0579,2.109,2.1813,2.2832,2.327,2.3563,2.383,2.4142,2.4319,2.4292,2.4811,2.5439,2.5949,2.6638,2.7675,2.9202,2.9871,3.0743,3.2018,3.278,3.363,3.483,3.5186,3.5994,3.7376,3.7614,3.8047,3.864,3.8868,3.9178,3.9529,3.9649,3.9759,3.9884,3.9986,4.0137,4.03,4.0336,4.0434,4.0607,4.0603,4.0617,4.0635,4.0732,4.0826,4.0917,4.0957,4.0647,4.0232,4.0279,3.9918,3.9472,3.9452,3.9255,3.9038,3.9032,3.8834,3.857,3.8433,3.8364,3.8294,3.8144,3.8074,3.8031,3.7973,3.7516,3.7117,3.7117,3.7117,3.7102,3.7006,3.7485,3.7836,3.7729,3.7941,3.7941,0.0,3.733,3.7254,3.6948,3.8151,3.9088,3.9356,3.9891,4.0215,4.0137,4.0098,4.0057,4.0036,3.9975,3.9973,3.9973,3.9973,3.9973,3.9973,3.9933,3.9933,3.9933,3.9911,3.9889,3.9889,3.9889,3.9889,3.9889,3.9889,3.9889,3.9889,3.9889,3.9889,3.9889,3.9889,3.9889,3.9911,3.9933,3.9973,4.0049,1.9617,1.9944,2.0526,2.1604,2.231,2.2701,2.2683,2.294,2.3305,2.3741,2.3989,2.4451,2.5244,2.5648,2.6517,2.8226,2.8895,2.9886,3.1302,3.2149,3.3103,3.4372,3.4851,3.5708,3.7108,3.7339,3.7791,3.8442,3.8579,3.8915,3.9371,3.9402,3.9494,3.9614,3.9712,3.9925,4.0174,4.0174,4.0348,4.0607,4.0569,4.0376,4.0149,4.0183,4.0275,4.0361,4.0383,3.9918,3.9268,3.9279,3.8971,3.8573,3.8594,3.8397,3.8142,3.8139,3.7921,3.7658,3.757,3.7494,3.7417,3.7288,3.7197,3.714,3.7118,3.668,3.6262,3.6229,3.6262,3.6248,3.6159,3.6604,3.6933,3.6831,3.7063,3.7273,0.0,3.6566,3.6033,3.6035,3.7505,3.8631,3.888,3.9662,4.0137,4.0077,4.0017,3.9996,3.9954,3.9933,3.9889,3.9889,3.9889,3.9889,3.9889,3.9889,3.9889,3.9889,3.9889,3.9889,3.9889,3.9889,3.9889,3.9889,3.9889,3.9889,3.9889,3.9889,3.9889,3.9889,3.9889,3.9889,3.9889,3.9889,3.9889,3.9965,1.8124,1.8787,1.9552,2.0504,2.1049,2.1151,2.0653,2.131,2.2113,2.2701,2.3062,2.3636,2.4532,2.5271,2.6249,2.7619,2.8327,2.9304,3.0754,3.1496,3.2451,3.373,3.4575,3.5509,3.6661,3.7111,3.756,3.8101,3.8387,3.8711,3.9101,3.9101,3.9101,3.9129,3.9376,3.9641,3.9907,4.01,4.0312,4.053,4.0462,3.9961,3.9239,3.9239,3.9234,3.927,3.9387,3.8908,3.8236,3.8307,3.8346,3.838,3.8455,3.789,3.7245,3.7245,3.6656,3.6005,3.6005,3.5958,3.5878,3.5737,3.565,3.5574,3.5515,3.5493,3.5474,3.5412,3.546,3.5465,3.5343,3.5304,3.5285,3.5226,3.5935,3.6472,3.6451,3.5763,3.525,3.52,3.6687,3.7985,3.8766,3.9604,4.0057,3.9996,3.9996,3.9975,3.9911,3.9889,3.9889,3.9889,3.9889,3.9889,3.9889,3.9889,3.9889,3.9889,3.9889,3.9889,3.9889,3.9889,3.9889,3.9889,3.9889,3.9889,3.9889,3.9889,3.9889,3.9889,3.9889,3.9889,3.9889,3.9889,3.9889,3.9889,1.793,1.8337,1.8654,1.9054,2.0139,2.0991,2.114,2.1483,2.1803,2.2224,2.2725,2.3432,2.4575,2.5057,2.5761,2.6936,2.7638,2.8597,2.9967,3.0779,3.1989,3.3744,3.4541,3.5357,3.6097,3.6115,3.6788,3.8101,3.7584,3.7943,3.9101,3.9101,3.9101,3.9101,3.9165,3.9445,3.9903,3.9903,3.9794,3.9634,3.9619,3.9099,3.833,3.833,3.7926,3.7492,3.8202,3.7951,3.7259,3.7286,3.6962,3.657,3.6599,3.6479,3.6328,3.6327,3.6189,3.5992,3.6007,3.5942,3.5869,3.5725,3.565,3.5574,3.5515,3.5493,3.5493,3.5493,3.5446,3.5412,3.5383,3.5339,3.5293,3.5277,3.5971,3.6279,3.563,3.5897,3.5938,3.5276,3.6632,3.7681,3.7832,3.9162,3.9996,3.9933,3.9933,3.9911,3.9889,3.9889,3.9889,3.9889,3.9889,3.9889,3.9889,3.9889,3.9889,3.9889,3.9889,3.9889,3.9889,3.9889,3.9889,3.9889,3.9889,3.9889,3.9889,3.9889,3.9889,3.9889,3.9889,3.9889,3.9889,3.9889,3.9889,3.9889,1.7872,1.8076,1.8212,1.8482,1.9309,2.0085,2.0431,2.0613,2.0933,2.1502,2.1939,2.2665,2.3819,2.4339,2.5005,2.5989,2.6626,2.7511,2.8849,2.9952,3.1267,3.2851,3.4215,3.522,3.5907,3.6069,3.6799,3.8101,3.7631,3.8016,3.9101,3.9101,3.9101,3.9101,3.9101,3.9338,3.9712,3.9523,3.9337,3.9141,3.8858,3.82,0.0,3.743,3.6911,3.6238,3.676,3.6665,3.6284,3.6308,3.609,3.5825,3.5873,3.594,3.5954,3.5996,3.5995,3.5995,3.5992,3.5952,3.5885,3.582,3.571,3.5621,3.5596,3.5558,3.5528,3.5515,3.5463,3.5432,3.5369,3.5339,3.5289,3.5261,3.5646,3.5763,3.5267,3.563,3.5747,3.5257,3.6272,3.7167,3.747,3.8988,3.9933,3.9911,3.9889,3.9889,3.9889,3.9889,3.9889,3.9889,3.9889,3.9889,3.9889,3.9889,3.9889,3.9889,3.9889,3.9889,3.9889,3.9889,3.9889,3.9889,3.9889,3.9889,3.9889,3.9889,3.9889,3.9889,3.9889,3.9826,3.9735,3.9735,3.9804,3.987,1.7872,1.8008,1.8076,1.8414,1.8684,1.8942,1.9285,1.9473,1.9933,2.0646,2.1083,2.1628,2.2616,2.3267,2.3994,2.4932,2.54,2.6284,2.7729,2.9042,3.0357,3.1646,3.3532,3.4901,3.5667,3.6146,3.6911,3.7871,3.7814,3.8154,3.8878,3.8906,3.9008,3.9101,3.9101,3.9205,3.9364,3.909,3.8891,3.864,3.8059,3.7315,3.6546,3.6546,3.6122,3.5493,3.5493,3.5501,3.5515,3.5566,3.5621,3.5704,3.5827,3.5884,3.5918,3.5976,3.5996,3.5995,3.5995,3.5964,3.5912,3.5895,3.5813,3.5721,3.5702,3.565,3.5599,3.5538,3.5502,3.5455,3.5354,3.532,3.527,3.5226,3.5209,3.5209,3.5209,3.5193,3.5196,3.52,3.5853,0.0,3.7413,3.8852,3.9797,3.9889,3.9889,3.9889,3.9889,3.9889,3.9889,3.9889,3.9889,3.9889,3.9889,3.9889,3.9889,3.9889,3.9889,3.9889,3.9889,3.9889,3.9889,3.9889,3.9889,3.9889,3.9889,3.9889,3.9889,3.9889,3.9867,3.9712,3.9483,3.9433,3.9556,3.9717,1.7872,1.8008,1.8076,1.8414,1.8684,1.8942,1.9473,1.9736,1.9868,2.0064,2.0442,2.1008,2.1577,2.2249,2.3005,2.3942,2.4379,2.5588,2.79,2.8296,2.9312,3.1225,3.2579,3.3672,3.4387,3.4823,3.5548,3.6506,3.6255,3.6625,3.7617,3.7942,3.8451,3.9101,3.9101,3.8983,3.8769,3.888,3.8219,3.7079,3.6974,3.6449,3.5718,3.5718,3.5622,3.5493,3.5493,3.5507,3.5501,3.5495,3.555,3.5631,3.5716,3.5807,3.5913,3.5975,3.5996,3.5996,3.5995,3.5993,3.5966,3.5903,3.5885,3.5839,3.5737,3.5685,3.5676,3.5668,3.557,3.5488,3.5476,3.5369,3.5277,3.5209,3.5209,3.5209,3.5209,3.5196,3.5181,3.511,3.5817,3.6597,3.7335,3.8321,3.9191,3.9832,3.9889,3.9889,3.9889,3.9889,3.9889,3.9889,3.9889,3.9889,3.9889,3.9889,3.9889,3.9889,3.9889,3.9889,3.9889,3.9889,3.9889,3.9889,3.9889,3.9889,3.9889,3.9889,3.9889,3.9889,3.9647,3.9551,3.9458,3.9136,3.9036,3.9063,1.794,1.8008,1.8076,1.8414,1.8741,1.9075,1.9539,1.9813,2.0009,2.0009,2.0324,2.0764,2.1273,2.2187,2.3027,2.3623,2.4292,2.5368,2.706,2.7753,2.8778,3.0195,3.1678,3.2763,3.3412,3.3914,3.4631,3.551,3.5616,3.5986,3.6703,3.7054,3.7681,3.8469,3.8611,3.8351,3.7775,3.7698,3.7223,3.652,3.6185,3.5848,3.5493,3.5493,3.5493,3.5493,3.5493,3.5493,3.5493,3.5493,3.5515,3.5577,3.5659,3.578,3.5864,3.5973,3.5996,3.5996,3.5996,3.5996,3.5995,3.5962,3.5955,3.5923,3.5875,3.5833,3.5801,3.5801,3.5713,3.5601,3.56,3.5477,3.5345,3.5311,3.5254,3.5209,3.5209,3.5212,3.5198,3.5147,3.5473,3.597,3.6767,3.7543,3.8546,3.9794,3.9889,3.9889,3.9889,3.9889,3.9889,3.9889,3.9889,3.9889,3.9889,3.9889,3.9889,3.9889,3.9889,3.9889,3.9889,3.9889,3.9889,3.9889,3.9889,3.9889,3.9889,3.9826,3.9717,3.9561,3.9408,3.9154,3.8868,3.8663,3.8499,3.8392,1.8076,1.8076,1.8202,1.8674,1.9131,1.9518,1.9977,2.0313,2.0453,2.0151,2.0518,2.0892,2.1221,2.2372,2.3267,2.3623,2.4408,2.5314,2.6375,2.7354,2.8314,2.9299,3.0784,3.1936,3.2573,3.3237,3.3869,3.4535,3.5086,3.5489,3.5714,3.6141,3.6827,3.7739,3.7928,3.7604,3.6847,3.659,3.6361,3.6166,3.5699,3.5495,3.5488,3.5507,3.5493,3.5507,3.5488,3.5501,3.5501,3.5522,3.5528,3.555,3.5652,3.5762,3.5846,3.5953,3.5996,3.5996,3.5996,3.5996,3.5996,3.5995,3.5994,3.5991,3.6005,3.5962,3.5909,3.5929,3.5814,3.5721,3.5698,3.5554,3.5425,3.5445,3.534,3.5239,3.5239,3.5226,3.5196,3.5164,3.5129,3.538,3.6217,3.6956,3.8016,3.9532,3.9816,3.9889,3.9889,3.9889,3.9889,3.9889,3.9889,3.9889,3.9889,3.9889,3.9889,3.9889,3.9889,3.9889,3.9889,3.9889,3.9889,3.9889,3.9867,3.9826,3.9804,3.9647,3.9464,3.9249,3.91,3.8711,3.831,3.8212,3.8034,3.7881,1.8269,1.8269,1.8596,1.9507,1.9955,2.0462,2.1302,2.1678,2.1502,2.027,2.0828,2.1325,2.1388,2.2421,2.3267,2.3741,2.4163,2.5092,2.6923,2.7122,2.7775,2.9077,2.9943,3.0838,3.1867,3.2596,3.3114,3.3365,3.4148,3.4519,3.4483,3.5165,3.6075,3.7108,3.7113,3.6887,3.6458,3.6417,3.609,3.5586,3.552,3.5515,3.5502,3.5501,3.5493,3.5507,3.5509,3.5502,3.5509,3.556,3.56,3.5609,3.5687,3.5786,3.5916,3.5974,3.5996,3.5996,3.5996,3.5996,3.5996,3.5995,3.5995,3.5994,3.6007,3.6003,3.5999,3.5991,3.589,3.5774,3.5708,3.564,3.5579,3.5577,3.547,3.5378,3.5378,3.5273,3.5164,3.5129,3.5057,3.5325,3.614,3.6917,3.7788,3.8736,3.9494,3.9889,3.9889,3.9889,3.9889,3.9889,3.9889,3.9889,3.9889,3.9889,3.9889,3.9889,3.9889,3.9889,3.9889,3.9889,3.9889,3.9889,3.9781,3.9647,3.9526,3.9331,3.9227,3.9154,3.8603,3.8355,3.8277,3.7879,3.7739,3.7703,1.8977,1.911,1.9365,2.0268,2.059,2.0985,2.1491,2.1803,2.1815,2.1376,2.1803,2.2175,2.231,2.316,2.3813,2.4105,2.4794,2.5687,2.6692,2.7297,2.7947,2.8716,2.9497,3.0275,3.0975,3.1655,3.2149,3.2435,3.3262,3.3659,3.3653,3.4301,3.489,3.5399,3.6203,3.6198,3.5579,3.5854,3.5824,3.5565,3.5572,3.556,3.556,3.5554,3.5554,3.5554,3.5515,3.5526,3.556,3.5591,3.5601,3.5631,3.5774,3.5864,3.5907,3.5975,3.5996,3.5996,3.5996,3.5996,3.5996,3.5996,3.5995,3.5994,3.601,3.6007,3.6003,3.5994,3.5951,3.5919,3.5885,3.5757,3.565,3.566,3.5579,3.5495,3.5405,3.5355,3.5289,3.5181,3.5092,3.5172,3.5458,3.6633,3.7542,3.7883,3.9153,3.9889,3.9889,3.9889,3.9889,3.9889,3.9889,3.9889,3.9889,3.9889,3.9889,3.9889,3.9735,3.9647,3.9647,3.9575,3.9526,3.9477,3.9242,3.9136,3.9082,3.8905,3.8759,3.856,3.8231,3.8016,3.7862,3.7703,3.7649,3.7649,1.9497,1.9814,2.0193,2.1014,2.1353,2.1678,2.2113,2.2372,2.2555,2.2677,2.3075,2.3314,2.3088,2.4047,2.4694,2.4751,2.5632,2.6404,2.6864,2.7565,2.8158,2.8669,2.9393,3.0011,3.0477,3.1089,3.164,3.2109,3.283,3.3232,3.3379,3.3876,3.4227,3.4517,3.5476,3.56,3.5178,3.5509,3.5631,3.5601,3.5589,3.5608,3.5596,3.5604,3.5591,3.5604,3.557,3.5579,3.565,3.5674,3.5698,3.5709,3.586,3.591,3.5942,3.5995,3.5996,3.5996,3.5996,3.5996,3.5996,3.5996,3.5996,3.5995,3.5992,3.6009,3.6003,3.5994,3.6001,3.6009,3.6005,3.5878,3.576,3.5753,3.5678,3.5609,3.5512,3.5445,3.5369,3.5242,3.5162,3.5111,3.5001,3.6255,3.7164,3.7371,3.8736,3.9665,3.9889,3.9889,3.9889,3.9889,3.9889,3.9889,3.9889,3.9889,3.9889,3.9889,3.958,3.9439,3.9439,3.9234,3.9119,3.9008,3.8828,3.8711,3.8651,3.8486,3.8296,3.8099,3.7949,3.7757,3.7577,3.7577,3.7577,3.7577,1.9562,2.0257,2.1078,2.1916,2.2347,2.2798,2.3497,2.3865,2.4054,2.4054,2.4694,2.4781,2.3695,2.4964,2.5893,2.5893,2.6496,2.7144,2.7849,2.8012,2.8383,2.9075,2.9544,3.0011,3.0477,3.1089,3.1806,3.2606,3.3006,3.3368,3.3698,3.3972,3.439,3.4889,3.4926,3.5133,3.5502,3.556,3.5596,3.5601,3.5596,3.5596,3.5601,3.5604,3.5591,3.5616,3.5679,3.5697,3.5713,3.5845,3.5893,3.5893,3.5903,3.5942,3.5995,3.5996,3.5996,3.5996,3.5996,3.5996,3.5996,3.5996,3.5996,3.5996,3.5993,3.5991,3.6009,3.5996,3.6004,3.5997,3.6005,3.5938,3.5904,3.5889,3.5794,3.5693,3.5693,3.5535,3.5359,3.5311,3.5239,3.5147,3.502,3.5799,3.6615,3.7334,3.8205,3.9058,3.9851,3.9889,3.9889,3.9889,3.9889,3.9889,3.9889,3.9889,3.9889,3.9889,3.9494,3.9282,3.9282,3.8952,3.8741,3.8609,3.8609,3.8535,3.8382,3.8119,3.8018,3.7984,3.7721,3.7613,3.7577,3.7577,3.7577,3.7577,2.0853,2.1353,2.1803,2.2628,2.3005,2.3365,2.4118,2.435,2.4694,2.5189,2.5687,2.5837,2.5494,2.596,2.6351,2.6443,2.7056,2.7565,2.7864,2.8367,2.8935,2.9544,3.0011,3.0518,3.1044,3.1582,3.2144,3.2687,3.3081,3.3532,3.4049,3.4325,3.4548,3.4773,3.5086,3.5311,3.5438,3.5596,3.5662,3.5673,3.5662,3.5662,3.5673,3.5662,3.5667,3.567,3.5697,3.5767,3.5836,3.59,3.5923,3.5974,3.5973,3.5975,3.5996,3.5996,3.5996,3.5996,3.5996,3.5996,3.5996,3.5996,3.5996,3.5996,3.5993,3.6005,3.5999,3.5994,3.6004,3.5997,3.6005,3.5958,3.5904,3.5894,3.5852,3.5801,3.5702,3.565,3.5549,3.5386,3.5311,3.5209,3.5092,3.578,3.6557,3.7334,3.8205,3.9039,3.9851,3.9889,3.9889,3.9889,3.9889,3.9889,3.9889,3.9889,3.9762,3.9494,3.9171,3.8839,3.8449,3.818,3.8117,3.8201,3.8,3.7897,3.7863,3.7757,3.7721,3.7721,3.7613,3.7577,3.7577,3.7577,3.7577,3.7577,2.1248,2.2137,2.2833,2.3328,2.3858,2.4292,2.4794,2.5007,2.5287,2.5823,2.6322,2.6692,2.6909,2.7282,2.7348,2.7108,2.773,2.8238,2.8528,2.8966,2.9483,3.0054,3.0502,3.0925,3.1295,3.193,3.2488,3.2876,3.34,3.391,3.4348,3.4548,3.4754,3.4944,3.5232,3.5397,3.5477,3.5631,3.5704,3.5695,3.5688,3.5708,3.5689,3.5736,3.5741,3.5748,3.5762,3.5827,3.5896,3.5921,3.5972,3.5996,3.5996,3.5996,3.5996,3.5996,3.5996,3.5996,3.5996,3.5996,3.5996,3.5996,3.5996,3.5996,3.5993,3.6003,3.5991,3.5991,3.6004,3.5997,3.6005,3.5958,3.5904,3.5894,3.5908,3.5878,3.5794,3.5737,3.564,3.5495,3.5378,3.5251,3.511,3.5495,3.6083,3.6879,3.7732,3.8565,3.9399,3.974,3.9889,3.9889,3.9889,3.9889,3.9889,3.9739,3.9561,3.9282,3.8849,3.8373,3.7915,3.7739,3.7739,3.7845,3.7685,3.7577,3.7577,3.7577,3.7577,3.7577,3.7577,3.7577,3.7577,3.7577,3.7577,3.7577,2.0952,2.2522,2.396,2.4014,2.4737,2.5356,2.5494,2.5728,2.5986,2.6133,2.6768,2.7434,2.8018,2.8701,2.8795,2.7929,2.851,2.9091,2.9589,2.975,3.0054,3.0518,3.0908,3.1223,3.1411,3.2197,3.283,3.3243,3.3961,3.439,3.4593,3.4674,3.4925,3.5296,3.5316,3.5432,3.5612,3.5665,3.5695,3.5706,3.5706,3.571,3.5718,3.5788,3.5791,3.5821,3.5884,3.5896,3.5921,3.5976,3.5996,3.5996,3.5996,3.5996,3.5996,3.5996,3.5996,3.5996,3.5996,3.5996,3.5996,3.5996,3.5996,3.5996,3.5992,3.6003,3.5991,3.5991,3.6004,3.5997,3.6005,3.5958,3.5904,3.5894,3.5908,3.5908,3.5908,3.5794,3.5668,3.5599,3.5419,3.5258,3.511,3.502,3.5325,3.614,3.6936,3.7769,3.8662,3.9456,3.9889,3.9889,3.9889,3.9889,3.9867,3.9494,3.9257,3.9205,3.8493,3.7982,3.7577,3.7577,3.7577,3.7577,3.7577,3.7577,3.7577,3.7577,3.7577,3.7577,3.7577,3.7577,3.7577,3.7577,3.7577,3.7577,2.1867,2.2616,2.3393,2.4295,2.4569,2.5047,2.6342,2.6872,2.7181,2.7342,2.824,2.8795,2.8685,2.9241,2.9572,2.9467,2.9645,2.9837,2.9951,3.0208,3.0502,3.0965,3.1287,3.1735,3.2266,3.2734,3.3202,3.3652,3.4049,3.4367,3.4593,3.4774,3.4994,3.5316,3.5457,3.5589,3.5684,3.5689,3.5706,3.5696,3.5762,3.5788,3.5768,3.5786,3.5836,3.5884,3.5893,3.5927,3.5975,3.5996,3.5996,3.5996,3.5996,3.5996,3.5996,3.5996,3.5996,3.5996,3.5996,3.5996,3.5996,3.5996,3.5995,3.5992,3.6007,3.5999,3.5991,3.5991,3.6004,3.5997,3.6005,3.5958,3.5904,3.5894,3.5908,3.5908,3.5908,3.5878,3.5772,3.5538,3.5437,3.5292,3.5056,3.4964,3.5287,3.614,3.6936,3.7769,3.8662,3.9456,3.9889,3.9889,3.9889,3.9739,3.9445,3.9352,3.9017,3.8431,3.7964,3.7667,3.7577,3.7577,3.7577,3.7577,3.7577,3.7577,3.7577,3.7577,3.7577,3.7577,3.7577,3.7577,3.7577,3.7577,3.7577,3.7577,2.2136,2.3075,2.3977,2.4601,2.5334,2.6094,2.704,2.7799,2.8321,2.8511,2.9042,2.9451,2.9601,2.9951,3.0293,3.0559,3.0293,3.0208,3.0502,3.0818,3.1189,3.164,3.2004,3.2382,3.2816,3.3154,3.3597,3.4173,3.4344,3.4612,3.4906,3.5064,3.5258,3.5489,3.5601,3.5657,3.5699,3.5696,3.5718,3.5742,3.5827,3.5845,3.5849,3.5887,3.5901,3.595,3.595,3.5974,3.5996,3.5996,3.5976,3.5951,3.5951,3.5927,3.5918,3.5918,3.5951,3.5996,3.5996,3.5996,3.5996,3.5995,3.5993,3.6007,3.6005,3.5999,3.5991,3.5991,3.6004,3.5997,3.6005,3.5958,3.5904,3.5894,3.5846,3.5801,3.5801,3.5772,3.5669,3.5444,3.538,3.5254,3.5019,3.4945,3.5097,3.5571,3.6367,3.722,3.8054,3.8845,3.9448,3.9889,3.9781,3.958,3.9282,3.899,3.8493,3.7913,3.7703,3.7577,3.7577,3.7577,3.7577,3.7577,3.7577,3.7577,3.7577,3.7577,3.7577,3.7577,3.7577,3.7577,3.7577,3.7577,3.7577,3.7577,2.2363,2.3658,2.4847,2.507,2.6408,2.7501,2.7731,2.8674,2.9451,2.9553,2.9713,3.0031,3.0608,3.0811,3.105,3.1432,3.0874,3.0673,3.1162,3.1514,3.1898,3.2369,3.2763,3.3045,3.3154,3.3552,3.4043,3.4604,3.4693,3.4925,3.5296,3.5364,3.5509,3.5704,3.5706,3.5699,3.5702,3.5725,3.5756,3.5827,3.589,3.5921,3.5923,3.5976,3.5996,3.5996,3.5996,3.5976,3.5976,3.5975,3.5927,3.5887,3.5887,3.5845,3.5805,3.5786,3.5864,3.5955,3.5976,3.5995,3.5994,3.5992,3.6007,3.6003,3.6003,3.5999,3.5991,3.5991,3.6004,3.5994,3.6005,3.5953,3.5904,3.5889,3.5794,3.5693,3.5693,3.5631,3.55,3.5316,3.5277,3.5223,3.5001,3.4927,3.4908,3.4908,3.5704,3.6538,3.7332,3.8099,3.8886,3.9762,3.9575,3.9364,3.9152,3.8462,3.7948,3.7577,3.7577,3.7577,3.7577,3.7577,3.7577,3.7577,3.7577,3.7577,3.7577,3.7577,3.7577,3.7577,3.7577,3.7577,3.7577,3.7577,3.7577,3.7577,2.3363,2.3771,2.4541,2.5762,2.6604,2.7514,2.8739,2.9921,3.0573,3.0303,3.1053,3.1627,3.1462,3.1826,3.2162,3.2196,3.2265,3.2231,3.202,3.2127,3.2385,3.2777,3.3136,3.3372,3.3514,3.4136,3.4498,3.4591,3.4774,3.503,3.5297,3.5311,3.5445,3.5695,3.5698,3.5704,3.571,3.5827,3.5861,3.589,3.5953,3.5976,3.5996,3.5996,3.5996,3.5995,3.5947,3.5921,3.5918,3.5849,3.5812,3.5821,3.5811,3.58,3.5788,3.5736,3.5729,3.5777,3.5871,3.597,3.5994,3.6007,3.6005,3.6003,3.5996,3.5994,3.5991,3.5991,3.6001,3.6005,3.6005,3.5948,3.5894,3.5908,3.5794,3.5693,3.5693,3.5601,3.5456,3.5326,3.5247,3.5136,3.4945,3.4908,3.4908,3.4908,3.5704,3.6498,3.7187,3.8033,3.8747,3.9287,3.9253,3.8943,3.8387,3.7913,3.7685,3.7577,3.7577,3.7577,3.7577,3.7577,3.7577,3.7577,3.7577,3.7577,3.7577,3.7577,3.7577,3.7577,3.7577,3.7577,3.7577,3.7577,3.7577,3.7577,2.4168,2.4712,2.5333,2.6037,2.7153,2.8201,2.8898,3.0366,3.1346,3.1236,3.1737,3.2092,3.2057,3.2299,3.2586,3.2723,3.2849,3.3033,3.3169,3.296,3.2939,3.3166,3.3532,3.3858,3.4136,3.4545,3.4812,3.4926,3.5049,3.5232,3.5451,3.5509,3.5574,3.5698,3.5696,3.5748,3.5816,3.5861,3.5923,3.5953,3.5996,3.5974,3.5942,3.5947,3.5896,3.583,3.5792,3.5788,3.5783,3.5755,3.5723,3.5687,3.5698,3.5696,3.5698,3.566,3.5674,3.5717,3.5786,3.5869,3.5949,3.5955,3.5968,3.5996,3.5994,3.5991,3.5991,3.6007,3.5994,3.5981,3.5958,3.5924,3.5878,3.5801,3.5704,3.5621,3.5549,3.5412,3.5296,3.519,3.5141,3.5035,3.4908,3.4908,3.4908,3.4908,3.5268,3.5757,3.6355,3.7132,3.769,3.8,3.8431,3.8436,3.7948,3.7703,3.7577,3.7577,3.7577,3.7577,3.7577,3.7577,3.7577,3.7577,3.7577,3.7577,3.7577,3.7577,3.7577,3.7577,3.7577,3.7577,3.7577,3.7577,3.7577,3.7577,2.5019,2.566,2.6265,2.6369,2.7741,2.8938,2.9248,3.0751,3.1969,3.2282,3.2433,3.2613,3.2809,3.2921,3.3069,3.3312,3.3442,3.3676,3.4083,3.3792,3.3634,3.3715,3.4018,3.4344,3.4668,3.487,3.5054,3.5223,3.5315,3.5463,3.5616,3.5676,3.5708,3.5702,3.5741,3.5791,3.5896,3.5921,3.5953,3.5996,3.5975,3.5945,3.5896,3.5869,3.5797,3.5696,3.5682,3.5675,3.5675,3.5679,3.5639,3.5591,3.5581,3.5585,3.5579,3.5579,3.5609,3.5663,3.5687,3.5775,3.585,3.5852,3.5929,3.5981,3.5981,3.5985,3.5985,3.5951,3.5958,3.5938,3.5852,3.5846,3.5807,3.5704,3.5621,3.5543,3.5405,3.5254,3.5147,3.5075,3.502,3.4945,3.4889,3.4908,3.4908,3.4908,3.4889,3.509,3.5614,3.6286,3.6814,3.7203,3.7772,3.7948,3.7667,3.7613,3.7577,3.7577,3.7577,3.7577,3.7577,3.7577,3.7577,3.7577,3.7577,3.7577,3.7577,3.7577,3.7577,3.7577,3.7577,3.7577,3.7577,3.7558,3.7521,3.7521,2.598,2.6319,2.6703,2.7151,2.821,2.9378,3.0574,3.1674,3.2648,3.3459,3.3743,3.391,3.4055,3.413,3.4208,3.4292,3.436,3.4423,3.4467,3.4508,3.4529,3.4593,3.4753,3.4851,3.4889,3.5072,3.5207,3.5281,3.5476,3.5616,3.5684,3.5708,3.5693,3.5702,3.5831,3.589,3.5896,3.5973,3.5996,3.5995,3.5938,3.5896,3.589,3.5749,3.5703,3.5694,3.5629,3.5621,3.5602,3.5604,3.5596,3.5584,3.554,3.5496,3.5502,3.5501,3.5501,3.554,3.5666,3.5702,3.5702,3.571,3.5807,3.5914,3.5914,3.5962,3.5951,3.5844,3.5807,3.5784,3.565,3.5668,3.5696,3.562,3.5599,3.5543,3.5339,3.5187,3.5075,3.502,3.4945,3.4908,3.4908,3.4908,3.4908,3.4908,3.4849,3.5023,3.5491,3.6159,3.6948,3.7907,3.7756,3.7613,3.7631,3.7613,3.7577,3.7577,3.7577,3.7577,3.7577,3.7577,3.7577,3.7577,3.7577,3.7577,3.7577,3.7577,3.7577,3.7577,3.7577,3.7577,3.7594,3.7372,3.7334,3.7297,2.6997,2.7322,2.7648,2.7826,2.8709,2.9691,3.0685,3.1719,3.2702,3.3588,3.3868,3.4049,3.4124,3.4221,3.4367,3.4551,3.4674,3.4812,3.5,3.5034,3.4944,3.4773,3.4963,3.5089,3.5089,3.5285,3.5424,3.5488,3.5599,3.5698,3.5757,3.5755,3.578,3.5825,3.5874,3.5911,3.5957,3.5948,3.5935,3.5932,3.5812,3.5749,3.5721,3.5657,3.5611,3.5574,3.5558,3.5546,3.5534,3.5541,3.5547,3.5528,3.5515,3.5501,3.5501,3.5507,3.5493,3.5515,3.557,3.562,3.5641,3.5631,3.5715,3.5784,3.5784,3.5753,3.5733,3.5685,3.5687,3.565,3.562,3.563,3.559,3.5495,3.5438,3.5372,3.5254,3.5126,3.502,3.5001,3.4945,3.4908,3.4908,3.4908,3.4908,3.4908,3.483,3.4714,3.4513,3.525,3.6121,3.6986,3.7399,3.7577,3.7577,3.7577,3.7577,3.7577,3.7577,3.7577,3.7577,3.7577,3.7577,3.7577,3.7577,3.7577,3.7577,3.7577,3.7577,3.7577,3.7577,3.7503,3.741,3.7334,3.722,3.7105,2.7857,2.8192,2.8435,2.8394,2.9043,2.9879,3.0961,3.1763,3.2661,3.3792,3.4074,3.4245,3.4344,3.4435,3.4609,3.4889,3.5018,3.5138,3.5374,3.5424,3.5316,3.5064,3.5228,3.535,3.5353,3.5481,3.5611,3.5659,3.5713,3.5741,3.58,3.5827,3.5857,3.5903,3.5896,3.5937,3.5964,3.5869,3.5841,3.5836,3.5709,3.5648,3.559,3.5577,3.5509,3.5417,3.5479,3.5446,3.5417,3.5479,3.5493,3.5493,3.5493,3.5446,3.5383,3.5446,3.5398,3.5369,3.5412,3.547,3.5526,3.5558,3.5599,3.5641,3.5641,3.5621,3.5582,3.5549,3.5527,3.5523,3.5483,3.5507,3.5483,3.5355,3.5321,3.5258,3.5145,3.5057,3.5001,3.4964,3.4927,3.4908,3.4908,3.4908,3.4889,3.487,3.479,3.4566,3.4189,3.4826,3.5578,3.6363,3.7166,3.7577,3.7577,3.7577,3.7577,3.7577,3.7577,3.7577,3.7577,3.7577,3.7577,3.7577,3.7577,3.7577,3.7577,3.7577,3.7577,3.7577,3.7521,3.741,3.7297,3.7161,3.7027,3.6869,2.8543,2.8773,2.8946,2.8819,2.9141,2.9946,3.1563,3.1933,3.2577,3.4203,3.4517,3.4689,3.4889,3.4889,3.5054,3.5364,3.5412,3.5463,3.5596,3.566,3.567,3.5618,3.56,3.5621,3.5694,3.5696,3.5736,3.5807,3.5807,3.58,3.5797,3.5861,3.5896,3.5899,3.589,3.59,3.59,3.5761,3.5696,3.5687,3.5611,3.5609,3.5596,3.5509,3.5369,3.5226,3.5432,3.5369,3.5226,3.5432,3.5493,3.5493,3.5493,3.5304,3.5138,3.5335,3.5203,3.5032,3.5251,3.53,3.533,3.546,3.5509,3.5504,3.5504,3.5549,3.556,3.5432,3.5399,3.5369,3.5223,3.5311,3.5355,3.5215,3.5251,3.5243,3.5019,3.5001,3.4964,3.4908,3.4908,3.4908,3.4908,3.4908,3.487,3.4809,3.4666,3.4628,3.4663,3.5004,3.556,3.6363,3.7166,3.7577,3.7577,3.7577,3.7577,3.7577,3.7577,3.7577,3.7577,3.7577,3.7577,3.7577,3.7577,3.7577,3.7577,3.7577,3.7577,3.7594,3.7372,3.7297,3.7259,3.6846,3.6702,3.6643,2.9302,2.9457,2.9551,2.9514,2.9644,3.0318,3.1959,3.2278,3.2957,3.4586,3.4944,3.5032,3.5102,3.5181,3.5292,3.5397,3.5489,3.5585,3.567,3.5687,3.5737,3.5807,3.5729,3.5674,3.5694,3.5755,3.5794,3.5864,3.5873,3.5862,3.5878,3.5894,3.5862,3.5834,3.5791,3.5756,3.5755,3.5668,3.5562,3.5403,3.5359,3.5326,3.5296,3.5141,3.5226,3.5403,3.5324,3.5226,3.5141,3.5207,3.5088,3.4944,3.4944,3.487,3.4832,3.4889,3.4944,3.4997,3.5086,3.5184,3.5315,3.5364,3.5345,3.536,3.536,3.534,3.5307,3.5281,3.5251,3.5239,3.5215,3.5229,3.5229,3.5127,3.5108,3.507,3.502,3.4945,3.4927,3.4889,3.4908,3.4908,3.4908,3.4869,3.4751,3.4526,3.4068,3.3735,3.3665,3.4135,3.4793,3.5543,3.6328,3.7023,3.7577,3.7577,3.7577,3.7577,3.7577,3.7577,3.7577,3.7577,3.7577,3.7577,3.7577,3.7577,3.7577,3.7577,3.7521,3.7372,3.7334,3.7122,3.6846,3.6725,3.6602,3.6402,2.9801,2.9886,2.9902,2.9834,2.9867,3.0468,3.2139,3.2452,3.3108,3.4767,3.5117,3.5197,3.5243,3.5334,3.5425,3.5514,3.564,3.5749,3.5781,3.5807,3.5841,3.5896,3.5814,3.5792,3.5812,3.5864,3.589,3.5895,3.5898,3.5894,3.5869,3.5836,3.5791,3.5742,3.5618,3.5544,3.5533,3.5387,3.5254,3.5143,3.5105,3.5072,3.5018,3.4908,3.4926,3.5015,3.4999,3.4926,3.4794,3.4926,3.4832,3.4694,3.4694,3.4612,3.4529,3.4632,3.4674,3.4695,3.4774,3.4888,3.4978,3.4978,3.5138,3.5312,3.5312,3.5261,3.5193,3.5212,3.5196,3.5196,3.5164,3.5147,3.5147,3.5075,3.502,3.5001,3.4964,3.4927,3.4908,3.4908,3.4831,3.4752,3.4713,3.4567,3.4394,3.4128,3.3607,3.3291,3.322,3.3781,3.4454,3.5186,3.5989,3.6774,3.7577,3.7577,3.7577,3.7577,3.7577,3.7577,3.7577,3.7577,3.7577,3.7577,3.7577,3.7577,3.7577,3.7503,3.7317,3.7052,3.6913,3.6574,3.6199,3.6131,3.6002,3.5854,3.0052,3.0071,3.0094,2.9965,3.0003,3.0605,3.2219,3.2584,3.3257,3.4859,3.517,3.5297,3.5361,3.5419,3.5524,3.5708,3.5827,3.5892,3.5909,3.5964,3.5951,3.5896,3.5895,3.5917,3.5976,3.5976,3.5951,3.589,3.588,3.5856,3.5801,3.5696,3.5663,3.5648,3.5377,3.527,3.5243,3.4996,3.4889,3.4851,3.4851,3.4831,3.4753,3.4733,3.4569,3.4357,3.4591,3.4508,3.4334,3.4548,3.4612,3.4612,3.4612,3.442,3.4218,3.4464,3.4371,3.4227,3.442,3.4486,3.4508,3.4508,3.4851,3.5209,3.5229,3.5193,3.516,3.5164,3.5183,3.5164,3.5075,3.5057,3.5039,3.4983,3.4927,3.4908,3.4889,3.487,3.4851,3.4812,3.467,3.452,3.4357,3.4104,3.3854,3.3661,3.3361,3.316,3.316,3.3709,3.4365,3.5186,3.5917,3.6702,3.7577,3.754,3.754,3.7577,3.7577,3.7577,3.7577,3.754,3.7503,3.7503,3.7449,3.7466,3.7411,3.7241,3.6917,3.6545,3.6207,3.5803,3.5459,3.5253,3.5224,3.5224,3.0309,3.0323,3.033,3.0305,3.0849,3.1691,3.2778,3.3538,3.4381,3.5488,3.5709,3.5756,3.578,3.5783,3.5802,3.5857,3.5884,3.5898,3.589,3.5909,3.5884,3.5818,3.5814,3.5834,3.5849,3.5834,3.5849,3.5827,3.5816,3.5795,3.5713,3.5493,3.5348,3.5287,3.5078,3.4997,3.498,3.4908,3.4772,3.4604,3.4604,3.4524,3.4379,3.4232,3.4348,3.4593,3.4423,3.4334,3.4195,3.4037,3.4005,3.4005,3.4005,3.3954,3.3902,3.3954,3.408,3.4221,3.425,3.433,3.4423,3.4423,3.4467,3.4532,3.4655,3.4774,3.4889,3.4889,3.502,3.5057,3.4753,3.4713,3.4693,3.4689,3.4498,3.4454,3.4647,3.4668,3.4564,3.4242,3.4334,3.4311,3.4031,3.3715,3.3458,3.3321,3.3099,3.2979,3.2979,3.3077,3.3776,3.5168,3.5382,3.6149,3.7577,3.7243,3.7243,3.7577,3.7577,3.7521,3.7372,3.7034,3.6803,3.6638,3.6357,3.6274,3.6274,3.6207,3.602,3.5752,3.5637,3.5493,3.5253,3.5224,3.5224,3.5224,3.0492,3.0492,3.0501,3.051,3.1234,3.2141,3.3021,3.3913,3.4808,3.568,3.586,3.5896,3.59,3.5903,3.5916,3.5935,3.5918,3.5895,3.59,3.5907,3.5857,3.5755,3.5755,3.5689,3.5553,3.5563,3.5627,3.5742,3.5616,3.5543,3.55,3.523,3.5095,3.5051,3.4793,3.4711,3.4691,3.4545,3.439,3.4269,3.4269,3.4203,3.4111,3.3979,3.408,3.4255,3.4093,3.4043,3.3986,3.3842,3.3807,3.3807,3.3807,3.378,3.3753,3.3753,3.3815,3.3921,3.3921,3.3979,3.4018,3.4018,3.3993,3.4043,3.4334,3.4486,3.4551,3.4529,3.4612,3.4612,3.4439,3.4394,3.4413,3.4409,3.4293,3.4245,3.4386,3.4344,3.4237,3.4049,3.3981,3.3828,3.3514,3.3273,3.3129,3.3055,3.2961,3.2916,3.2916,3.2916,3.3598,3.5168,3.5204,3.5865,3.7264,3.6978,3.6821,3.6878,3.6878,3.6856,3.6696,3.644,3.6274,3.6165,3.5994,3.5907,3.589,3.5759,3.552,3.5232,3.5144,3.4927,3.4658,3.4658,3.4658,3.4658,3.0625,3.0613,3.0646,3.0801,3.1598,3.2472,3.3312,3.4237,3.5073,3.5759,3.5871,3.5918,3.5921,3.5917,3.5929,3.5986,3.5921,3.5901,3.588,3.5851,3.5791,3.5663,3.5646,3.5532,3.5297,3.5283,3.5374,3.5573,3.5341,3.5235,3.5235,3.4963,3.4831,3.4812,3.4542,3.4427,3.4404,3.4124,3.3998,3.3972,3.3972,3.3947,3.3868,3.3868,3.3842,3.3807,3.3807,3.3788,3.378,3.378,3.378,3.378,3.378,3.3726,3.3671,3.3671,3.3643,3.3605,3.3605,3.3605,3.3577,3.3577,3.3577,3.3671,3.4068,3.4195,3.4218,3.4171,3.4171,3.4189,3.413,3.4124,3.4124,3.4124,3.4099,3.4074,3.4124,3.4037,3.3924,3.3828,3.3579,3.3291,3.3011,3.2948,3.2916,3.2916,3.2916,3.2916,3.2916,3.2916,3.3598,3.5168,3.5135,3.5668,3.6843,3.6626,3.6298,3.595,3.582,3.5864,3.5994,3.5803,3.5715,3.5688,3.5627,3.5582,3.5582,3.534,3.5111,3.4847,3.4675,3.4399,3.4101,3.4101,3.4101,3.4101,3.0695,3.0645,3.0833,3.1579,3.2447,3.3356,3.428,3.5154,3.5773,3.5957,3.5974,3.5989,3.5999,3.5923,3.5903,3.5914,3.5908,3.5879,3.5823,3.566,3.5549,3.5526,3.5418,3.5336,3.5296,3.5197,3.513,3.5078,3.5011,3.4959,3.4943,3.4752,3.4604,3.4539,3.4269,3.4124,3.4074,3.4023,3.3972,3.3921,3.3921,3.3868,3.3815,3.3815,3.3807,3.3807,3.3807,3.378,3.3726,3.3726,3.3671,3.3633,3.3633,3.3633,3.3587,3.3587,3.3605,3.3605,3.3605,3.3549,3.3491,3.3491,3.3481,3.3452,3.352,3.3734,3.3954,3.3928,3.408,3.413,3.3895,3.3842,3.3842,3.3842,3.3643,3.3577,3.3753,3.3734,3.3597,3.319,3.3055,3.2961,3.2916,3.2916,3.2916,3.2916,3.2916,3.2916,3.2916,3.2916,3.3598,3.5168,3.4853,3.5317,3.6729,3.5959,3.5493,3.5328,3.4785,3.4911,3.5548,3.5249,3.5005,3.4818,3.4464,3.4317,3.4317,3.4317,3.4267,3.4234,3.4184,3.4151,3.4101,3.4101,3.4101,3.4101,3.0804,3.1155,3.1568,3.1942,3.3138,3.4181,3.4583,3.5409,3.5976,3.5992,3.6003,3.5994,3.6001,3.5919,3.584,3.5788,3.5713,3.565,3.5577,3.5488,3.5432,3.5402,3.5262,3.5152,3.5016,3.4888,3.4716,3.4551,3.4675,3.4735,3.4735,3.448,3.4363,3.4316,3.4124,3.4023,3.3998,3.3921,3.3868,3.3815,3.3634,3.368,3.378,3.3578,3.3522,3.3522,3.3522,3.3494,3.3512,3.3643,3.3671,3.3643,3.3587,3.3577,3.3549,3.3549,3.3538,3.3481,3.3481,3.3481,3.3452,3.3452,3.3422,3.3393,3.3393,3.3491,3.3633,3.3633,3.3698,3.3726,3.3605,3.3577,3.3577,3.3577,3.3452,3.3382,3.3452,3.3375,3.3208,3.2979,3.2916,3.2916,3.2916,3.2916,3.2916,3.2916,3.2705,3.2672,3.2884,3.247,3.3055,3.48,3.4469,3.4794,3.5942,3.5537,3.5098,3.469,3.4333,3.4415,3.4816,3.4593,3.4464,3.4349,3.4201,3.4101,3.4101,3.4101,3.4101,3.4101,3.4101,3.4101,3.4101,3.4101,3.4101,3.4101]}]]